<?xml version="1.0" encoding="UTF-8" standalone="no" ?>
<gpx xmlns="http://www.topografix.com/GPX/1/1" xmlns:xsi="http://www.w3.org/2001/XMLSchema-instance" xsi:schemaLocation="http://www.topografix.com/GPX/1/1 http://www.topografix.com/GPX/1/1/gpx.xsd" version="1.1" creator="VisuGPX - https://www.visugpx.com">
  <metadata>
    <name>34XS VALL DE RIBES</name>
    <desc><![CDATA[34XS VALL DE RIBES------------------]]></desc>
  </metadata>
  <trk>
    <name><![CDATA[Trail Vall de Ribes 34K]]></name>
    <trkseg>
      <trkpt lat="42.30623" lon="2.16908">
        <ele>907.14</ele>
        <time>2019-02-23T06:07:38Z</time>
      </trkpt>
      <trkpt lat="42.30624" lon="2.16909">
        <ele>906.66</ele>
        <time>2019-02-23T06:07:58Z</time>
      </trkpt>
      <trkpt lat="42.30624" lon="2.16909">
        <ele>906.66</ele>
        <time>2019-02-23T06:08:18Z</time>
      </trkpt>
      <trkpt lat="42.30624" lon="2.16908">
        <ele>906.66</ele>
        <time>2019-02-23T06:08:34Z</time>
      </trkpt>
      <trkpt lat="42.30624" lon="2.16908">
        <ele>906.66</ele>
        <time>2019-02-23T06:08:54Z</time>
      </trkpt>
      <trkpt lat="42.30624" lon="2.16908">
        <ele>906.66</ele>
        <time>2019-02-23T06:09:15Z</time>
      </trkpt>
      <trkpt lat="42.30624" lon="2.16908">
        <ele>906.66</ele>
        <time>2019-02-23T06:09:36Z</time>
      </trkpt>
      <trkpt lat="42.30624" lon="2.16908">
        <ele>906.66</ele>
        <time>2019-02-23T06:09:43Z</time>
      </trkpt>
      <trkpt lat="42.30633" lon="2.16909">
        <ele>906.66</ele>
        <time>2019-02-23T06:10:00Z</time>
      </trkpt>
      <trkpt lat="42.30642" lon="2.16916">
        <ele>906.66</ele>
        <time>2019-02-23T06:10:09Z</time>
      </trkpt>
      <trkpt lat="42.30674" lon="2.1695">
        <ele>908.1</ele>
        <time>2019-02-23T06:10:24Z</time>
      </trkpt>
      <trkpt lat="42.3071" lon="2.16984">
        <ele>909.06</ele>
        <time>2019-02-23T06:10:39Z</time>
      </trkpt>
      <trkpt lat="42.30751" lon="2.17027">
        <ele>910.99</ele>
        <time>2019-02-23T06:10:57Z</time>
      </trkpt>
      <trkpt lat="42.3079" lon="2.17033">
        <ele>911.95</ele>
        <time>2019-02-23T06:11:12Z</time>
      </trkpt>
      <trkpt lat="42.30824" lon="2.17033">
        <ele>913.39</ele>
        <time>2019-02-23T06:11:26Z</time>
      </trkpt>
      <trkpt lat="42.30844" lon="2.17058">
        <ele>915.31</ele>
        <time>2019-02-23T06:11:42Z</time>
      </trkpt>
      <trkpt lat="42.30847" lon="2.17059">
        <ele>915.31</ele>
        <time>2019-02-23T06:11:44Z</time>
      </trkpt>
      <trkpt lat="42.30886" lon="2.17095">
        <ele>916.75</ele>
        <time>2019-02-23T06:11:58Z</time>
      </trkpt>
      <trkpt lat="42.30907" lon="2.17144">
        <ele>916.75</ele>
        <time>2019-02-23T06:12:15Z</time>
      </trkpt>
      <trkpt lat="42.30941" lon="2.1718">
        <ele>918.2</ele>
        <time>2019-02-23T06:12:28Z</time>
      </trkpt>
      <trkpt lat="42.3097" lon="2.17177">
        <ele>921.56</ele>
        <time>2019-02-23T06:12:40Z</time>
      </trkpt>
      <trkpt lat="42.30993" lon="2.17165">
        <ele>924.45</ele>
        <time>2019-02-23T06:12:54Z</time>
      </trkpt>
      <trkpt lat="42.31015" lon="2.17177">
        <ele>926.37</ele>
        <time>2019-02-23T06:13:10Z</time>
      </trkpt>
      <trkpt lat="42.31031" lon="2.17183">
        <ele>927.81</ele>
        <time>2019-02-23T06:13:28Z</time>
      </trkpt>
      <trkpt lat="42.31029" lon="2.17181">
        <ele>928.29</ele>
        <time>2019-02-23T06:13:31Z</time>
      </trkpt>
      <trkpt lat="42.31027" lon="2.1718">
        <ele>929.25</ele>
        <time>2019-02-23T06:13:33Z</time>
      </trkpt>
      <trkpt lat="42.3102" lon="2.17175">
        <ele>930.69</ele>
        <time>2019-02-23T06:13:41Z</time>
      </trkpt>
      <trkpt lat="42.31007" lon="2.17178">
        <ele>935.02</ele>
        <time>2019-02-23T06:13:54Z</time>
      </trkpt>
      <trkpt lat="42.30996" lon="2.17189">
        <ele>937.9</ele>
        <time>2019-02-23T06:14:03Z</time>
      </trkpt>
      <trkpt lat="42.30998" lon="2.17193">
        <ele>937.9</ele>
        <time>2019-02-23T06:14:06Z</time>
      </trkpt>
      <trkpt lat="42.31002" lon="2.17195">
        <ele>939.83</ele>
        <time>2019-02-23T06:14:09Z</time>
      </trkpt>
      <trkpt lat="42.31009" lon="2.17196">
        <ele>940.79</ele>
        <time>2019-02-23T06:14:12Z</time>
      </trkpt>
      <trkpt lat="42.31031" lon="2.17214">
        <ele>942.71</ele>
        <time>2019-02-23T06:14:26Z</time>
      </trkpt>
      <trkpt lat="42.3106" lon="2.17236">
        <ele>945.11</ele>
        <time>2019-02-23T06:14:41Z</time>
      </trkpt>
      <trkpt lat="42.3108" lon="2.17257">
        <ele>946.07</ele>
        <time>2019-02-23T06:14:52Z</time>
      </trkpt>
      <trkpt lat="42.31113" lon="2.17287">
        <ele>947.04</ele>
        <time>2019-02-23T06:15:08Z</time>
      </trkpt>
      <trkpt lat="42.31119" lon="2.17294">
        <ele>948.96</ele>
        <time>2019-02-23T06:15:11Z</time>
      </trkpt>
      <trkpt lat="42.31128" lon="2.17296">
        <ele>949.44</ele>
        <time>2019-02-23T06:15:17Z</time>
      </trkpt>
      <trkpt lat="42.31136" lon="2.17291">
        <ele>950.4</ele>
        <time>2019-02-23T06:15:21Z</time>
      </trkpt>
      <trkpt lat="42.31138" lon="2.17293">
        <ele>950.88</ele>
        <time>2019-02-23T06:15:25Z</time>
      </trkpt>
      <trkpt lat="42.3114" lon="2.1729">
        <ele>951.84</ele>
        <time>2019-02-23T06:15:32Z</time>
      </trkpt>
      <trkpt lat="42.31157" lon="2.1731">
        <ele>954.73</ele>
        <time>2019-02-23T06:15:48Z</time>
      </trkpt>
      <trkpt lat="42.3117" lon="2.17333">
        <ele>957.13</ele>
        <time>2019-02-23T06:16:05Z</time>
      </trkpt>
      <trkpt lat="42.31195" lon="2.17347">
        <ele>960.01</ele>
        <time>2019-02-23T06:16:20Z</time>
      </trkpt>
      <trkpt lat="42.31206" lon="2.17357">
        <ele>961.94</ele>
        <time>2019-02-23T06:16:28Z</time>
      </trkpt>
      <trkpt lat="42.31212" lon="2.17361">
        <ele>962.9</ele>
        <time>2019-02-23T06:16:39Z</time>
      </trkpt>
      <trkpt lat="42.31219" lon="2.17362">
        <ele>965.78</ele>
        <time>2019-02-23T06:16:46Z</time>
      </trkpt>
      <trkpt lat="42.3122" lon="2.17363">
        <ele>965.3</ele>
        <time>2019-02-23T06:16:47Z</time>
      </trkpt>
      <trkpt lat="42.31235" lon="2.17384">
        <ele>967.7</ele>
        <time>2019-02-23T06:17:02Z</time>
      </trkpt>
      <trkpt lat="42.31258" lon="2.17403">
        <ele>969.15</ele>
        <time>2019-02-23T06:17:14Z</time>
      </trkpt>
      <trkpt lat="42.31284" lon="2.17417">
        <ele>970.59</ele>
        <time>2019-02-23T06:17:27Z</time>
      </trkpt>
      <trkpt lat="42.31303" lon="2.1742">
        <ele>974.43</ele>
        <time>2019-02-23T06:17:38Z</time>
      </trkpt>
      <trkpt lat="42.31311" lon="2.17418">
        <ele>977.32</ele>
        <time>2019-02-23T06:17:45Z</time>
      </trkpt>
      <trkpt lat="42.31312" lon="2.17418">
        <ele>977.32</ele>
        <time>2019-02-23T06:17:46Z</time>
      </trkpt>
      <trkpt lat="42.31333" lon="2.17426">
        <ele>980.2</ele>
        <time>2019-02-23T06:18:00Z</time>
      </trkpt>
      <trkpt lat="42.31335" lon="2.17427">
        <ele>981.16</ele>
        <time>2019-02-23T06:18:01Z</time>
      </trkpt>
      <trkpt lat="42.31354" lon="2.17422">
        <ele>984.53</ele>
        <time>2019-02-23T06:18:12Z</time>
      </trkpt>
      <trkpt lat="42.31365" lon="2.17417">
        <ele>986.93</ele>
        <time>2019-02-23T06:18:25Z</time>
      </trkpt>
      <trkpt lat="42.31365" lon="2.17417">
        <ele>986.45</ele>
        <time>2019-02-23T06:18:46Z</time>
      </trkpt>
      <trkpt lat="42.31364" lon="2.17416">
        <ele>986.93</ele>
        <time>2019-02-23T06:19:06Z</time>
      </trkpt>
      <trkpt lat="42.31365" lon="2.17416">
        <ele>986.45</ele>
        <time>2019-02-23T06:19:19Z</time>
      </trkpt>
      <trkpt lat="42.31369" lon="2.17419">
        <ele>988.37</ele>
        <time>2019-02-23T06:19:23Z</time>
      </trkpt>
      <trkpt lat="42.3138" lon="2.17426">
        <ele>989.81</ele>
        <time>2019-02-23T06:19:30Z</time>
      </trkpt>
      <trkpt lat="42.31398" lon="2.17427">
        <ele>993.18</ele>
        <time>2019-02-23T06:19:40Z</time>
      </trkpt>
      <trkpt lat="42.31402" lon="2.17431">
        <ele>995.1</ele>
        <time>2019-02-23T06:19:44Z</time>
      </trkpt>
      <trkpt lat="42.3141" lon="2.17436">
        <ele>998.47</ele>
        <time>2019-02-23T06:19:51Z</time>
      </trkpt>
      <trkpt lat="42.31411" lon="2.17436">
        <ele>998.47</ele>
        <time>2019-02-23T06:19:52Z</time>
      </trkpt>
      <trkpt lat="42.31427" lon="2.1745">
        <ele>1002.79</ele>
        <time>2019-02-23T06:20:04Z</time>
      </trkpt>
      <trkpt lat="42.31428" lon="2.1745">
        <ele>1002.79</ele>
        <time>2019-02-23T06:20:05Z</time>
      </trkpt>
      <trkpt lat="42.31442" lon="2.17469">
        <ele>1006.16</ele>
        <time>2019-02-23T06:20:18Z</time>
      </trkpt>
      <trkpt lat="42.31449" lon="2.17492">
        <ele>1009.52</ele>
        <time>2019-02-23T06:20:30Z</time>
      </trkpt>
      <trkpt lat="42.31443" lon="2.17509">
        <ele>1012.41</ele>
        <time>2019-02-23T06:20:41Z</time>
      </trkpt>
      <trkpt lat="42.31446" lon="2.17533">
        <ele>1015.29</ele>
        <time>2019-02-23T06:20:53Z</time>
      </trkpt>
      <trkpt lat="42.3145" lon="2.17542">
        <ele>1017.21</ele>
        <time>2019-02-23T06:20:59Z</time>
      </trkpt>
      <trkpt lat="42.31454" lon="2.17546">
        <ele>1018.17</ele>
        <time>2019-02-23T06:21:02Z</time>
      </trkpt>
      <trkpt lat="42.31462" lon="2.1755">
        <ele>1022.02</ele>
        <time>2019-02-23T06:21:15Z</time>
      </trkpt>
      <trkpt lat="42.31464" lon="2.17547">
        <ele>1022.5</ele>
        <time>2019-02-23T06:21:18Z</time>
      </trkpt>
      <trkpt lat="42.31468" lon="2.17551">
        <ele>1024.42</ele>
        <time>2019-02-23T06:21:22Z</time>
      </trkpt>
      <trkpt lat="42.31482" lon="2.17565">
        <ele>1027.79</ele>
        <time>2019-02-23T06:21:35Z</time>
      </trkpt>
      <trkpt lat="42.31499" lon="2.17579">
        <ele>1031.15</ele>
        <time>2019-02-23T06:21:48Z</time>
      </trkpt>
      <trkpt lat="42.31501" lon="2.1758">
        <ele>1031.15</ele>
        <time>2019-02-23T06:21:49Z</time>
      </trkpt>
      <trkpt lat="42.31513" lon="2.17588">
        <ele>1033.55</ele>
        <time>2019-02-23T06:22:02Z</time>
      </trkpt>
      <trkpt lat="42.31514" lon="2.17589">
        <ele>1033.55</ele>
        <time>2019-02-23T06:22:06Z</time>
      </trkpt>
      <trkpt lat="42.31517" lon="2.17592">
        <ele>1034.04</ele>
        <time>2019-02-23T06:22:09Z</time>
      </trkpt>
      <trkpt lat="42.31523" lon="2.17598">
        <ele>1035</ele>
        <time>2019-02-23T06:22:15Z</time>
      </trkpt>
      <trkpt lat="42.31526" lon="2.17629">
        <ele>1036.92</ele>
        <time>2019-02-23T06:22:31Z</time>
      </trkpt>
      <trkpt lat="42.31528" lon="2.17635">
        <ele>1037.88</ele>
        <time>2019-02-23T06:22:34Z</time>
      </trkpt>
      <trkpt lat="42.31527" lon="2.17647">
        <ele>1040.28</ele>
        <time>2019-02-23T06:22:40Z</time>
      </trkpt>
      <trkpt lat="42.31528" lon="2.17649">
        <ele>1039.8</ele>
        <time>2019-02-23T06:22:41Z</time>
      </trkpt>
      <trkpt lat="42.31528" lon="2.17673">
        <ele>1042.69</ele>
        <time>2019-02-23T06:22:52Z</time>
      </trkpt>
      <trkpt lat="42.31522" lon="2.17708">
        <ele>1045.57</ele>
        <time>2019-02-23T06:23:07Z</time>
      </trkpt>
      <trkpt lat="42.31534" lon="2.17742">
        <ele>1048.45</ele>
        <time>2019-02-23T06:23:21Z</time>
      </trkpt>
      <trkpt lat="42.31549" lon="2.17771">
        <ele>1051.82</ele>
        <time>2019-02-23T06:23:37Z</time>
      </trkpt>
      <trkpt lat="42.3155" lon="2.17772">
        <ele>1051.82</ele>
        <time>2019-02-23T06:23:38Z</time>
      </trkpt>
      <trkpt lat="42.31566" lon="2.17784">
        <ele>1055.67</ele>
        <time>2019-02-23T06:23:50Z</time>
      </trkpt>
      <trkpt lat="42.31577" lon="2.17789">
        <ele>1057.59</ele>
        <time>2019-02-23T06:23:59Z</time>
      </trkpt>
      <trkpt lat="42.31584" lon="2.17793">
        <ele>1060.47</ele>
        <time>2019-02-23T06:24:05Z</time>
      </trkpt>
      <trkpt lat="42.31593" lon="2.17798">
        <ele>1063.36</ele>
        <time>2019-02-23T06:24:13Z</time>
      </trkpt>
      <trkpt lat="42.31601" lon="2.17806">
        <ele>1066.72</ele>
        <time>2019-02-23T06:24:21Z</time>
      </trkpt>
      <trkpt lat="42.31608" lon="2.1781">
        <ele>1069.12</ele>
        <time>2019-02-23T06:24:28Z</time>
      </trkpt>
      <trkpt lat="42.31615" lon="2.17818">
        <ele>1071.53</ele>
        <time>2019-02-23T06:24:36Z</time>
      </trkpt>
      <trkpt lat="42.31623" lon="2.17831">
        <ele>1074.41</ele>
        <time>2019-02-23T06:24:46Z</time>
      </trkpt>
      <trkpt lat="42.31625" lon="2.17833">
        <ele>1075.37</ele>
        <time>2019-02-23T06:24:48Z</time>
      </trkpt>
      <trkpt lat="42.31632" lon="2.1784">
        <ele>1078.26</ele>
        <time>2019-02-23T06:24:57Z</time>
      </trkpt>
      <trkpt lat="42.3164" lon="2.17846">
        <ele>1081.62</ele>
        <time>2019-02-23T06:25:06Z</time>
      </trkpt>
      <trkpt lat="42.31642" lon="2.17849">
        <ele>1084.02</ele>
        <time>2019-02-23T06:25:10Z</time>
      </trkpt>
      <trkpt lat="42.31646" lon="2.17855">
        <ele>1084.99</ele>
        <time>2019-02-23T06:25:14Z</time>
      </trkpt>
      <trkpt lat="42.31653" lon="2.17863">
        <ele>1087.87</ele>
        <time>2019-02-23T06:25:24Z</time>
      </trkpt>
      <trkpt lat="42.31662" lon="2.17863">
        <ele>1089.79</ele>
        <time>2019-02-23T06:25:32Z</time>
      </trkpt>
      <trkpt lat="42.31668" lon="2.17865">
        <ele>1092.2</ele>
        <time>2019-02-23T06:25:38Z</time>
      </trkpt>
      <trkpt lat="42.3167" lon="2.17865">
        <ele>1093.64</ele>
        <time>2019-02-23T06:25:42Z</time>
      </trkpt>
      <trkpt lat="42.31676" lon="2.17865">
        <ele>1096.52</ele>
        <time>2019-02-23T06:25:50Z</time>
      </trkpt>
      <trkpt lat="42.31684" lon="2.17865">
        <ele>1098.92</ele>
        <time>2019-02-23T06:25:57Z</time>
      </trkpt>
      <trkpt lat="42.31696" lon="2.17867">
        <ele>1102.29</ele>
        <time>2019-02-23T06:26:06Z</time>
      </trkpt>
      <trkpt lat="42.31703" lon="2.17868">
        <ele>1105.17</ele>
        <time>2019-02-23T06:26:14Z</time>
      </trkpt>
      <trkpt lat="42.31707" lon="2.1787">
        <ele>1107.1</ele>
        <time>2019-02-23T06:26:19Z</time>
      </trkpt>
      <trkpt lat="42.31716" lon="2.17874">
        <ele>1109.02</ele>
        <time>2019-02-23T06:26:29Z</time>
      </trkpt>
      <trkpt lat="42.31707" lon="2.17814">
        <ele>1109.5</ele>
        <time>2019-02-23T06:26:46Z</time>
      </trkpt>
      <trkpt lat="42.31709" lon="2.1775">
        <ele>1109.98</ele>
        <time>2019-02-23T06:27:02Z</time>
      </trkpt>
      <trkpt lat="42.31711" lon="2.17684">
        <ele>1109.02</ele>
        <time>2019-02-23T06:27:18Z</time>
      </trkpt>
      <trkpt lat="42.31703" lon="2.17619">
        <ele>1108.06</ele>
        <time>2019-02-23T06:27:33Z</time>
      </trkpt>
      <trkpt lat="42.3172" lon="2.17555">
        <ele>1108.54</ele>
        <time>2019-02-23T06:27:49Z</time>
      </trkpt>
      <trkpt lat="42.31745" lon="2.17536">
        <ele>1110.46</ele>
        <time>2019-02-23T06:28:02Z</time>
      </trkpt>
      <trkpt lat="42.31749" lon="2.17539">
        <ele>1112.38</ele>
        <time>2019-02-23T06:28:11Z</time>
      </trkpt>
      <trkpt lat="42.3175" lon="2.17543">
        <ele>1113.82</ele>
        <time>2019-02-23T06:28:17Z</time>
      </trkpt>
      <trkpt lat="42.31752" lon="2.17547">
        <ele>1114.79</ele>
        <time>2019-02-23T06:28:22Z</time>
      </trkpt>
      <trkpt lat="42.31754" lon="2.17549">
        <ele>1115.75</ele>
        <time>2019-02-23T06:28:24Z</time>
      </trkpt>
      <trkpt lat="42.31755" lon="2.17549">
        <ele>1116.23</ele>
        <time>2019-02-23T06:28:26Z</time>
      </trkpt>
      <trkpt lat="42.3176" lon="2.17552">
        <ele>1117.67</ele>
        <time>2019-02-23T06:28:30Z</time>
      </trkpt>
      <trkpt lat="42.31774" lon="2.1756">
        <ele>1121.52</ele>
        <time>2019-02-23T06:28:41Z</time>
      </trkpt>
      <trkpt lat="42.31776" lon="2.17562">
        <ele>1122</ele>
        <time>2019-02-23T06:28:43Z</time>
      </trkpt>
      <trkpt lat="42.31782" lon="2.17572">
        <ele>1124.88</ele>
        <time>2019-02-23T06:28:51Z</time>
      </trkpt>
      <trkpt lat="42.31787" lon="2.17576">
        <ele>1127.28</ele>
        <time>2019-02-23T06:28:56Z</time>
      </trkpt>
      <trkpt lat="42.31789" lon="2.17579">
        <ele>1128.73</ele>
        <time>2019-02-23T06:29:00Z</time>
      </trkpt>
      <trkpt lat="42.3179" lon="2.17594">
        <ele>1132.09</ele>
        <time>2019-02-23T06:29:09Z</time>
      </trkpt>
      <trkpt lat="42.31792" lon="2.17596">
        <ele>1133.05</ele>
        <time>2019-02-23T06:29:11Z</time>
      </trkpt>
      <trkpt lat="42.31793" lon="2.17597">
        <ele>1133.05</ele>
        <time>2019-02-23T06:29:12Z</time>
      </trkpt>
      <trkpt lat="42.31796" lon="2.176">
        <ele>1133.53</ele>
        <time>2019-02-23T06:29:15Z</time>
      </trkpt>
      <trkpt lat="42.31798" lon="2.17602">
        <ele>1132.57</ele>
        <time>2019-02-23T06:29:31Z</time>
      </trkpt>
      <trkpt lat="42.31798" lon="2.17602">
        <ele>1132.57</ele>
        <time>2019-02-23T06:29:58Z</time>
      </trkpt>
      <trkpt lat="42.31799" lon="2.17604">
        <ele>1132.09</ele>
        <time>2019-02-23T06:30:30Z</time>
      </trkpt>
      <trkpt lat="42.31799" lon="2.17604">
        <ele>1131.61</ele>
        <time>2019-02-23T06:30:51Z</time>
      </trkpt>
      <trkpt lat="42.31799" lon="2.17604">
        <ele>1131.61</ele>
        <time>2019-02-23T06:30:53Z</time>
      </trkpt>
      <trkpt lat="42.318" lon="2.17602">
        <ele>1132.57</ele>
        <time>2019-02-23T06:31:08Z</time>
      </trkpt>
      <trkpt lat="42.31799" lon="2.17601">
        <ele>1132.09</ele>
        <time>2019-02-23T06:31:24Z</time>
      </trkpt>
      <trkpt lat="42.31799" lon="2.17601">
        <ele>1132.09</ele>
        <time>2019-02-23T06:31:51Z</time>
      </trkpt>
      <trkpt lat="42.31804" lon="2.17605">
        <ele>1132.57</ele>
        <time>2019-02-23T06:31:57Z</time>
      </trkpt>
      <trkpt lat="42.31822" lon="2.17612">
        <ele>1135.94</ele>
        <time>2019-02-23T06:32:11Z</time>
      </trkpt>
      <trkpt lat="42.31841" lon="2.17619">
        <ele>1139.3</ele>
        <time>2019-02-23T06:32:24Z</time>
      </trkpt>
      <trkpt lat="42.31865" lon="2.17622">
        <ele>1142.66</ele>
        <time>2019-02-23T06:32:36Z</time>
      </trkpt>
      <trkpt lat="42.31878" lon="2.1762">
        <ele>1145.07</ele>
        <time>2019-02-23T06:32:44Z</time>
      </trkpt>
      <trkpt lat="42.3191" lon="2.17608">
        <ele>1148.43</ele>
        <time>2019-02-23T06:33:01Z</time>
      </trkpt>
      <trkpt lat="42.31941" lon="2.17601">
        <ele>1151.32</ele>
        <time>2019-02-23T06:33:17Z</time>
      </trkpt>
      <trkpt lat="42.31957" lon="2.17601">
        <ele>1154.68</ele>
        <time>2019-02-23T06:33:27Z</time>
      </trkpt>
      <trkpt lat="42.31961" lon="2.176">
        <ele>1155.16</ele>
        <time>2019-02-23T06:33:29Z</time>
      </trkpt>
      <trkpt lat="42.31979" lon="2.17595">
        <ele>1158.53</ele>
        <time>2019-02-23T06:33:40Z</time>
      </trkpt>
      <trkpt lat="42.31998" lon="2.17596">
        <ele>1161.89</ele>
        <time>2019-02-23T06:33:51Z</time>
      </trkpt>
      <trkpt lat="42.32013" lon="2.176">
        <ele>1164.77</ele>
        <time>2019-02-23T06:34:00Z</time>
      </trkpt>
      <trkpt lat="42.32032" lon="2.17604">
        <ele>1168.62</ele>
        <time>2019-02-23T06:34:12Z</time>
      </trkpt>
      <trkpt lat="42.32034" lon="2.17605">
        <ele>1169.1</ele>
        <time>2019-02-23T06:34:13Z</time>
      </trkpt>
      <trkpt lat="42.32046" lon="2.17603">
        <ele>1171.02</ele>
        <time>2019-02-23T06:34:20Z</time>
      </trkpt>
      <trkpt lat="42.32064" lon="2.17594">
        <ele>1174.39</ele>
        <time>2019-02-23T06:34:32Z</time>
      </trkpt>
      <trkpt lat="42.32083" lon="2.17589">
        <ele>1176.31</ele>
        <time>2019-02-23T06:34:41Z</time>
      </trkpt>
      <trkpt lat="42.32101" lon="2.17577">
        <ele>1179.67</ele>
        <time>2019-02-23T06:34:53Z</time>
      </trkpt>
      <trkpt lat="42.32113" lon="2.17581">
        <ele>1182.56</ele>
        <time>2019-02-23T06:35:03Z</time>
      </trkpt>
      <trkpt lat="42.32122" lon="2.17587">
        <ele>1184.48</ele>
        <time>2019-02-23T06:35:10Z</time>
      </trkpt>
      <trkpt lat="42.32137" lon="2.17593">
        <ele>1188.33</ele>
        <time>2019-02-23T06:35:20Z</time>
      </trkpt>
      <trkpt lat="42.32144" lon="2.17592">
        <ele>1189.77</ele>
        <time>2019-02-23T06:35:26Z</time>
      </trkpt>
      <trkpt lat="42.32179" lon="2.17579">
        <ele>1191.69</ele>
        <time>2019-02-23T06:35:42Z</time>
      </trkpt>
      <trkpt lat="42.32208" lon="2.1757">
        <ele>1194.58</ele>
        <time>2019-02-23T06:35:56Z</time>
      </trkpt>
      <trkpt lat="42.32223" lon="2.17565">
        <ele>1197.94</ele>
        <time>2019-02-23T06:36:06Z</time>
      </trkpt>
      <trkpt lat="42.32244" lon="2.17565">
        <ele>1201.3</ele>
        <time>2019-02-23T06:36:17Z</time>
      </trkpt>
      <trkpt lat="42.32263" lon="2.17571">
        <ele>1204.19</ele>
        <time>2019-02-23T06:36:29Z</time>
      </trkpt>
      <trkpt lat="42.32282" lon="2.17578">
        <ele>1207.55</ele>
        <time>2019-02-23T06:36:39Z</time>
      </trkpt>
      <trkpt lat="42.3232" lon="2.17571">
        <ele>1206.11</ele>
        <time>2019-02-23T06:36:54Z</time>
      </trkpt>
      <trkpt lat="42.32355" lon="2.17579">
        <ele>1208.03</ele>
        <time>2019-02-23T06:37:08Z</time>
      </trkpt>
      <trkpt lat="42.32384" lon="2.17594">
        <ele>1210.92</ele>
        <time>2019-02-23T06:37:23Z</time>
      </trkpt>
      <trkpt lat="42.32404" lon="2.17604">
        <ele>1214.28</ele>
        <time>2019-02-23T06:37:34Z</time>
      </trkpt>
      <trkpt lat="42.32421" lon="2.17616">
        <ele>1217.17</ele>
        <time>2019-02-23T06:37:46Z</time>
      </trkpt>
      <trkpt lat="42.32437" lon="2.17624">
        <ele>1220.53</ele>
        <time>2019-02-23T06:37:57Z</time>
      </trkpt>
      <trkpt lat="42.32463" lon="2.1763">
        <ele>1222.93</ele>
        <time>2019-02-23T06:38:12Z</time>
      </trkpt>
      <trkpt lat="42.32502" lon="2.17634">
        <ele>1225.34</ele>
        <time>2019-02-23T06:38:28Z</time>
      </trkpt>
      <trkpt lat="42.3253" lon="2.17652">
        <ele>1229.18</ele>
        <time>2019-02-23T06:38:43Z</time>
      </trkpt>
      <trkpt lat="42.32536" lon="2.17659">
        <ele>1231.11</ele>
        <time>2019-02-23T06:38:48Z</time>
      </trkpt>
      <trkpt lat="42.32563" lon="2.17655">
        <ele>1233.03</ele>
        <time>2019-02-23T06:39:03Z</time>
      </trkpt>
      <trkpt lat="42.32579" lon="2.17654">
        <ele>1235.91</ele>
        <time>2019-02-23T06:39:14Z</time>
      </trkpt>
      <trkpt lat="42.32598" lon="2.17656">
        <ele>1239.28</ele>
        <time>2019-02-23T06:39:26Z</time>
      </trkpt>
      <trkpt lat="42.32629" lon="2.1765">
        <ele>1241.68</ele>
        <time>2019-02-23T06:39:44Z</time>
      </trkpt>
      <trkpt lat="42.32665" lon="2.17633">
        <ele>1242.16</ele>
        <time>2019-02-23T06:40:00Z</time>
      </trkpt>
      <trkpt lat="42.32695" lon="2.17624">
        <ele>1245.04</ele>
        <time>2019-02-23T06:40:14Z</time>
      </trkpt>
      <trkpt lat="42.32722" lon="2.17621">
        <ele>1248.41</ele>
        <time>2019-02-23T06:40:28Z</time>
      </trkpt>
      <trkpt lat="42.32732" lon="2.17619">
        <ele>1249.37</ele>
        <time>2019-02-23T06:40:32Z</time>
      </trkpt>
      <trkpt lat="42.32772" lon="2.17627">
        <ele>1252.25</ele>
        <time>2019-02-23T06:40:49Z</time>
      </trkpt>
      <trkpt lat="42.32808" lon="2.17634">
        <ele>1253.7</ele>
        <time>2019-02-23T06:41:04Z</time>
      </trkpt>
      <trkpt lat="42.32843" lon="2.17635">
        <ele>1256.58</ele>
        <time>2019-02-23T06:41:19Z</time>
      </trkpt>
      <trkpt lat="42.32863" lon="2.17636">
        <ele>1259.94</ele>
        <time>2019-02-23T06:41:30Z</time>
      </trkpt>
      <trkpt lat="42.32875" lon="2.17641">
        <ele>1262.83</ele>
        <time>2019-02-23T06:41:39Z</time>
      </trkpt>
      <trkpt lat="42.32885" lon="2.17647">
        <ele>1264.75</ele>
        <time>2019-02-23T06:41:45Z</time>
      </trkpt>
      <trkpt lat="42.32896" lon="2.17653">
        <ele>1267.64</ele>
        <time>2019-02-23T06:41:53Z</time>
      </trkpt>
      <trkpt lat="42.32909" lon="2.17653">
        <ele>1271</ele>
        <time>2019-02-23T06:42:03Z</time>
      </trkpt>
      <trkpt lat="42.3293" lon="2.17657">
        <ele>1273.88</ele>
        <time>2019-02-23T06:42:15Z</time>
      </trkpt>
      <trkpt lat="42.32938" lon="2.17658">
        <ele>1275.81</ele>
        <time>2019-02-23T06:42:22Z</time>
      </trkpt>
      <trkpt lat="42.32939" lon="2.17656">
        <ele>1276.29</ele>
        <time>2019-02-23T06:42:34Z</time>
      </trkpt>
      <trkpt lat="42.32942" lon="2.17655">
        <ele>1277.25</ele>
        <time>2019-02-23T06:42:36Z</time>
      </trkpt>
      <trkpt lat="42.32947" lon="2.17654">
        <ele>1277.73</ele>
        <time>2019-02-23T06:42:39Z</time>
      </trkpt>
      <trkpt lat="42.32975" lon="2.17654">
        <ele>1280.61</ele>
        <time>2019-02-23T06:42:52Z</time>
      </trkpt>
      <trkpt lat="42.32998" lon="2.17664">
        <ele>1283.98</ele>
        <time>2019-02-23T06:43:01Z</time>
      </trkpt>
      <trkpt lat="42.33021" lon="2.17672">
        <ele>1287.82</ele>
        <time>2019-02-23T06:43:12Z</time>
      </trkpt>
      <trkpt lat="42.33039" lon="2.17683">
        <ele>1291.19</ele>
        <time>2019-02-23T06:43:22Z</time>
      </trkpt>
      <trkpt lat="42.33062" lon="2.17704">
        <ele>1294.55</ele>
        <time>2019-02-23T06:43:34Z</time>
      </trkpt>
      <trkpt lat="42.33077" lon="2.17713">
        <ele>1297.92</ele>
        <time>2019-02-23T06:43:42Z</time>
      </trkpt>
      <trkpt lat="42.33093" lon="2.17735">
        <ele>1299.36</ele>
        <time>2019-02-23T06:43:56Z</time>
      </trkpt>
      <trkpt lat="42.33109" lon="2.17756">
        <ele>1301.76</ele>
        <time>2019-02-23T06:44:11Z</time>
      </trkpt>
      <trkpt lat="42.33109" lon="2.17757">
        <ele>1301.76</ele>
        <time>2019-02-23T06:44:12Z</time>
      </trkpt>
      <trkpt lat="42.3311" lon="2.17764">
        <ele>1302.72</ele>
        <time>2019-02-23T06:44:16Z</time>
      </trkpt>
      <trkpt lat="42.33116" lon="2.17773">
        <ele>1304.17</ele>
        <time>2019-02-23T06:44:24Z</time>
      </trkpt>
      <trkpt lat="42.33119" lon="2.17773">
        <ele>1303.69</ele>
        <time>2019-02-23T06:44:27Z</time>
      </trkpt>
      <trkpt lat="42.33126" lon="2.17769">
        <ele>1304.17</ele>
        <time>2019-02-23T06:44:48Z</time>
      </trkpt>
      <trkpt lat="42.33129" lon="2.17794">
        <ele>1307.05</ele>
        <time>2019-02-23T06:45:08Z</time>
      </trkpt>
      <trkpt lat="42.33133" lon="2.17805">
        <ele>1308.97</ele>
        <time>2019-02-23T06:45:17Z</time>
      </trkpt>
      <trkpt lat="42.33135" lon="2.17822">
        <ele>1309.93</ele>
        <time>2019-02-23T06:45:28Z</time>
      </trkpt>
      <trkpt lat="42.33137" lon="2.17824">
        <ele>1310.9</ele>
        <time>2019-02-23T06:45:31Z</time>
      </trkpt>
      <trkpt lat="42.33141" lon="2.1783">
        <ele>1311.38</ele>
        <time>2019-02-23T06:45:37Z</time>
      </trkpt>
      <trkpt lat="42.33142" lon="2.17832">
        <ele>1311.86</ele>
        <time>2019-02-23T06:45:39Z</time>
      </trkpt>
      <trkpt lat="42.33147" lon="2.1784">
        <ele>1312.34</ele>
        <time>2019-02-23T06:45:59Z</time>
      </trkpt>
      <trkpt lat="42.33147" lon="2.17842">
        <ele>1312.82</ele>
        <time>2019-02-23T06:46:03Z</time>
      </trkpt>
      <trkpt lat="42.33148" lon="2.17845">
        <ele>1313.3</ele>
        <time>2019-02-23T06:46:05Z</time>
      </trkpt>
      <trkpt lat="42.33152" lon="2.17864">
        <ele>1315.7</ele>
        <time>2019-02-23T06:46:22Z</time>
      </trkpt>
      <trkpt lat="42.3316" lon="2.17876">
        <ele>1316.66</ele>
        <time>2019-02-23T06:46:35Z</time>
      </trkpt>
      <trkpt lat="42.33166" lon="2.17877">
        <ele>1316.66</ele>
        <time>2019-02-23T06:46:42Z</time>
      </trkpt>
      <trkpt lat="42.33179" lon="2.17884">
        <ele>1317.14</ele>
        <time>2019-02-23T06:47:01Z</time>
      </trkpt>
      <trkpt lat="42.33181" lon="2.17887">
        <ele>1317.62</ele>
        <time>2019-02-23T06:47:22Z</time>
      </trkpt>
      <trkpt lat="42.33184" lon="2.1789">
        <ele>1317.62</ele>
        <time>2019-02-23T06:47:48Z</time>
      </trkpt>
      <trkpt lat="42.33184" lon="2.1789">
        <ele>1317.62</ele>
        <time>2019-02-23T06:48:13Z</time>
      </trkpt>
      <trkpt lat="42.33184" lon="2.1789">
        <ele>1317.14</ele>
        <time>2019-02-23T06:48:22Z</time>
      </trkpt>
      <trkpt lat="42.33185" lon="2.17892">
        <ele>1317.14</ele>
        <time>2019-02-23T06:48:24Z</time>
      </trkpt>
      <trkpt lat="42.33189" lon="2.17897">
        <ele>1317.62</ele>
        <time>2019-02-23T06:48:29Z</time>
      </trkpt>
      <trkpt lat="42.33193" lon="2.17902">
        <ele>1318.1</ele>
        <time>2019-02-23T06:48:34Z</time>
      </trkpt>
      <trkpt lat="42.33198" lon="2.17922">
        <ele>1319.55</ele>
        <time>2019-02-23T06:48:44Z</time>
      </trkpt>
      <trkpt lat="42.33198" lon="2.17926">
        <ele>1320.51</ele>
        <time>2019-02-23T06:48:48Z</time>
      </trkpt>
      <trkpt lat="42.33198" lon="2.17935">
        <ele>1321.95</ele>
        <time>2019-02-23T06:48:56Z</time>
      </trkpt>
      <trkpt lat="42.33201" lon="2.17954">
        <ele>1323.39</ele>
        <time>2019-02-23T06:49:06Z</time>
      </trkpt>
      <trkpt lat="42.33201" lon="2.17959">
        <ele>1324.35</ele>
        <time>2019-02-23T06:49:09Z</time>
      </trkpt>
      <trkpt lat="42.33201" lon="2.17963">
        <ele>1324.83</ele>
        <time>2019-02-23T06:49:14Z</time>
      </trkpt>
      <trkpt lat="42.33205" lon="2.17988">
        <ele>1325.8</ele>
        <time>2019-02-23T06:49:23Z</time>
      </trkpt>
      <trkpt lat="42.3321" lon="2.18032">
        <ele>1327.24</ele>
        <time>2019-02-23T06:49:37Z</time>
      </trkpt>
      <trkpt lat="42.33219" lon="2.18059">
        <ele>1330.12</ele>
        <time>2019-02-23T06:49:49Z</time>
      </trkpt>
      <trkpt lat="42.33225" lon="2.18071">
        <ele>1331.56</ele>
        <time>2019-02-23T06:49:54Z</time>
      </trkpt>
      <trkpt lat="42.33241" lon="2.18108">
        <ele>1334.93</ele>
        <time>2019-02-23T06:50:09Z</time>
      </trkpt>
      <trkpt lat="42.33252" lon="2.18135">
        <ele>1337.81</ele>
        <time>2019-02-23T06:50:19Z</time>
      </trkpt>
      <trkpt lat="42.33261" lon="2.18147">
        <ele>1339.25</ele>
        <time>2019-02-23T06:50:25Z</time>
      </trkpt>
      <trkpt lat="42.33262" lon="2.18154">
        <ele>1340.22</ele>
        <time>2019-02-23T06:50:28Z</time>
      </trkpt>
      <trkpt lat="42.33267" lon="2.18181">
        <ele>1342.62</ele>
        <time>2019-02-23T06:50:38Z</time>
      </trkpt>
      <trkpt lat="42.3327" lon="2.18191">
        <ele>1344.06</ele>
        <time>2019-02-23T06:50:43Z</time>
      </trkpt>
      <trkpt lat="42.33274" lon="2.18214">
        <ele>1345.98</ele>
        <time>2019-02-23T06:50:51Z</time>
      </trkpt>
      <trkpt lat="42.33287" lon="2.18235">
        <ele>1349.83</ele>
        <time>2019-02-23T06:51:03Z</time>
      </trkpt>
      <trkpt lat="42.3329" lon="2.1824">
        <ele>1350.79</ele>
        <time>2019-02-23T06:51:06Z</time>
      </trkpt>
      <trkpt lat="42.33297" lon="2.18255">
        <ele>1353.19</ele>
        <time>2019-02-23T06:51:14Z</time>
      </trkpt>
      <trkpt lat="42.33297" lon="2.18265">
        <ele>1354.15</ele>
        <time>2019-02-23T06:51:19Z</time>
      </trkpt>
      <trkpt lat="42.33302" lon="2.18279">
        <ele>1356.08</ele>
        <time>2019-02-23T06:51:27Z</time>
      </trkpt>
      <trkpt lat="42.33311" lon="2.18303">
        <ele>1359.92</ele>
        <time>2019-02-23T06:51:41Z</time>
      </trkpt>
      <trkpt lat="42.33311" lon="2.18303">
        <ele>1360.88</ele>
        <time>2019-02-23T06:51:42Z</time>
      </trkpt>
      <trkpt lat="42.33315" lon="2.18323">
        <ele>1362.81</ele>
        <time>2019-02-23T06:51:51Z</time>
      </trkpt>
      <trkpt lat="42.33325" lon="2.18358">
        <ele>1366.17</ele>
        <time>2019-02-23T06:52:05Z</time>
      </trkpt>
      <trkpt lat="42.33329" lon="2.18374">
        <ele>1368.09</ele>
        <time>2019-02-23T06:52:10Z</time>
      </trkpt>
      <trkpt lat="42.33334" lon="2.18389">
        <ele>1370.98</ele>
        <time>2019-02-23T06:52:17Z</time>
      </trkpt>
      <trkpt lat="42.33346" lon="2.18413">
        <ele>1371.94</ele>
        <time>2019-02-23T06:52:29Z</time>
      </trkpt>
      <trkpt lat="42.33347" lon="2.18425">
        <ele>1372.42</ele>
        <time>2019-02-23T06:52:33Z</time>
      </trkpt>
      <trkpt lat="42.33337" lon="2.1848">
        <ele>1374.82</ele>
        <time>2019-02-23T06:52:51Z</time>
      </trkpt>
      <trkpt lat="42.3333" lon="2.18531">
        <ele>1374.34</ele>
        <time>2019-02-23T06:53:06Z</time>
      </trkpt>
      <trkpt lat="42.33316" lon="2.18564">
        <ele>1377.23</ele>
        <time>2019-02-23T06:53:18Z</time>
      </trkpt>
      <trkpt lat="42.33319" lon="2.18569">
        <ele>1377.71</ele>
        <time>2019-02-23T06:53:20Z</time>
      </trkpt>
      <trkpt lat="42.33326" lon="2.18579">
        <ele>1378.19</ele>
        <time>2019-02-23T06:53:24Z</time>
      </trkpt>
      <trkpt lat="42.33329" lon="2.18582">
        <ele>1380.11</ele>
        <time>2019-02-23T06:53:27Z</time>
      </trkpt>
      <trkpt lat="42.33337" lon="2.1859">
        <ele>1382.99</ele>
        <time>2019-02-23T06:53:33Z</time>
      </trkpt>
      <trkpt lat="42.33351" lon="2.18608">
        <ele>1386.36</ele>
        <time>2019-02-23T06:53:43Z</time>
      </trkpt>
      <trkpt lat="42.33353" lon="2.18609">
        <ele>1386.36</ele>
        <time>2019-02-23T06:53:44Z</time>
      </trkpt>
      <trkpt lat="42.33373" lon="2.18627">
        <ele>1389.72</ele>
        <time>2019-02-23T06:53:55Z</time>
      </trkpt>
      <trkpt lat="42.33386" lon="2.18639">
        <ele>1392.61</ele>
        <time>2019-02-23T06:54:04Z</time>
      </trkpt>
      <trkpt lat="42.33392" lon="2.18645">
        <ele>1394.05</ele>
        <time>2019-02-23T06:54:08Z</time>
      </trkpt>
      <trkpt lat="42.33401" lon="2.18655">
        <ele>1396.45</ele>
        <time>2019-02-23T06:54:16Z</time>
      </trkpt>
      <trkpt lat="42.33406" lon="2.18673">
        <ele>1400.3</ele>
        <time>2019-02-23T06:54:26Z</time>
      </trkpt>
      <trkpt lat="42.33409" lon="2.18678">
        <ele>1401.74</ele>
        <time>2019-02-23T06:54:29Z</time>
      </trkpt>
      <trkpt lat="42.33421" lon="2.18693">
        <ele>1404.62</ele>
        <time>2019-02-23T06:54:40Z</time>
      </trkpt>
      <trkpt lat="42.33424" lon="2.18699">
        <ele>1405.58</ele>
        <time>2019-02-23T06:54:44Z</time>
      </trkpt>
      <trkpt lat="42.33426" lon="2.18711">
        <ele>1408.95</ele>
        <time>2019-02-23T06:54:52Z</time>
      </trkpt>
      <trkpt lat="42.33431" lon="2.18722">
        <ele>1411.35</ele>
        <time>2019-02-23T06:54:59Z</time>
      </trkpt>
      <trkpt lat="42.33432" lon="2.18724">
        <ele>1412.79</ele>
        <time>2019-02-23T06:55:02Z</time>
      </trkpt>
      <trkpt lat="42.33434" lon="2.18727">
        <ele>1413.76</ele>
        <time>2019-02-23T06:55:04Z</time>
      </trkpt>
      <trkpt lat="42.33436" lon="2.18729">
        <ele>1414.72</ele>
        <time>2019-02-23T06:55:06Z</time>
      </trkpt>
      <trkpt lat="42.33441" lon="2.18741">
        <ele>1418.08</ele>
        <time>2019-02-23T06:55:16Z</time>
      </trkpt>
      <trkpt lat="42.33441" lon="2.18741">
        <ele>1418.08</ele>
        <time>2019-02-23T06:55:17Z</time>
      </trkpt>
      <trkpt lat="42.33441" lon="2.18741">
        <ele>1419.52</ele>
        <time>2019-02-23T06:55:19Z</time>
      </trkpt>
      <trkpt lat="42.3344" lon="2.18753">
        <ele>1420.97</ele>
        <time>2019-02-23T06:55:25Z</time>
      </trkpt>
      <trkpt lat="42.33438" lon="2.18773">
        <ele>1424.81</ele>
        <time>2019-02-23T06:55:36Z</time>
      </trkpt>
      <trkpt lat="42.33438" lon="2.18773">
        <ele>1424.81</ele>
        <time>2019-02-23T06:55:37Z</time>
      </trkpt>
      <trkpt lat="42.33439" lon="2.18778">
        <ele>1425.77</ele>
        <time>2019-02-23T06:55:40Z</time>
      </trkpt>
      <trkpt lat="42.33444" lon="2.18798">
        <ele>1428.66</ele>
        <time>2019-02-23T06:55:49Z</time>
      </trkpt>
      <trkpt lat="42.33446" lon="2.18809">
        <ele>1430.58</ele>
        <time>2019-02-23T06:55:55Z</time>
      </trkpt>
      <trkpt lat="42.33445" lon="2.18823">
        <ele>1432.98</ele>
        <time>2019-02-23T06:56:02Z</time>
      </trkpt>
      <trkpt lat="42.33444" lon="2.18834">
        <ele>1436.35</ele>
        <time>2019-02-23T06:56:10Z</time>
      </trkpt>
      <trkpt lat="42.33444" lon="2.18847">
        <ele>1438.75</ele>
        <time>2019-02-23T06:56:18Z</time>
      </trkpt>
      <trkpt lat="42.33442" lon="2.18859">
        <ele>1441.63</ele>
        <time>2019-02-23T06:56:25Z</time>
      </trkpt>
      <trkpt lat="42.33442" lon="2.18869">
        <ele>1443.08</ele>
        <time>2019-02-23T06:56:30Z</time>
      </trkpt>
      <trkpt lat="42.33445" lon="2.18877">
        <ele>1446.44</ele>
        <time>2019-02-23T06:56:38Z</time>
      </trkpt>
      <trkpt lat="42.33445" lon="2.18877">
        <ele>1446.44</ele>
        <time>2019-02-23T06:56:39Z</time>
      </trkpt>
      <trkpt lat="42.33445" lon="2.18882">
        <ele>1446.92</ele>
        <time>2019-02-23T06:56:42Z</time>
      </trkpt>
      <trkpt lat="42.33445" lon="2.18897">
        <ele>1450.77</ele>
        <time>2019-02-23T06:56:49Z</time>
      </trkpt>
      <trkpt lat="42.33445" lon="2.18898">
        <ele>1451.25</ele>
        <time>2019-02-23T06:56:50Z</time>
      </trkpt>
      <trkpt lat="42.33443" lon="2.18905">
        <ele>1452.21</ele>
        <time>2019-02-23T06:56:54Z</time>
      </trkpt>
      <trkpt lat="42.33444" lon="2.18919">
        <ele>1455.57</ele>
        <time>2019-02-23T06:57:02Z</time>
      </trkpt>
      <trkpt lat="42.33444" lon="2.18931">
        <ele>1457.98</ele>
        <time>2019-02-23T06:57:10Z</time>
      </trkpt>
      <trkpt lat="42.33449" lon="2.18945">
        <ele>1460.38</ele>
        <time>2019-02-23T06:57:17Z</time>
      </trkpt>
      <trkpt lat="42.3345" lon="2.18954">
        <ele>1462.78</ele>
        <time>2019-02-23T06:57:23Z</time>
      </trkpt>
      <trkpt lat="42.33451" lon="2.18957">
        <ele>1463.74</ele>
        <time>2019-02-23T06:57:26Z</time>
      </trkpt>
      <trkpt lat="42.33451" lon="2.18961">
        <ele>1464.23</ele>
        <time>2019-02-23T06:57:28Z</time>
      </trkpt>
      <trkpt lat="42.33453" lon="2.18972">
        <ele>1467.59</ele>
        <time>2019-02-23T06:57:35Z</time>
      </trkpt>
      <trkpt lat="42.33454" lon="2.18977">
        <ele>1468.55</ele>
        <time>2019-02-23T06:57:38Z</time>
      </trkpt>
      <trkpt lat="42.33456" lon="2.18979">
        <ele>1470.47</ele>
        <time>2019-02-23T06:57:42Z</time>
      </trkpt>
      <trkpt lat="42.33456" lon="2.18984">
        <ele>1471.44</ele>
        <time>2019-02-23T06:57:45Z</time>
      </trkpt>
      <trkpt lat="42.33462" lon="2.19">
        <ele>1474.32</ele>
        <time>2019-02-23T06:57:54Z</time>
      </trkpt>
      <trkpt lat="42.33468" lon="2.19017">
        <ele>1478.16</ele>
        <time>2019-02-23T06:58:04Z</time>
      </trkpt>
      <trkpt lat="42.33475" lon="2.19034">
        <ele>1481.05</ele>
        <time>2019-02-23T06:58:15Z</time>
      </trkpt>
      <trkpt lat="42.33479" lon="2.19041">
        <ele>1482.49</ele>
        <time>2019-02-23T06:58:20Z</time>
      </trkpt>
      <trkpt lat="42.3348" lon="2.19042">
        <ele>1482.97</ele>
        <time>2019-02-23T06:58:21Z</time>
      </trkpt>
      <trkpt lat="42.33487" lon="2.19052">
        <ele>1485.37</ele>
        <time>2019-02-23T06:58:29Z</time>
      </trkpt>
      <trkpt lat="42.3349" lon="2.19062">
        <ele>1487.3</ele>
        <time>2019-02-23T06:58:36Z</time>
      </trkpt>
      <trkpt lat="42.33495" lon="2.19067">
        <ele>1488.74</ele>
        <time>2019-02-23T06:58:39Z</time>
      </trkpt>
      <trkpt lat="42.33503" lon="2.19084">
        <ele>1491.62</ele>
        <time>2019-02-23T06:58:49Z</time>
      </trkpt>
      <trkpt lat="42.33512" lon="2.19101">
        <ele>1493.06</ele>
        <time>2019-02-23T06:58:58Z</time>
      </trkpt>
      <trkpt lat="42.33531" lon="2.1913">
        <ele>1496.91</ele>
        <time>2019-02-23T06:59:14Z</time>
      </trkpt>
      <trkpt lat="42.33534" lon="2.19136">
        <ele>1497.87</ele>
        <time>2019-02-23T06:59:17Z</time>
      </trkpt>
      <trkpt lat="42.33538" lon="2.19144">
        <ele>1498.83</ele>
        <time>2019-02-23T06:59:21Z</time>
      </trkpt>
      <trkpt lat="42.33546" lon="2.19164">
        <ele>1502.2</ele>
        <time>2019-02-23T06:59:32Z</time>
      </trkpt>
      <trkpt lat="42.33553" lon="2.19179">
        <ele>1505.08</ele>
        <time>2019-02-23T06:59:41Z</time>
      </trkpt>
      <trkpt lat="42.33553" lon="2.19181">
        <ele>1505.08</ele>
        <time>2019-02-23T06:59:42Z</time>
      </trkpt>
      <trkpt lat="42.33555" lon="2.19188">
        <ele>1507</ele>
        <time>2019-02-23T06:59:46Z</time>
      </trkpt>
      <trkpt lat="42.33557" lon="2.19191">
        <ele>1507.48</ele>
        <time>2019-02-23T06:59:48Z</time>
      </trkpt>
      <trkpt lat="42.33562" lon="2.19201">
        <ele>1509.41</ele>
        <time>2019-02-23T06:59:54Z</time>
      </trkpt>
      <trkpt lat="42.33565" lon="2.19208">
        <ele>1510.85</ele>
        <time>2019-02-23T06:59:58Z</time>
      </trkpt>
      <trkpt lat="42.33567" lon="2.1921">
        <ele>1510.85</ele>
        <time>2019-02-23T07:00:09Z</time>
      </trkpt>
      <trkpt lat="42.33571" lon="2.19213">
        <ele>1511.33</ele>
        <time>2019-02-23T07:00:12Z</time>
      </trkpt>
      <trkpt lat="42.33576" lon="2.19219">
        <ele>1511.81</ele>
        <time>2019-02-23T07:00:17Z</time>
      </trkpt>
      <trkpt lat="42.3358" lon="2.19222">
        <ele>1511.81</ele>
        <time>2019-02-23T07:00:21Z</time>
      </trkpt>
      <trkpt lat="42.33595" lon="2.19225">
        <ele>1512.77</ele>
        <time>2019-02-23T07:00:39Z</time>
      </trkpt>
      <trkpt lat="42.33595" lon="2.19225">
        <ele>1512.29</ele>
        <time>2019-02-23T07:00:57Z</time>
      </trkpt>
      <trkpt lat="42.33595" lon="2.19225">
        <ele>1512.29</ele>
        <time>2019-02-23T07:01:21Z</time>
      </trkpt>
      <trkpt lat="42.33595" lon="2.19225">
        <ele>1513.25</ele>
        <time>2019-02-23T07:01:30Z</time>
      </trkpt>
      <trkpt lat="42.33607" lon="2.1924">
        <ele>1512.77</ele>
        <time>2019-02-23T07:01:45Z</time>
      </trkpt>
      <trkpt lat="42.33619" lon="2.19241">
        <ele>1513.73</ele>
        <time>2019-02-23T07:01:59Z</time>
      </trkpt>
      <trkpt lat="42.33627" lon="2.19245">
        <ele>1513.25</ele>
        <time>2019-02-23T07:02:13Z</time>
      </trkpt>
      <trkpt lat="42.33637" lon="2.19257">
        <ele>1514.21</ele>
        <time>2019-02-23T07:02:27Z</time>
      </trkpt>
      <trkpt lat="42.33636" lon="2.19261">
        <ele>1513.73</ele>
        <time>2019-02-23T07:02:31Z</time>
      </trkpt>
      <trkpt lat="42.33634" lon="2.19269">
        <ele>1513.25</ele>
        <time>2019-02-23T07:02:38Z</time>
      </trkpt>
      <trkpt lat="42.33633" lon="2.19275">
        <ele>1513.25</ele>
        <time>2019-02-23T07:02:43Z</time>
      </trkpt>
      <trkpt lat="42.33633" lon="2.19276">
        <ele>1513.25</ele>
        <time>2019-02-23T07:03:00Z</time>
      </trkpt>
      <trkpt lat="42.33633" lon="2.19281">
        <ele>1512.77</ele>
        <time>2019-02-23T07:03:07Z</time>
      </trkpt>
      <trkpt lat="42.33635" lon="2.19286">
        <ele>1511.81</ele>
        <time>2019-02-23T07:03:11Z</time>
      </trkpt>
      <trkpt lat="42.33634" lon="2.19304">
        <ele>1509.89</ele>
        <time>2019-02-23T07:03:20Z</time>
      </trkpt>
      <trkpt lat="42.33634" lon="2.1931">
        <ele>1509.89</ele>
        <time>2019-02-23T07:03:23Z</time>
      </trkpt>
      <trkpt lat="42.33636" lon="2.19313">
        <ele>1508.93</ele>
        <time>2019-02-23T07:03:26Z</time>
      </trkpt>
      <trkpt lat="42.33638" lon="2.19317">
        <ele>1509.41</ele>
        <time>2019-02-23T07:03:32Z</time>
      </trkpt>
      <trkpt lat="42.33655" lon="2.19349">
        <ele>1506.52</ele>
        <time>2019-02-23T07:03:47Z</time>
      </trkpt>
      <trkpt lat="42.3366" lon="2.19356">
        <ele>1507.48</ele>
        <time>2019-02-23T07:04:05Z</time>
      </trkpt>
      <trkpt lat="42.33658" lon="2.1936">
        <ele>1507</ele>
        <time>2019-02-23T07:04:25Z</time>
      </trkpt>
      <trkpt lat="42.33659" lon="2.19357">
        <ele>1507.48</ele>
        <time>2019-02-23T07:04:40Z</time>
      </trkpt>
      <trkpt lat="42.33659" lon="2.19368">
        <ele>1506.52</ele>
        <time>2019-02-23T07:04:48Z</time>
      </trkpt>
      <trkpt lat="42.33662" lon="2.19375">
        <ele>1506.04</ele>
        <time>2019-02-23T07:04:52Z</time>
      </trkpt>
      <trkpt lat="42.33674" lon="2.19386">
        <ele>1507.48</ele>
        <time>2019-02-23T07:04:58Z</time>
      </trkpt>
      <trkpt lat="42.33701" lon="2.1942">
        <ele>1506.52</ele>
        <time>2019-02-23T07:05:12Z</time>
      </trkpt>
      <trkpt lat="42.33732" lon="2.19451">
        <ele>1505.56</ele>
        <time>2019-02-23T07:05:27Z</time>
      </trkpt>
      <trkpt lat="42.33736" lon="2.1945">
        <ele>1504.6</ele>
        <time>2019-02-23T07:05:29Z</time>
      </trkpt>
      <trkpt lat="42.33747" lon="2.19445">
        <ele>1501.24</ele>
        <time>2019-02-23T07:05:34Z</time>
      </trkpt>
      <trkpt lat="42.33763" lon="2.19438">
        <ele>1497.39</ele>
        <time>2019-02-23T07:05:40Z</time>
      </trkpt>
      <trkpt lat="42.33765" lon="2.19436">
        <ele>1497.39</ele>
        <time>2019-02-23T07:05:41Z</time>
      </trkpt>
      <trkpt lat="42.33772" lon="2.19427">
        <ele>1493.55</ele>
        <time>2019-02-23T07:05:45Z</time>
      </trkpt>
      <trkpt lat="42.33781" lon="2.19418">
        <ele>1491.14</ele>
        <time>2019-02-23T07:05:58Z</time>
      </trkpt>
      <trkpt lat="42.33783" lon="2.19417">
        <ele>1490.18</ele>
        <time>2019-02-23T07:06:02Z</time>
      </trkpt>
      <trkpt lat="42.33785" lon="2.19413">
        <ele>1488.26</ele>
        <time>2019-02-23T07:06:04Z</time>
      </trkpt>
      <trkpt lat="42.33786" lon="2.19411">
        <ele>1487.78</ele>
        <time>2019-02-23T07:06:06Z</time>
      </trkpt>
      <trkpt lat="42.3379" lon="2.19406">
        <ele>1483.93</ele>
        <time>2019-02-23T07:06:11Z</time>
      </trkpt>
      <trkpt lat="42.33793" lon="2.19399">
        <ele>1480.57</ele>
        <time>2019-02-23T07:06:15Z</time>
      </trkpt>
      <trkpt lat="42.33798" lon="2.19393">
        <ele>1477.68</ele>
        <time>2019-02-23T07:06:21Z</time>
      </trkpt>
      <trkpt lat="42.33802" lon="2.19387">
        <ele>1473.84</ele>
        <time>2019-02-23T07:06:25Z</time>
      </trkpt>
      <trkpt lat="42.33804" lon="2.1938">
        <ele>1470.47</ele>
        <time>2019-02-23T07:06:29Z</time>
      </trkpt>
      <trkpt lat="42.33807" lon="2.19373">
        <ele>1469.51</ele>
        <time>2019-02-23T07:06:31Z</time>
      </trkpt>
      <trkpt lat="42.3381" lon="2.19369">
        <ele>1468.07</ele>
        <time>2019-02-23T07:06:33Z</time>
      </trkpt>
      <trkpt lat="42.33814" lon="2.19362">
        <ele>1464.71</ele>
        <time>2019-02-23T07:06:37Z</time>
      </trkpt>
      <trkpt lat="42.33815" lon="2.19356">
        <ele>1461.34</ele>
        <time>2019-02-23T07:06:40Z</time>
      </trkpt>
      <trkpt lat="42.33818" lon="2.19353">
        <ele>1458.46</ele>
        <time>2019-02-23T07:06:44Z</time>
      </trkpt>
      <trkpt lat="42.33821" lon="2.19345">
        <ele>1454.61</ele>
        <time>2019-02-23T07:06:48Z</time>
      </trkpt>
      <trkpt lat="42.33826" lon="2.1934">
        <ele>1451.25</ele>
        <time>2019-02-23T07:06:52Z</time>
      </trkpt>
      <trkpt lat="42.33831" lon="2.19334">
        <ele>1447.88</ele>
        <time>2019-02-23T07:06:56Z</time>
      </trkpt>
      <trkpt lat="42.33834" lon="2.1933">
        <ele>1445.96</ele>
        <time>2019-02-23T07:06:59Z</time>
      </trkpt>
      <trkpt lat="42.33839" lon="2.19327">
        <ele>1443.08</ele>
        <time>2019-02-23T07:07:03Z</time>
      </trkpt>
      <trkpt lat="42.33844" lon="2.19324">
        <ele>1439.71</ele>
        <time>2019-02-23T07:07:08Z</time>
      </trkpt>
      <trkpt lat="42.33845" lon="2.19324">
        <ele>1436.83</ele>
        <time>2019-02-23T07:07:21Z</time>
      </trkpt>
      <trkpt lat="42.33846" lon="2.19323">
        <ele>1436.35</ele>
        <time>2019-02-23T07:07:22Z</time>
      </trkpt>
      <trkpt lat="42.3385" lon="2.19311">
        <ele>1432.5</ele>
        <time>2019-02-23T07:07:28Z</time>
      </trkpt>
      <trkpt lat="42.33851" lon="2.19305">
        <ele>1430.58</ele>
        <time>2019-02-23T07:07:47Z</time>
      </trkpt>
      <trkpt lat="42.33851" lon="2.19305">
        <ele>1428.66</ele>
        <time>2019-02-23T07:08:09Z</time>
      </trkpt>
      <trkpt lat="42.33852" lon="2.19305">
        <ele>1425.77</ele>
        <time>2019-02-23T07:08:13Z</time>
      </trkpt>
      <trkpt lat="42.33852" lon="2.19302">
        <ele>1424.81</ele>
        <time>2019-02-23T07:08:15Z</time>
      </trkpt>
      <trkpt lat="42.33852" lon="2.19299">
        <ele>1420.49</ele>
        <time>2019-02-23T07:08:19Z</time>
      </trkpt>
      <trkpt lat="42.33852" lon="2.19296">
        <ele>1417.12</ele>
        <time>2019-02-23T07:08:25Z</time>
      </trkpt>
      <trkpt lat="42.33852" lon="2.19296">
        <ele>1415.68</ele>
        <time>2019-02-23T07:08:27Z</time>
      </trkpt>
      <trkpt lat="42.3385" lon="2.19288">
        <ele>1410.39</ele>
        <time>2019-02-23T07:08:32Z</time>
      </trkpt>
      <trkpt lat="42.33849" lon="2.19287">
        <ele>1408.95</ele>
        <time>2019-02-23T07:08:37Z</time>
      </trkpt>
      <trkpt lat="42.33849" lon="2.19287">
        <ele>1408.95</ele>
        <time>2019-02-23T07:09:03Z</time>
      </trkpt>
      <trkpt lat="42.33848" lon="2.19287">
        <ele>1408.47</ele>
        <time>2019-02-23T07:09:37Z</time>
      </trkpt>
      <trkpt lat="42.33848" lon="2.19285">
        <ele>1407.99</ele>
        <time>2019-02-23T07:10:09Z</time>
      </trkpt>
      <trkpt lat="42.33848" lon="2.19285">
        <ele>1408.47</ele>
        <time>2019-02-23T07:10:10Z</time>
      </trkpt>
      <trkpt lat="42.33847" lon="2.19283">
        <ele>1405.58</ele>
        <time>2019-02-23T07:10:39Z</time>
      </trkpt>
      <trkpt lat="42.33846" lon="2.19278">
        <ele>1403.66</ele>
        <time>2019-02-23T07:11:00Z</time>
      </trkpt>
      <trkpt lat="42.33846" lon="2.19278">
        <ele>1404.14</ele>
        <time>2019-02-23T07:11:28Z</time>
      </trkpt>
      <trkpt lat="42.33846" lon="2.19278">
        <ele>1402.7</ele>
        <time>2019-02-23T07:11:43Z</time>
      </trkpt>
      <trkpt lat="42.33844" lon="2.19271">
        <ele>1399.82</ele>
        <time>2019-02-23T07:11:49Z</time>
      </trkpt>
      <trkpt lat="42.33844" lon="2.19271">
        <ele>1399.34</ele>
        <time>2019-02-23T07:11:50Z</time>
      </trkpt>
      <trkpt lat="42.3384" lon="2.19265">
        <ele>1398.37</ele>
        <time>2019-02-23T07:12:09Z</time>
      </trkpt>
      <trkpt lat="42.33837" lon="2.19248">
        <ele>1396.93</ele>
        <time>2019-02-23T07:12:23Z</time>
      </trkpt>
      <trkpt lat="42.33839" lon="2.19235">
        <ele>1393.57</ele>
        <time>2019-02-23T07:12:27Z</time>
      </trkpt>
      <trkpt lat="42.3384" lon="2.19232">
        <ele>1391.65</ele>
        <time>2019-02-23T07:12:30Z</time>
      </trkpt>
      <trkpt lat="42.33841" lon="2.1923">
        <ele>1391.17</ele>
        <time>2019-02-23T07:12:31Z</time>
      </trkpt>
      <trkpt lat="42.33843" lon="2.19224">
        <ele>1390.2</ele>
        <time>2019-02-23T07:12:33Z</time>
      </trkpt>
      <trkpt lat="42.33844" lon="2.19212">
        <ele>1385.88</ele>
        <time>2019-02-23T07:12:38Z</time>
      </trkpt>
      <trkpt lat="42.33844" lon="2.1921">
        <ele>1385.88</ele>
        <time>2019-02-23T07:12:39Z</time>
      </trkpt>
      <trkpt lat="42.33845" lon="2.19203">
        <ele>1384.44</ele>
        <time>2019-02-23T07:12:46Z</time>
      </trkpt>
      <trkpt lat="42.33849" lon="2.19195">
        <ele>1380.59</ele>
        <time>2019-02-23T07:12:57Z</time>
      </trkpt>
      <trkpt lat="42.33849" lon="2.19194">
        <ele>1380.59</ele>
        <time>2019-02-23T07:12:58Z</time>
      </trkpt>
      <trkpt lat="42.33863" lon="2.19171">
        <ele>1379.63</ele>
        <time>2019-02-23T07:13:14Z</time>
      </trkpt>
      <trkpt lat="42.33869" lon="2.19175">
        <ele>1378.67</ele>
        <time>2019-02-23T07:13:31Z</time>
      </trkpt>
      <trkpt lat="42.3387" lon="2.19175">
        <ele>1377.71</ele>
        <time>2019-02-23T07:13:32Z</time>
      </trkpt>
      <trkpt lat="42.33881" lon="2.19177">
        <ele>1376.26</ele>
        <time>2019-02-23T07:13:39Z</time>
      </trkpt>
      <trkpt lat="42.33888" lon="2.19182">
        <ele>1374.34</ele>
        <time>2019-02-23T07:13:48Z</time>
      </trkpt>
      <trkpt lat="42.33893" lon="2.19187">
        <ele>1373.38</ele>
        <time>2019-02-23T07:13:52Z</time>
      </trkpt>
      <trkpt lat="42.33895" lon="2.19193">
        <ele>1372.42</ele>
        <time>2019-02-23T07:13:57Z</time>
      </trkpt>
      <trkpt lat="42.33897" lon="2.19196">
        <ele>1370.98</ele>
        <time>2019-02-23T07:14:00Z</time>
      </trkpt>
      <trkpt lat="42.33898" lon="2.192">
        <ele>1370.5</ele>
        <time>2019-02-23T07:14:03Z</time>
      </trkpt>
      <trkpt lat="42.33908" lon="2.19215">
        <ele>1368.09</ele>
        <time>2019-02-23T07:14:13Z</time>
      </trkpt>
      <trkpt lat="42.33911" lon="2.19221">
        <ele>1366.17</ele>
        <time>2019-02-23T07:14:25Z</time>
      </trkpt>
      <trkpt lat="42.33914" lon="2.19226">
        <ele>1363.77</ele>
        <time>2019-02-23T07:14:29Z</time>
      </trkpt>
      <trkpt lat="42.33916" lon="2.19228">
        <ele>1363.77</ele>
        <time>2019-02-23T07:14:31Z</time>
      </trkpt>
      <trkpt lat="42.33919" lon="2.1923">
        <ele>1363.77</ele>
        <time>2019-02-23T07:14:33Z</time>
      </trkpt>
      <trkpt lat="42.33926" lon="2.19234">
        <ele>1365.21</ele>
        <time>2019-02-23T07:14:37Z</time>
      </trkpt>
      <trkpt lat="42.3394" lon="2.19237">
        <ele>1361.36</ele>
        <time>2019-02-23T07:14:45Z</time>
      </trkpt>
      <trkpt lat="42.33952" lon="2.19242">
        <ele>1358.48</ele>
        <time>2019-02-23T07:14:50Z</time>
      </trkpt>
      <trkpt lat="42.33973" lon="2.19257">
        <ele>1354.63</ele>
        <time>2019-02-23T07:14:59Z</time>
      </trkpt>
      <trkpt lat="42.33984" lon="2.19265">
        <ele>1351.75</ele>
        <time>2019-02-23T07:15:03Z</time>
      </trkpt>
      <trkpt lat="42.33992" lon="2.19269">
        <ele>1349.83</ele>
        <time>2019-02-23T07:15:06Z</time>
      </trkpt>
      <trkpt lat="42.34003" lon="2.19276">
        <ele>1346.46</ele>
        <time>2019-02-23T07:15:10Z</time>
      </trkpt>
      <trkpt lat="42.34021" lon="2.19287">
        <ele>1344.54</ele>
        <time>2019-02-23T07:15:26Z</time>
      </trkpt>
      <trkpt lat="42.34021" lon="2.19287">
        <ele>1345.02</ele>
        <time>2019-02-23T07:15:48Z</time>
      </trkpt>
      <trkpt lat="42.34022" lon="2.19288">
        <ele>1345.02</ele>
        <time>2019-02-23T07:15:50Z</time>
      </trkpt>
      <trkpt lat="42.34026" lon="2.19293">
        <ele>1344.54</ele>
        <time>2019-02-23T07:15:54Z</time>
      </trkpt>
      <trkpt lat="42.34041" lon="2.19302">
        <ele>1343.58</ele>
        <time>2019-02-23T07:16:08Z</time>
      </trkpt>
      <trkpt lat="42.34057" lon="2.19306">
        <ele>1340.22</ele>
        <time>2019-02-23T07:16:17Z</time>
      </trkpt>
      <trkpt lat="42.34058" lon="2.19306">
        <ele>1339.73</ele>
        <time>2019-02-23T07:16:18Z</time>
      </trkpt>
      <trkpt lat="42.34066" lon="2.19307">
        <ele>1337.81</ele>
        <time>2019-02-23T07:16:21Z</time>
      </trkpt>
      <trkpt lat="42.34077" lon="2.19309">
        <ele>1333.97</ele>
        <time>2019-02-23T07:16:26Z</time>
      </trkpt>
      <trkpt lat="42.34082" lon="2.1931">
        <ele>1333.01</ele>
        <time>2019-02-23T07:16:28Z</time>
      </trkpt>
      <trkpt lat="42.34099" lon="2.19315">
        <ele>1329.16</ele>
        <time>2019-02-23T07:16:34Z</time>
      </trkpt>
      <trkpt lat="42.34106" lon="2.19317">
        <ele>1328.68</ele>
        <time>2019-02-23T07:16:36Z</time>
      </trkpt>
      <trkpt lat="42.34131" lon="2.19329">
        <ele>1325.8</ele>
        <time>2019-02-23T07:16:45Z</time>
      </trkpt>
      <trkpt lat="42.34144" lon="2.19331">
        <ele>1323.39</ele>
        <time>2019-02-23T07:16:50Z</time>
      </trkpt>
      <trkpt lat="42.34166" lon="2.1934">
        <ele>1320.03</ele>
        <time>2019-02-23T07:16:57Z</time>
      </trkpt>
      <trkpt lat="42.34193" lon="2.19364">
        <ele>1318.1</ele>
        <time>2019-02-23T07:17:08Z</time>
      </trkpt>
      <trkpt lat="42.34205" lon="2.19392">
        <ele>1315.22</ele>
        <time>2019-02-23T07:17:19Z</time>
      </trkpt>
      <trkpt lat="42.34205" lon="2.19399">
        <ele>1313.78</ele>
        <time>2019-02-23T07:17:22Z</time>
      </trkpt>
      <trkpt lat="42.34206" lon="2.19404">
        <ele>1310.41</ele>
        <time>2019-02-23T07:17:26Z</time>
      </trkpt>
      <trkpt lat="42.34208" lon="2.19406">
        <ele>1310.41</ele>
        <time>2019-02-23T07:17:33Z</time>
      </trkpt>
      <trkpt lat="42.34207" lon="2.19412">
        <ele>1310.41</ele>
        <time>2019-02-23T07:17:58Z</time>
      </trkpt>
      <trkpt lat="42.34194" lon="2.19446">
        <ele>1309.45</ele>
        <time>2019-02-23T07:18:14Z</time>
      </trkpt>
      <trkpt lat="42.34193" lon="2.19451">
        <ele>1309.45</ele>
        <time>2019-02-23T07:18:18Z</time>
      </trkpt>
      <trkpt lat="42.34193" lon="2.19457">
        <ele>1307.05</ele>
        <time>2019-02-23T07:18:21Z</time>
      </trkpt>
      <trkpt lat="42.34195" lon="2.19466">
        <ele>1304.65</ele>
        <time>2019-02-23T07:18:27Z</time>
      </trkpt>
      <trkpt lat="42.34195" lon="2.19474">
        <ele>1303.69</ele>
        <time>2019-02-23T07:18:31Z</time>
      </trkpt>
      <trkpt lat="42.34197" lon="2.19488">
        <ele>1300.32</ele>
        <time>2019-02-23T07:18:46Z</time>
      </trkpt>
      <trkpt lat="42.34205" lon="2.19494">
        <ele>1296.96</ele>
        <time>2019-02-23T07:19:02Z</time>
      </trkpt>
      <trkpt lat="42.34205" lon="2.19495">
        <ele>1296.96</ele>
        <time>2019-02-23T07:19:04Z</time>
      </trkpt>
      <trkpt lat="42.34209" lon="2.19504">
        <ele>1294.55</ele>
        <time>2019-02-23T07:19:22Z</time>
      </trkpt>
      <trkpt lat="42.34222" lon="2.19507">
        <ele>1292.15</ele>
        <time>2019-02-23T07:19:39Z</time>
      </trkpt>
      <trkpt lat="42.34226" lon="2.19502">
        <ele>1290.71</ele>
        <time>2019-02-23T07:19:54Z</time>
      </trkpt>
      <trkpt lat="42.34226" lon="2.19502">
        <ele>1290.23</ele>
        <time>2019-02-23T07:19:59Z</time>
      </trkpt>
      <trkpt lat="42.34236" lon="2.1949">
        <ele>1288.78</ele>
        <time>2019-02-23T07:20:14Z</time>
      </trkpt>
      <trkpt lat="42.34238" lon="2.19481">
        <ele>1287.82</ele>
        <time>2019-02-23T07:20:19Z</time>
      </trkpt>
      <trkpt lat="42.3424" lon="2.19477">
        <ele>1286.38</ele>
        <time>2019-02-23T07:20:28Z</time>
      </trkpt>
      <trkpt lat="42.34246" lon="2.19471">
        <ele>1285.42</ele>
        <time>2019-02-23T07:20:43Z</time>
      </trkpt>
      <trkpt lat="42.34251" lon="2.19457">
        <ele>1283.02</ele>
        <time>2019-02-23T07:20:56Z</time>
      </trkpt>
      <trkpt lat="42.34252" lon="2.19455">
        <ele>1283.02</ele>
        <time>2019-02-23T07:20:58Z</time>
      </trkpt>
      <trkpt lat="42.34254" lon="2.19451">
        <ele>1283.02</ele>
        <time>2019-02-23T07:21:01Z</time>
      </trkpt>
      <trkpt lat="42.34255" lon="2.19449">
        <ele>1282.54</ele>
        <time>2019-02-23T07:21:03Z</time>
      </trkpt>
      <trkpt lat="42.34261" lon="2.19428">
        <ele>1280.61</ele>
        <time>2019-02-23T07:21:18Z</time>
      </trkpt>
      <trkpt lat="42.34274" lon="2.19391">
        <ele>1279.65</ele>
        <time>2019-02-23T07:21:33Z</time>
      </trkpt>
      <trkpt lat="42.34284" lon="2.19329">
        <ele>1281.09</ele>
        <time>2019-02-23T07:21:48Z</time>
      </trkpt>
      <trkpt lat="42.34287" lon="2.19285">
        <ele>1282.54</ele>
        <time>2019-02-23T07:22:03Z</time>
      </trkpt>
      <trkpt lat="42.34287" lon="2.19264">
        <ele>1285.42</ele>
        <time>2019-02-23T07:22:13Z</time>
      </trkpt>
      <trkpt lat="42.34286" lon="2.19258">
        <ele>1286.86</ele>
        <time>2019-02-23T07:22:17Z</time>
      </trkpt>
      <trkpt lat="42.34276" lon="2.19223">
        <ele>1290.71</ele>
        <time>2019-02-23T07:22:32Z</time>
      </trkpt>
      <trkpt lat="42.34272" lon="2.19198">
        <ele>1294.55</ele>
        <time>2019-02-23T07:22:44Z</time>
      </trkpt>
      <trkpt lat="42.34262" lon="2.19173">
        <ele>1297.44</ele>
        <time>2019-02-23T07:22:56Z</time>
      </trkpt>
      <trkpt lat="42.34249" lon="2.19144">
        <ele>1300.8</ele>
        <time>2019-02-23T07:23:11Z</time>
      </trkpt>
      <trkpt lat="42.34248" lon="2.19138">
        <ele>1302.24</ele>
        <time>2019-02-23T07:23:15Z</time>
      </trkpt>
      <trkpt lat="42.34252" lon="2.19087">
        <ele>1305.61</ele>
        <time>2019-02-23T07:23:32Z</time>
      </trkpt>
      <trkpt lat="42.34258" lon="2.1905">
        <ele>1308.97</ele>
        <time>2019-02-23T07:23:46Z</time>
      </trkpt>
      <trkpt lat="42.34264" lon="2.19036">
        <ele>1310.41</ele>
        <time>2019-02-23T07:24:00Z</time>
      </trkpt>
      <trkpt lat="42.34291" lon="2.19013">
        <ele>1308.49</ele>
        <time>2019-02-23T07:24:17Z</time>
      </trkpt>
      <trkpt lat="42.3429" lon="2.18991">
        <ele>1308.97</ele>
        <time>2019-02-23T07:24:26Z</time>
      </trkpt>
      <trkpt lat="42.34264" lon="2.18959">
        <ele>1312.82</ele>
        <time>2019-02-23T07:24:41Z</time>
      </trkpt>
      <trkpt lat="42.34264" lon="2.18934">
        <ele>1316.18</ele>
        <time>2019-02-23T07:24:51Z</time>
      </trkpt>
      <trkpt lat="42.34262" lon="2.18904">
        <ele>1315.7</ele>
        <time>2019-02-23T07:25:03Z</time>
      </trkpt>
      <trkpt lat="42.34257" lon="2.18902">
        <ele>1315.22</ele>
        <time>2019-02-23T07:25:07Z</time>
      </trkpt>
      <trkpt lat="42.34219" lon="2.18882">
        <ele>1316.66</ele>
        <time>2019-02-23T07:25:23Z</time>
      </trkpt>
      <trkpt lat="42.34188" lon="2.1886">
        <ele>1319.55</ele>
        <time>2019-02-23T07:25:36Z</time>
      </trkpt>
      <trkpt lat="42.34163" lon="2.18805">
        <ele>1320.99</ele>
        <time>2019-02-23T07:25:53Z</time>
      </trkpt>
      <trkpt lat="42.3416" lon="2.18774">
        <ele>1324.35</ele>
        <time>2019-02-23T07:26:03Z</time>
      </trkpt>
      <trkpt lat="42.34159" lon="2.18742">
        <ele>1327.24</ele>
        <time>2019-02-23T07:26:14Z</time>
      </trkpt>
      <trkpt lat="42.34158" lon="2.18702">
        <ele>1330.12</ele>
        <time>2019-02-23T07:26:27Z</time>
      </trkpt>
      <trkpt lat="42.34154" lon="2.18665">
        <ele>1333.49</ele>
        <time>2019-02-23T07:26:39Z</time>
      </trkpt>
      <trkpt lat="42.34138" lon="2.18621">
        <ele>1335.41</ele>
        <time>2019-02-23T07:26:53Z</time>
      </trkpt>
      <trkpt lat="42.34144" lon="2.18577">
        <ele>1338.29</ele>
        <time>2019-02-23T07:27:08Z</time>
      </trkpt>
      <trkpt lat="42.34152" lon="2.18551">
        <ele>1341.66</ele>
        <time>2019-02-23T07:27:18Z</time>
      </trkpt>
      <trkpt lat="42.34168" lon="2.18538">
        <ele>1345.02</ele>
        <time>2019-02-23T07:27:26Z</time>
      </trkpt>
      <trkpt lat="42.3417" lon="2.18537">
        <ele>1345.02</ele>
        <time>2019-02-23T07:27:27Z</time>
      </trkpt>
      <trkpt lat="42.34183" lon="2.18529">
        <ele>1348.39</ele>
        <time>2019-02-23T07:27:36Z</time>
      </trkpt>
      <trkpt lat="42.34194" lon="2.18526">
        <ele>1351.27</ele>
        <time>2019-02-23T07:27:44Z</time>
      </trkpt>
      <trkpt lat="42.34207" lon="2.18524">
        <ele>1355.12</ele>
        <time>2019-02-23T07:27:52Z</time>
      </trkpt>
      <trkpt lat="42.34222" lon="2.18482">
        <ele>1353.19</ele>
        <time>2019-02-23T07:28:08Z</time>
      </trkpt>
      <trkpt lat="42.34222" lon="2.18428">
        <ele>1352.23</ele>
        <time>2019-02-23T07:28:22Z</time>
      </trkpt>
      <trkpt lat="42.34227" lon="2.18363">
        <ele>1348.87</ele>
        <time>2019-02-23T07:28:37Z</time>
      </trkpt>
      <trkpt lat="42.34239" lon="2.1834">
        <ele>1352.71</ele>
        <time>2019-02-23T07:28:46Z</time>
      </trkpt>
      <trkpt lat="42.34242" lon="2.18338">
        <ele>1353.67</ele>
        <time>2019-02-23T07:28:48Z</time>
      </trkpt>
      <trkpt lat="42.34256" lon="2.1833">
        <ele>1357.04</ele>
        <time>2019-02-23T07:28:58Z</time>
      </trkpt>
      <trkpt lat="42.34257" lon="2.1833">
        <ele>1356.56</ele>
        <time>2019-02-23T07:29:23Z</time>
      </trkpt>
      <trkpt lat="42.34257" lon="2.1833">
        <ele>1356.08</ele>
        <time>2019-02-23T07:29:49Z</time>
      </trkpt>
      <trkpt lat="42.34264" lon="2.18333">
        <ele>1356.08</ele>
        <time>2019-02-23T07:30:12Z</time>
      </trkpt>
      <trkpt lat="42.34263" lon="2.18332">
        <ele>1356.08</ele>
        <time>2019-02-23T07:30:36Z</time>
      </trkpt>
      <trkpt lat="42.34254" lon="2.18322">
        <ele>1356.08</ele>
        <time>2019-02-23T07:31:03Z</time>
      </trkpt>
      <trkpt lat="42.34254" lon="2.1832">
        <ele>1355.6</ele>
        <time>2019-02-23T07:31:24Z</time>
      </trkpt>
      <trkpt lat="42.34255" lon="2.18323">
        <ele>1355.6</ele>
        <time>2019-02-23T07:31:31Z</time>
      </trkpt>
      <trkpt lat="42.34256" lon="2.18324">
        <ele>1355.6</ele>
        <time>2019-02-23T07:31:52Z</time>
      </trkpt>
      <trkpt lat="42.34263" lon="2.18322">
        <ele>1357.52</ele>
        <time>2019-02-23T07:32:09Z</time>
      </trkpt>
      <trkpt lat="42.34272" lon="2.1832">
        <ele>1359.44</ele>
        <time>2019-02-23T07:32:18Z</time>
      </trkpt>
      <trkpt lat="42.34281" lon="2.18319">
        <ele>1361.84</ele>
        <time>2019-02-23T07:32:26Z</time>
      </trkpt>
      <trkpt lat="42.34287" lon="2.18316">
        <ele>1362.33</ele>
        <time>2019-02-23T07:32:30Z</time>
      </trkpt>
      <trkpt lat="42.34292" lon="2.18305">
        <ele>1363.29</ele>
        <time>2019-02-23T07:32:36Z</time>
      </trkpt>
      <trkpt lat="42.34301" lon="2.18269">
        <ele>1364.25</ele>
        <time>2019-02-23T07:32:57Z</time>
      </trkpt>
      <trkpt lat="42.34285" lon="2.18245">
        <ele>1363.29</ele>
        <time>2019-02-23T07:33:13Z</time>
      </trkpt>
      <trkpt lat="42.34248" lon="2.18218">
        <ele>1365.21</ele>
        <time>2019-02-23T07:33:30Z</time>
      </trkpt>
      <trkpt lat="42.34215" lon="2.18157">
        <ele>1363.29</ele>
        <time>2019-02-23T07:33:47Z</time>
      </trkpt>
      <trkpt lat="42.34198" lon="2.18092">
        <ele>1361.84</ele>
        <time>2019-02-23T07:34:03Z</time>
      </trkpt>
      <trkpt lat="42.34203" lon="2.18043">
        <ele>1362.33</ele>
        <time>2019-02-23T07:34:15Z</time>
      </trkpt>
      <trkpt lat="42.34214" lon="2.18008">
        <ele>1365.21</ele>
        <time>2019-02-23T07:34:26Z</time>
      </trkpt>
      <trkpt lat="42.34222" lon="2.1799">
        <ele>1367.13</ele>
        <time>2019-02-23T07:34:34Z</time>
      </trkpt>
      <trkpt lat="42.34231" lon="2.17987">
        <ele>1369.05</ele>
        <time>2019-02-23T07:34:38Z</time>
      </trkpt>
      <trkpt lat="42.34262" lon="2.17961">
        <ele>1368.09</ele>
        <time>2019-02-23T07:34:53Z</time>
      </trkpt>
      <trkpt lat="42.34297" lon="2.17922">
        <ele>1366.17</ele>
        <time>2019-02-23T07:35:08Z</time>
      </trkpt>
      <trkpt lat="42.34334" lon="2.17892">
        <ele>1366.17</ele>
        <time>2019-02-23T07:35:22Z</time>
      </trkpt>
      <trkpt lat="42.34378" lon="2.17877">
        <ele>1367.61</ele>
        <time>2019-02-23T07:35:37Z</time>
      </trkpt>
      <trkpt lat="42.34416" lon="2.17867">
        <ele>1369.54</ele>
        <time>2019-02-23T07:35:50Z</time>
      </trkpt>
      <trkpt lat="42.34458" lon="2.17845">
        <ele>1369.05</ele>
        <time>2019-02-23T07:36:05Z</time>
      </trkpt>
      <trkpt lat="42.34501" lon="2.17814">
        <ele>1367.13</ele>
        <time>2019-02-23T07:36:20Z</time>
      </trkpt>
      <trkpt lat="42.34523" lon="2.17774">
        <ele>1370.5</ele>
        <time>2019-02-23T07:36:34Z</time>
      </trkpt>
      <trkpt lat="42.34551" lon="2.17743">
        <ele>1371.46</ele>
        <time>2019-02-23T07:36:49Z</time>
      </trkpt>
      <trkpt lat="42.34583" lon="2.1772">
        <ele>1374.82</ele>
        <time>2019-02-23T07:37:03Z</time>
      </trkpt>
      <trkpt lat="42.34599" lon="2.17703">
        <ele>1378.19</ele>
        <time>2019-02-23T07:37:13Z</time>
      </trkpt>
      <trkpt lat="42.34607" lon="2.17692">
        <ele>1379.15</ele>
        <time>2019-02-23T07:37:18Z</time>
      </trkpt>
      <trkpt lat="42.3463" lon="2.17646">
        <ele>1381.55</ele>
        <time>2019-02-23T07:37:33Z</time>
      </trkpt>
      <trkpt lat="42.34639" lon="2.17647">
        <ele>1383.96</ele>
        <time>2019-02-23T07:37:47Z</time>
      </trkpt>
      <trkpt lat="42.34639" lon="2.17647">
        <ele>1384.44</ele>
        <time>2019-02-23T07:37:48Z</time>
      </trkpt>
      <trkpt lat="42.34639" lon="2.17652">
        <ele>1383.96</ele>
        <time>2019-02-23T07:37:52Z</time>
      </trkpt>
      <trkpt lat="42.34638" lon="2.17657">
        <ele>1384.92</ele>
        <time>2019-02-23T07:37:56Z</time>
      </trkpt>
      <trkpt lat="42.34637" lon="2.17677">
        <ele>1386.84</ele>
        <time>2019-02-23T07:38:08Z</time>
      </trkpt>
      <trkpt lat="42.34657" lon="2.17701">
        <ele>1390.68</ele>
        <time>2019-02-23T07:38:25Z</time>
      </trkpt>
      <trkpt lat="42.34687" lon="2.1771">
        <ele>1392.61</ele>
        <time>2019-02-23T07:38:37Z</time>
      </trkpt>
      <trkpt lat="42.34713" lon="2.17718">
        <ele>1394.05</ele>
        <time>2019-02-23T07:38:51Z</time>
      </trkpt>
      <trkpt lat="42.34715" lon="2.17719">
        <ele>1393.09</ele>
        <time>2019-02-23T07:39:08Z</time>
      </trkpt>
      <trkpt lat="42.34725" lon="2.17724">
        <ele>1392.13</ele>
        <time>2019-02-23T07:39:13Z</time>
      </trkpt>
      <trkpt lat="42.34763" lon="2.17756">
        <ele>1389.72</ele>
        <time>2019-02-23T07:39:27Z</time>
      </trkpt>
      <trkpt lat="42.34784" lon="2.17772">
        <ele>1386.84</ele>
        <time>2019-02-23T07:39:34Z</time>
      </trkpt>
      <trkpt lat="42.34847" lon="2.17805">
        <ele>1384.44</ele>
        <time>2019-02-23T07:39:51Z</time>
      </trkpt>
      <trkpt lat="42.34892" lon="2.17837">
        <ele>1383.47</ele>
        <time>2019-02-23T07:40:05Z</time>
      </trkpt>
      <trkpt lat="42.34921" lon="2.17857">
        <ele>1385.4</ele>
        <time>2019-02-23T07:40:15Z</time>
      </trkpt>
      <trkpt lat="42.3494" lon="2.17865">
        <ele>1382.51</ele>
        <time>2019-02-23T07:40:22Z</time>
      </trkpt>
      <trkpt lat="42.34987" lon="2.17859">
        <ele>1382.51</ele>
        <time>2019-02-23T07:40:37Z</time>
      </trkpt>
      <trkpt lat="42.34994" lon="2.17859">
        <ele>1381.07</ele>
        <time>2019-02-23T07:40:39Z</time>
      </trkpt>
      <trkpt lat="42.35025" lon="2.1785">
        <ele>1380.11</ele>
        <time>2019-02-23T07:40:53Z</time>
      </trkpt>
      <trkpt lat="42.35059" lon="2.17835">
        <ele>1378.67</ele>
        <time>2019-02-23T07:41:07Z</time>
      </trkpt>
      <trkpt lat="42.35081" lon="2.17834">
        <ele>1375.3</ele>
        <time>2019-02-23T07:41:15Z</time>
      </trkpt>
      <trkpt lat="42.35097" lon="2.1785">
        <ele>1372.42</ele>
        <time>2019-02-23T07:41:25Z</time>
      </trkpt>
      <trkpt lat="42.35101" lon="2.1788">
        <ele>1370.98</ele>
        <time>2019-02-23T07:41:32Z</time>
      </trkpt>
      <trkpt lat="42.3511" lon="2.17882">
        <ele>1370.5</ele>
        <time>2019-02-23T07:41:47Z</time>
      </trkpt>
      <trkpt lat="42.35113" lon="2.17872">
        <ele>1368.09</ele>
        <time>2019-02-23T07:41:52Z</time>
      </trkpt>
      <trkpt lat="42.3514" lon="2.1786">
        <ele>1368.57</ele>
        <time>2019-02-23T07:42:05Z</time>
      </trkpt>
      <trkpt lat="42.35163" lon="2.17854">
        <ele>1370.98</ele>
        <time>2019-02-23T07:42:17Z</time>
      </trkpt>
      <trkpt lat="42.35197" lon="2.17846">
        <ele>1371.94</ele>
        <time>2019-02-23T07:42:32Z</time>
      </trkpt>
      <trkpt lat="42.3524" lon="2.17838">
        <ele>1371.94</ele>
        <time>2019-02-23T07:42:47Z</time>
      </trkpt>
      <trkpt lat="42.35253" lon="2.17832">
        <ele>1373.86</ele>
        <time>2019-02-23T07:42:53Z</time>
      </trkpt>
      <trkpt lat="42.35297" lon="2.17826">
        <ele>1372.9</ele>
        <time>2019-02-23T07:43:10Z</time>
      </trkpt>
      <trkpt lat="42.35318" lon="2.17839">
        <ele>1369.54</ele>
        <time>2019-02-23T07:43:20Z</time>
      </trkpt>
      <trkpt lat="42.35339" lon="2.17847">
        <ele>1368.57</ele>
        <time>2019-02-23T07:43:32Z</time>
      </trkpt>
      <trkpt lat="42.35347" lon="2.17851">
        <ele>1368.57</ele>
        <time>2019-02-23T07:43:41Z</time>
      </trkpt>
      <trkpt lat="42.35351" lon="2.17854">
        <ele>1367.61</ele>
        <time>2019-02-23T07:43:45Z</time>
      </trkpt>
      <trkpt lat="42.35359" lon="2.1785">
        <ele>1366.65</ele>
        <time>2019-02-23T07:43:51Z</time>
      </trkpt>
      <trkpt lat="42.35381" lon="2.17811">
        <ele>1365.21</ele>
        <time>2019-02-23T07:44:05Z</time>
      </trkpt>
      <trkpt lat="42.3541" lon="2.17781">
        <ele>1368.09</ele>
        <time>2019-02-23T07:44:21Z</time>
      </trkpt>
      <trkpt lat="42.35416" lon="2.17775">
        <ele>1367.13</ele>
        <time>2019-02-23T07:44:24Z</time>
      </trkpt>
      <trkpt lat="42.35428" lon="2.1777">
        <ele>1365.69</ele>
        <time>2019-02-23T07:44:29Z</time>
      </trkpt>
      <trkpt lat="42.35458" lon="2.17735">
        <ele>1363.77</ele>
        <time>2019-02-23T07:44:46Z</time>
      </trkpt>
      <trkpt lat="42.35478" lon="2.17718">
        <ele>1360.88</ele>
        <time>2019-02-23T07:44:56Z</time>
      </trkpt>
      <trkpt lat="42.35518" lon="2.17697">
        <ele>1357.52</ele>
        <time>2019-02-23T07:45:08Z</time>
      </trkpt>
      <trkpt lat="42.35565" lon="2.17672">
        <ele>1354.63</ele>
        <time>2019-02-23T07:45:23Z</time>
      </trkpt>
      <trkpt lat="42.35574" lon="2.17665">
        <ele>1352.71</ele>
        <time>2019-02-23T07:45:26Z</time>
      </trkpt>
      <trkpt lat="42.35588" lon="2.17656">
        <ele>1349.35</ele>
        <time>2019-02-23T07:45:31Z</time>
      </trkpt>
      <trkpt lat="42.3559" lon="2.17653">
        <ele>1349.35</ele>
        <time>2019-02-23T07:45:32Z</time>
      </trkpt>
      <trkpt lat="42.35601" lon="2.17633">
        <ele>1345.02</ele>
        <time>2019-02-23T07:45:38Z</time>
      </trkpt>
      <trkpt lat="42.35609" lon="2.17617">
        <ele>1341.18</ele>
        <time>2019-02-23T07:45:44Z</time>
      </trkpt>
      <trkpt lat="42.35613" lon="2.1761">
        <ele>1337.81</ele>
        <time>2019-02-23T07:45:48Z</time>
      </trkpt>
      <trkpt lat="42.35615" lon="2.17607">
        <ele>1336.37</ele>
        <time>2019-02-23T07:45:50Z</time>
      </trkpt>
      <trkpt lat="42.35618" lon="2.17591">
        <ele>1333.01</ele>
        <time>2019-02-23T07:45:54Z</time>
      </trkpt>
      <trkpt lat="42.3562" lon="2.17563">
        <ele>1329.64</ele>
        <time>2019-02-23T07:45:59Z</time>
      </trkpt>
      <trkpt lat="42.35626" lon="2.17554">
        <ele>1326.28</ele>
        <time>2019-02-23T07:46:03Z</time>
      </trkpt>
      <trkpt lat="42.35632" lon="2.17541">
        <ele>1322.91</ele>
        <time>2019-02-23T07:46:08Z</time>
      </trkpt>
      <trkpt lat="42.35635" lon="2.17531">
        <ele>1319.07</ele>
        <time>2019-02-23T07:46:12Z</time>
      </trkpt>
      <trkpt lat="42.35637" lon="2.17526">
        <ele>1317.14</ele>
        <time>2019-02-23T07:46:14Z</time>
      </trkpt>
      <trkpt lat="42.35641" lon="2.17514">
        <ele>1312.34</ele>
        <time>2019-02-23T07:46:19Z</time>
      </trkpt>
      <trkpt lat="42.35653" lon="2.17504">
        <ele>1308.97</ele>
        <time>2019-02-23T07:46:24Z</time>
      </trkpt>
      <trkpt lat="42.35662" lon="2.17496">
        <ele>1306.09</ele>
        <time>2019-02-23T07:46:28Z</time>
      </trkpt>
      <trkpt lat="42.35666" lon="2.17491">
        <ele>1304.65</ele>
        <time>2019-02-23T07:46:30Z</time>
      </trkpt>
      <trkpt lat="42.3567" lon="2.17489">
        <ele>1302.72</ele>
        <time>2019-02-23T07:46:32Z</time>
      </trkpt>
      <trkpt lat="42.35679" lon="2.17497">
        <ele>1299.36</ele>
        <time>2019-02-23T07:46:37Z</time>
      </trkpt>
      <trkpt lat="42.35684" lon="2.17501">
        <ele>1298.4</ele>
        <time>2019-02-23T07:46:39Z</time>
      </trkpt>
      <trkpt lat="42.35692" lon="2.17497">
        <ele>1294.07</ele>
        <time>2019-02-23T07:46:44Z</time>
      </trkpt>
      <trkpt lat="42.35693" lon="2.17496">
        <ele>1294.07</ele>
        <time>2019-02-23T07:46:45Z</time>
      </trkpt>
      <trkpt lat="42.35694" lon="2.17495">
        <ele>1292.63</ele>
        <time>2019-02-23T07:46:46Z</time>
      </trkpt>
      <trkpt lat="42.35701" lon="2.17489">
        <ele>1289.75</ele>
        <time>2019-02-23T07:46:51Z</time>
      </trkpt>
      <trkpt lat="42.35706" lon="2.17493">
        <ele>1286.38</ele>
        <time>2019-02-23T07:46:56Z</time>
      </trkpt>
      <trkpt lat="42.35714" lon="2.17491">
        <ele>1283.98</ele>
        <time>2019-02-23T07:47:00Z</time>
      </trkpt>
      <trkpt lat="42.35714" lon="2.17486">
        <ele>1281.09</ele>
        <time>2019-02-23T07:47:04Z</time>
      </trkpt>
      <trkpt lat="42.35722" lon="2.17484">
        <ele>1277.73</ele>
        <time>2019-02-23T07:47:09Z</time>
      </trkpt>
      <trkpt lat="42.35734" lon="2.17493">
        <ele>1274.36</ele>
        <time>2019-02-23T07:47:14Z</time>
      </trkpt>
      <trkpt lat="42.35751" lon="2.17511">
        <ele>1270.52</ele>
        <time>2019-02-23T07:47:21Z</time>
      </trkpt>
      <trkpt lat="42.35752" lon="2.17512">
        <ele>1269.56</ele>
        <time>2019-02-23T07:47:22Z</time>
      </trkpt>
      <trkpt lat="42.35758" lon="2.17518">
        <ele>1268.12</ele>
        <time>2019-02-23T07:47:25Z</time>
      </trkpt>
      <trkpt lat="42.3578" lon="2.17552">
        <ele>1263.79</ele>
        <time>2019-02-23T07:47:34Z</time>
      </trkpt>
      <trkpt lat="42.35803" lon="2.17598">
        <ele>1260.91</ele>
        <time>2019-02-23T07:47:45Z</time>
      </trkpt>
      <trkpt lat="42.35811" lon="2.17611">
        <ele>1259.94</ele>
        <time>2019-02-23T07:47:48Z</time>
      </trkpt>
      <trkpt lat="42.35828" lon="2.17644">
        <ele>1257.54</ele>
        <time>2019-02-23T07:47:55Z</time>
      </trkpt>
      <trkpt lat="42.35852" lon="2.17689">
        <ele>1254.18</ele>
        <time>2019-02-23T07:48:07Z</time>
      </trkpt>
      <trkpt lat="42.35875" lon="2.17741">
        <ele>1253.22</ele>
        <time>2019-02-23T07:48:22Z</time>
      </trkpt>
      <trkpt lat="42.35872" lon="2.17715">
        <ele>1251.77</ele>
        <time>2019-02-23T07:48:30Z</time>
      </trkpt>
      <trkpt lat="42.35857" lon="2.17723">
        <ele>1249.85</ele>
        <time>2019-02-23T07:48:39Z</time>
      </trkpt>
      <trkpt lat="42.35852" lon="2.17723">
        <ele>1246.01</ele>
        <time>2019-02-23T07:48:44Z</time>
      </trkpt>
      <trkpt lat="42.35852" lon="2.17722">
        <ele>1246.01</ele>
        <time>2019-02-23T07:48:45Z</time>
      </trkpt>
      <trkpt lat="42.35852" lon="2.17721">
        <ele>1245.04</ele>
        <time>2019-02-23T07:48:46Z</time>
      </trkpt>
      <trkpt lat="42.35853" lon="2.17711">
        <ele>1241.68</ele>
        <time>2019-02-23T07:48:51Z</time>
      </trkpt>
      <trkpt lat="42.35857" lon="2.17692">
        <ele>1238.32</ele>
        <time>2019-02-23T07:48:58Z</time>
      </trkpt>
      <trkpt lat="42.35859" lon="2.17677">
        <ele>1235.43</ele>
        <time>2019-02-23T07:49:03Z</time>
      </trkpt>
      <trkpt lat="42.3586" lon="2.17667">
        <ele>1233.51</ele>
        <time>2019-02-23T07:49:07Z</time>
      </trkpt>
      <trkpt lat="42.35862" lon="2.1766">
        <ele>1230.14</ele>
        <time>2019-02-23T07:49:17Z</time>
      </trkpt>
      <trkpt lat="42.3586" lon="2.17648">
        <ele>1225.34</ele>
        <time>2019-02-23T07:49:22Z</time>
      </trkpt>
      <trkpt lat="42.3586" lon="2.17642">
        <ele>1224.38</ele>
        <time>2019-02-23T07:49:24Z</time>
      </trkpt>
      <trkpt lat="42.35859" lon="2.17619">
        <ele>1220.53</ele>
        <time>2019-02-23T07:49:32Z</time>
      </trkpt>
      <trkpt lat="42.35862" lon="2.17601">
        <ele>1217.17</ele>
        <time>2019-02-23T07:49:39Z</time>
      </trkpt>
      <trkpt lat="42.35862" lon="2.17582">
        <ele>1214.28</ele>
        <time>2019-02-23T07:49:50Z</time>
      </trkpt>
      <trkpt lat="42.35861" lon="2.17574">
        <ele>1211.4</ele>
        <time>2019-02-23T07:49:55Z</time>
      </trkpt>
      <trkpt lat="42.35861" lon="2.17569">
        <ele>1209.48</ele>
        <time>2019-02-23T07:49:58Z</time>
      </trkpt>
      <trkpt lat="42.35861" lon="2.17563">
        <ele>1208.51</ele>
        <time>2019-02-23T07:50:00Z</time>
      </trkpt>
      <trkpt lat="42.3586" lon="2.17547">
        <ele>1205.63</ele>
        <time>2019-02-23T07:50:06Z</time>
      </trkpt>
      <trkpt lat="42.35858" lon="2.17527">
        <ele>1202.27</ele>
        <time>2019-02-23T07:50:12Z</time>
      </trkpt>
      <trkpt lat="42.35858" lon="2.17515">
        <ele>1199.86</ele>
        <time>2019-02-23T07:50:17Z</time>
      </trkpt>
      <trkpt lat="42.35857" lon="2.17495">
        <ele>1196.5</ele>
        <time>2019-02-23T07:50:23Z</time>
      </trkpt>
      <trkpt lat="42.35857" lon="2.17493">
        <ele>1196.5</ele>
        <time>2019-02-23T07:50:24Z</time>
      </trkpt>
      <trkpt lat="42.35856" lon="2.17487">
        <ele>1195.06</ele>
        <time>2019-02-23T07:50:26Z</time>
      </trkpt>
      <trkpt lat="42.35851" lon="2.17467">
        <ele>1192.65</ele>
        <time>2019-02-23T07:50:42Z</time>
      </trkpt>
      <trkpt lat="42.35851" lon="2.17463">
        <ele>1191.21</ele>
        <time>2019-02-23T07:50:48Z</time>
      </trkpt>
      <trkpt lat="42.35857" lon="2.1745">
        <ele>1187.85</ele>
        <time>2019-02-23T07:51:03Z</time>
      </trkpt>
      <trkpt lat="42.35857" lon="2.17448">
        <ele>1187.85</ele>
        <time>2019-02-23T07:51:04Z</time>
      </trkpt>
      <trkpt lat="42.35856" lon="2.17426">
        <ele>1184.48</ele>
        <time>2019-02-23T07:51:12Z</time>
      </trkpt>
      <trkpt lat="42.35852" lon="2.174">
        <ele>1181.12</ele>
        <time>2019-02-23T07:51:23Z</time>
      </trkpt>
      <trkpt lat="42.35852" lon="2.17389">
        <ele>1178.23</ele>
        <time>2019-02-23T07:51:30Z</time>
      </trkpt>
      <trkpt lat="42.35855" lon="2.17381">
        <ele>1176.31</ele>
        <time>2019-02-23T07:51:34Z</time>
      </trkpt>
      <trkpt lat="42.35853" lon="2.17376">
        <ele>1175.35</ele>
        <time>2019-02-23T07:51:36Z</time>
      </trkpt>
      <trkpt lat="42.35843" lon="2.17375">
        <ele>1174.87</ele>
        <time>2019-02-23T07:51:43Z</time>
      </trkpt>
      <trkpt lat="42.35841" lon="2.17372">
        <ele>1173.91</ele>
        <time>2019-02-23T07:51:48Z</time>
      </trkpt>
      <trkpt lat="42.35847" lon="2.17353">
        <ele>1170.54</ele>
        <time>2019-02-23T07:51:57Z</time>
      </trkpt>
      <trkpt lat="42.35853" lon="2.1734">
        <ele>1167.18</ele>
        <time>2019-02-23T07:52:03Z</time>
      </trkpt>
      <trkpt lat="42.35858" lon="2.17327">
        <ele>1165.74</ele>
        <time>2019-02-23T07:52:07Z</time>
      </trkpt>
      <trkpt lat="42.3586" lon="2.17311">
        <ele>1164.29</ele>
        <time>2019-02-23T07:52:20Z</time>
      </trkpt>
      <trkpt lat="42.35859" lon="2.17311">
        <ele>1164.29</ele>
        <time>2019-02-23T07:52:38Z</time>
      </trkpt>
      <trkpt lat="42.3586" lon="2.17311">
        <ele>1163.81</ele>
        <time>2019-02-23T07:52:51Z</time>
      </trkpt>
      <trkpt lat="42.35865" lon="2.1731">
        <ele>1162.85</ele>
        <time>2019-02-23T07:52:59Z</time>
      </trkpt>
      <trkpt lat="42.35876" lon="2.17294">
        <ele>1159.01</ele>
        <time>2019-02-23T07:53:11Z</time>
      </trkpt>
      <trkpt lat="42.35877" lon="2.17291">
        <ele>1158.53</ele>
        <time>2019-02-23T07:53:15Z</time>
      </trkpt>
      <trkpt lat="42.35881" lon="2.17288">
        <ele>1157.56</ele>
        <time>2019-02-23T07:53:18Z</time>
      </trkpt>
      <trkpt lat="42.35883" lon="2.17281">
        <ele>1155.64</ele>
        <time>2019-02-23T07:53:22Z</time>
      </trkpt>
      <trkpt lat="42.3589" lon="2.17282">
        <ele>1154.68</ele>
        <time>2019-02-23T07:53:27Z</time>
      </trkpt>
      <trkpt lat="42.359" lon="2.17305">
        <ele>1157.08</ele>
        <time>2019-02-23T07:53:40Z</time>
      </trkpt>
      <trkpt lat="42.35918" lon="2.1734">
        <ele>1156.12</ele>
        <time>2019-02-23T07:53:54Z</time>
      </trkpt>
      <trkpt lat="42.35955" lon="2.17381">
        <ele>1158.05</ele>
        <time>2019-02-23T07:54:08Z</time>
      </trkpt>
      <trkpt lat="42.36004" lon="2.174">
        <ele>1160.45</ele>
        <time>2019-02-23T07:54:25Z</time>
      </trkpt>
      <trkpt lat="42.36038" lon="2.17412">
        <ele>1163.81</ele>
        <time>2019-02-23T07:54:39Z</time>
      </trkpt>
      <trkpt lat="42.36074" lon="2.17424">
        <ele>1165.74</ele>
        <time>2019-02-23T07:54:54Z</time>
      </trkpt>
      <trkpt lat="42.36108" lon="2.17447">
        <ele>1168.62</ele>
        <time>2019-02-23T07:55:08Z</time>
      </trkpt>
      <trkpt lat="42.3614" lon="2.17474">
        <ele>1171.5</ele>
        <time>2019-02-23T07:55:23Z</time>
      </trkpt>
      <trkpt lat="42.36163" lon="2.17489">
        <ele>1174.87</ele>
        <time>2019-02-23T07:55:35Z</time>
      </trkpt>
      <trkpt lat="42.36182" lon="2.1749">
        <ele>1177.75</ele>
        <time>2019-02-23T07:55:44Z</time>
      </trkpt>
      <trkpt lat="42.36209" lon="2.17492">
        <ele>1180.16</ele>
        <time>2019-02-23T07:55:58Z</time>
      </trkpt>
      <trkpt lat="42.3626" lon="2.17488">
        <ele>1181.6</ele>
        <time>2019-02-23T07:56:14Z</time>
      </trkpt>
      <trkpt lat="42.36307" lon="2.1748">
        <ele>1183.04</ele>
        <time>2019-02-23T07:56:30Z</time>
      </trkpt>
      <trkpt lat="42.3635" lon="2.17503">
        <ele>1184</ele>
        <time>2019-02-23T07:56:44Z</time>
      </trkpt>
      <trkpt lat="42.36402" lon="2.17526">
        <ele>1184</ele>
        <time>2019-02-23T07:57:02Z</time>
      </trkpt>
      <trkpt lat="42.36442" lon="2.17549">
        <ele>1185.44</ele>
        <time>2019-02-23T07:57:18Z</time>
      </trkpt>
      <trkpt lat="42.36449" lon="2.17545">
        <ele>1185.92</ele>
        <time>2019-02-23T07:57:24Z</time>
      </trkpt>
      <trkpt lat="42.36455" lon="2.1754">
        <ele>1185.92</ele>
        <time>2019-02-23T07:57:30Z</time>
      </trkpt>
      <trkpt lat="42.36464" lon="2.17545">
        <ele>1187.37</ele>
        <time>2019-02-23T07:57:47Z</time>
      </trkpt>
      <trkpt lat="42.36467" lon="2.17545">
        <ele>1187.85</ele>
        <time>2019-02-23T07:57:50Z</time>
      </trkpt>
      <trkpt lat="42.36467" lon="2.17533">
        <ele>1190.25</ele>
        <time>2019-02-23T07:58:06Z</time>
      </trkpt>
      <trkpt lat="42.36472" lon="2.17535">
        <ele>1193.13</ele>
        <time>2019-02-23T07:58:22Z</time>
      </trkpt>
      <trkpt lat="42.36475" lon="2.17538">
        <ele>1194.09</ele>
        <time>2019-02-23T07:58:26Z</time>
      </trkpt>
      <trkpt lat="42.36485" lon="2.17535">
        <ele>1198.42</ele>
        <time>2019-02-23T07:58:35Z</time>
      </trkpt>
      <trkpt lat="42.36494" lon="2.17532">
        <ele>1202.27</ele>
        <time>2019-02-23T07:58:45Z</time>
      </trkpt>
      <trkpt lat="42.36495" lon="2.17528">
        <ele>1201.79</ele>
        <time>2019-02-23T07:59:01Z</time>
      </trkpt>
      <trkpt lat="42.36495" lon="2.17527">
        <ele>1202.27</ele>
        <time>2019-02-23T07:59:02Z</time>
      </trkpt>
      <trkpt lat="42.36496" lon="2.17521">
        <ele>1203.23</ele>
        <time>2019-02-23T07:59:06Z</time>
      </trkpt>
      <trkpt lat="42.36501" lon="2.1751">
        <ele>1206.59</ele>
        <time>2019-02-23T07:59:13Z</time>
      </trkpt>
      <trkpt lat="42.36507" lon="2.17494">
        <ele>1209.96</ele>
        <time>2019-02-23T07:59:22Z</time>
      </trkpt>
      <trkpt lat="42.36507" lon="2.17493">
        <ele>1210.44</ele>
        <time>2019-02-23T07:59:23Z</time>
      </trkpt>
      <trkpt lat="42.3651" lon="2.17494">
        <ele>1211.4</ele>
        <time>2019-02-23T07:59:26Z</time>
      </trkpt>
      <trkpt lat="42.36514" lon="2.175">
        <ele>1213.32</ele>
        <time>2019-02-23T07:59:31Z</time>
      </trkpt>
      <trkpt lat="42.36515" lon="2.17502">
        <ele>1213.8</ele>
        <time>2019-02-23T07:59:32Z</time>
      </trkpt>
      <trkpt lat="42.36523" lon="2.17493">
        <ele>1217.65</ele>
        <time>2019-02-23T07:59:48Z</time>
      </trkpt>
      <trkpt lat="42.36525" lon="2.17483">
        <ele>1217.65</ele>
        <time>2019-02-23T07:59:53Z</time>
      </trkpt>
      <trkpt lat="42.36526" lon="2.17473">
        <ele>1218.61</ele>
        <time>2019-02-23T08:00:10Z</time>
      </trkpt>
      <trkpt lat="42.36531" lon="2.17481">
        <ele>1221.49</ele>
        <time>2019-02-23T08:00:21Z</time>
      </trkpt>
      <trkpt lat="42.36531" lon="2.17482">
        <ele>1221.97</ele>
        <time>2019-02-23T08:00:22Z</time>
      </trkpt>
      <trkpt lat="42.36535" lon="2.1748">
        <ele>1223.42</ele>
        <time>2019-02-23T08:00:26Z</time>
      </trkpt>
      <trkpt lat="42.36542" lon="2.1747">
        <ele>1225.82</ele>
        <time>2019-02-23T08:00:36Z</time>
      </trkpt>
      <trkpt lat="42.36542" lon="2.17463">
        <ele>1226.3</ele>
        <time>2019-02-23T08:00:40Z</time>
      </trkpt>
      <trkpt lat="42.36552" lon="2.17445">
        <ele>1229.66</ele>
        <time>2019-02-23T08:00:54Z</time>
      </trkpt>
      <trkpt lat="42.36555" lon="2.17441">
        <ele>1229.66</ele>
        <time>2019-02-23T08:00:58Z</time>
      </trkpt>
      <trkpt lat="42.36565" lon="2.17412">
        <ele>1230.62</ele>
        <time>2019-02-23T08:01:13Z</time>
      </trkpt>
      <trkpt lat="42.36579" lon="2.17388">
        <ele>1233.51</ele>
        <time>2019-02-23T08:01:28Z</time>
      </trkpt>
      <trkpt lat="42.36581" lon="2.17386">
        <ele>1234.47</ele>
        <time>2019-02-23T08:01:30Z</time>
      </trkpt>
      <trkpt lat="42.36582" lon="2.17381">
        <ele>1234.95</ele>
        <time>2019-02-23T08:01:33Z</time>
      </trkpt>
      <trkpt lat="42.36586" lon="2.17362">
        <ele>1238.32</ele>
        <time>2019-02-23T08:01:42Z</time>
      </trkpt>
      <trkpt lat="42.36587" lon="2.1736">
        <ele>1238.32</ele>
        <time>2019-02-23T08:01:43Z</time>
      </trkpt>
      <trkpt lat="42.36605" lon="2.17334">
        <ele>1240.72</ele>
        <time>2019-02-23T08:01:59Z</time>
      </trkpt>
      <trkpt lat="42.36604" lon="2.17322">
        <ele>1244.08</ele>
        <time>2019-02-23T08:02:08Z</time>
      </trkpt>
      <trkpt lat="42.36605" lon="2.17325">
        <ele>1244.56</ele>
        <time>2019-02-23T08:02:11Z</time>
      </trkpt>
      <trkpt lat="42.3661" lon="2.17327">
        <ele>1247.45</ele>
        <time>2019-02-23T08:02:19Z</time>
      </trkpt>
      <trkpt lat="42.36621" lon="2.17332">
        <ele>1251.29</ele>
        <time>2019-02-23T08:02:29Z</time>
      </trkpt>
      <trkpt lat="42.36626" lon="2.17332">
        <ele>1252.25</ele>
        <time>2019-02-23T08:02:32Z</time>
      </trkpt>
      <trkpt lat="42.36632" lon="2.17327">
        <ele>1253.7</ele>
        <time>2019-02-23T08:02:36Z</time>
      </trkpt>
      <trkpt lat="42.36634" lon="2.17319">
        <ele>1255.14</ele>
        <time>2019-02-23T08:02:39Z</time>
      </trkpt>
      <trkpt lat="42.36636" lon="2.1731">
        <ele>1256.58</ele>
        <time>2019-02-23T08:02:44Z</time>
      </trkpt>
      <trkpt lat="42.3664" lon="2.17304">
        <ele>1259.46</ele>
        <time>2019-02-23T08:02:52Z</time>
      </trkpt>
      <trkpt lat="42.36643" lon="2.17304">
        <ele>1260.43</ele>
        <time>2019-02-23T08:02:56Z</time>
      </trkpt>
      <trkpt lat="42.36653" lon="2.17313">
        <ele>1263.79</ele>
        <time>2019-02-23T08:03:06Z</time>
      </trkpt>
      <trkpt lat="42.36657" lon="2.17312">
        <ele>1265.23</ele>
        <time>2019-02-23T08:03:11Z</time>
      </trkpt>
      <trkpt lat="42.3667" lon="2.17309">
        <ele>1268.6</ele>
        <time>2019-02-23T08:03:22Z</time>
      </trkpt>
      <trkpt lat="42.36673" lon="2.17309">
        <ele>1270.04</ele>
        <time>2019-02-23T08:03:25Z</time>
      </trkpt>
      <trkpt lat="42.36677" lon="2.17305">
        <ele>1271.48</ele>
        <time>2019-02-23T08:03:29Z</time>
      </trkpt>
      <trkpt lat="42.3668" lon="2.17302">
        <ele>1271.48</ele>
        <time>2019-02-23T08:03:32Z</time>
      </trkpt>
      <trkpt lat="42.36686" lon="2.17295">
        <ele>1274.85</ele>
        <time>2019-02-23T08:03:41Z</time>
      </trkpt>
      <trkpt lat="42.36688" lon="2.17291">
        <ele>1275.33</ele>
        <time>2019-02-23T08:03:44Z</time>
      </trkpt>
      <trkpt lat="42.36701" lon="2.17276">
        <ele>1278.69</ele>
        <time>2019-02-23T08:03:57Z</time>
      </trkpt>
      <trkpt lat="42.36706" lon="2.17263">
        <ele>1281.57</ele>
        <time>2019-02-23T08:04:07Z</time>
      </trkpt>
      <trkpt lat="42.36713" lon="2.17252">
        <ele>1284.46</ele>
        <time>2019-02-23T08:04:16Z</time>
      </trkpt>
      <trkpt lat="42.36723" lon="2.17253">
        <ele>1288.3</ele>
        <time>2019-02-23T08:04:28Z</time>
      </trkpt>
      <trkpt lat="42.36729" lon="2.17255">
        <ele>1289.75</ele>
        <time>2019-02-23T08:04:33Z</time>
      </trkpt>
      <trkpt lat="42.36731" lon="2.17256">
        <ele>1290.71</ele>
        <time>2019-02-23T08:04:35Z</time>
      </trkpt>
      <trkpt lat="42.36735" lon="2.1726">
        <ele>1292.15</ele>
        <time>2019-02-23T08:04:39Z</time>
      </trkpt>
      <trkpt lat="42.36737" lon="2.17263">
        <ele>1293.59</ele>
        <time>2019-02-23T08:04:42Z</time>
      </trkpt>
      <trkpt lat="42.36743" lon="2.17274">
        <ele>1296.96</ele>
        <time>2019-02-23T08:04:52Z</time>
      </trkpt>
      <trkpt lat="42.36755" lon="2.17283">
        <ele>1300.32</ele>
        <time>2019-02-23T08:05:05Z</time>
      </trkpt>
      <trkpt lat="42.36769" lon="2.17292">
        <ele>1303.69</ele>
        <time>2019-02-23T08:05:16Z</time>
      </trkpt>
      <trkpt lat="42.36781" lon="2.17295">
        <ele>1306.57</ele>
        <time>2019-02-23T08:05:24Z</time>
      </trkpt>
      <trkpt lat="42.36785" lon="2.17289">
        <ele>1308.01</ele>
        <time>2019-02-23T08:05:29Z</time>
      </trkpt>
      <trkpt lat="42.36785" lon="2.17279">
        <ele>1310.9</ele>
        <time>2019-02-23T08:05:34Z</time>
      </trkpt>
      <trkpt lat="42.36784" lon="2.17269">
        <ele>1312.34</ele>
        <time>2019-02-23T08:05:39Z</time>
      </trkpt>
      <trkpt lat="42.36786" lon="2.17269">
        <ele>1313.78</ele>
        <time>2019-02-23T08:05:42Z</time>
      </trkpt>
      <trkpt lat="42.36787" lon="2.17273">
        <ele>1314.26</ele>
        <time>2019-02-23T08:05:45Z</time>
      </trkpt>
      <trkpt lat="42.36792" lon="2.17274">
        <ele>1315.7</ele>
        <time>2019-02-23T08:05:59Z</time>
      </trkpt>
      <trkpt lat="42.36792" lon="2.17266">
        <ele>1318.1</ele>
        <time>2019-02-23T08:06:07Z</time>
      </trkpt>
      <trkpt lat="42.36796" lon="2.17265">
        <ele>1321.95</ele>
        <time>2019-02-23T08:06:18Z</time>
      </trkpt>
      <trkpt lat="42.36797" lon="2.17266">
        <ele>1321.95</ele>
        <time>2019-02-23T08:06:19Z</time>
      </trkpt>
      <trkpt lat="42.36802" lon="2.17273">
        <ele>1324.35</ele>
        <time>2019-02-23T08:06:26Z</time>
      </trkpt>
      <trkpt lat="42.36813" lon="2.17278">
        <ele>1328.68</ele>
        <time>2019-02-23T08:06:38Z</time>
      </trkpt>
      <trkpt lat="42.36828" lon="2.17294">
        <ele>1331.56</ele>
        <time>2019-02-23T08:06:52Z</time>
      </trkpt>
      <trkpt lat="42.36834" lon="2.17289">
        <ele>1333.49</ele>
        <time>2019-02-23T08:06:56Z</time>
      </trkpt>
      <trkpt lat="42.36836" lon="2.17284">
        <ele>1334.93</ele>
        <time>2019-02-23T08:07:00Z</time>
      </trkpt>
      <trkpt lat="42.36837" lon="2.17278">
        <ele>1335.89</ele>
        <time>2019-02-23T08:07:03Z</time>
      </trkpt>
      <trkpt lat="42.36838" lon="2.17276">
        <ele>1337.81</ele>
        <time>2019-02-23T08:07:09Z</time>
      </trkpt>
      <trkpt lat="42.3684" lon="2.17278">
        <ele>1338.77</ele>
        <time>2019-02-23T08:07:13Z</time>
      </trkpt>
      <trkpt lat="42.36844" lon="2.17282">
        <ele>1340.22</ele>
        <time>2019-02-23T08:07:18Z</time>
      </trkpt>
      <trkpt lat="42.36848" lon="2.17285">
        <ele>1341.18</ele>
        <time>2019-02-23T08:07:21Z</time>
      </trkpt>
      <trkpt lat="42.36852" lon="2.17287">
        <ele>1342.62</ele>
        <time>2019-02-23T08:07:25Z</time>
      </trkpt>
      <trkpt lat="42.36857" lon="2.17276">
        <ele>1343.58</ele>
        <time>2019-02-23T08:07:30Z</time>
      </trkpt>
      <trkpt lat="42.36859" lon="2.17273">
        <ele>1345.5</ele>
        <time>2019-02-23T08:07:35Z</time>
      </trkpt>
      <trkpt lat="42.3686" lon="2.17273">
        <ele>1345.5</ele>
        <time>2019-02-23T08:07:36Z</time>
      </trkpt>
      <trkpt lat="42.36869" lon="2.17277">
        <ele>1348.87</ele>
        <time>2019-02-23T08:07:46Z</time>
      </trkpt>
      <trkpt lat="42.36875" lon="2.1729">
        <ele>1351.75</ele>
        <time>2019-02-23T08:07:58Z</time>
      </trkpt>
      <trkpt lat="42.36879" lon="2.17286">
        <ele>1352.71</ele>
        <time>2019-02-23T08:08:01Z</time>
      </trkpt>
      <trkpt lat="42.36885" lon="2.17289">
        <ele>1356.08</ele>
        <time>2019-02-23T08:08:11Z</time>
      </trkpt>
      <trkpt lat="42.36886" lon="2.17289">
        <ele>1357.04</ele>
        <time>2019-02-23T08:08:13Z</time>
      </trkpt>
      <trkpt lat="42.36887" lon="2.17289">
        <ele>1357.52</ele>
        <time>2019-02-23T08:08:14Z</time>
      </trkpt>
      <trkpt lat="42.36898" lon="2.17286">
        <ele>1359.92</ele>
        <time>2019-02-23T08:08:23Z</time>
      </trkpt>
      <trkpt lat="42.36906" lon="2.17262">
        <ele>1363.77</ele>
        <time>2019-02-23T08:08:36Z</time>
      </trkpt>
      <trkpt lat="42.36906" lon="2.17259">
        <ele>1364.25</ele>
        <time>2019-02-23T08:08:38Z</time>
      </trkpt>
      <trkpt lat="42.36895" lon="2.17242">
        <ele>1367.61</ele>
        <time>2019-02-23T08:08:48Z</time>
      </trkpt>
      <trkpt lat="42.36885" lon="2.17234">
        <ele>1370.5</ele>
        <time>2019-02-23T08:08:57Z</time>
      </trkpt>
      <trkpt lat="42.36882" lon="2.17221">
        <ele>1373.86</ele>
        <time>2019-02-23T08:09:07Z</time>
      </trkpt>
      <trkpt lat="42.36878" lon="2.17208">
        <ele>1376.75</ele>
        <time>2019-02-23T08:09:17Z</time>
      </trkpt>
      <trkpt lat="42.36878" lon="2.17206">
        <ele>1377.23</ele>
        <time>2019-02-23T08:09:18Z</time>
      </trkpt>
      <trkpt lat="42.36881" lon="2.17191">
        <ele>1380.11</ele>
        <time>2019-02-23T08:09:29Z</time>
      </trkpt>
      <trkpt lat="42.36884" lon="2.17185">
        <ele>1383.47</ele>
        <time>2019-02-23T08:09:39Z</time>
      </trkpt>
      <trkpt lat="42.36893" lon="2.17202">
        <ele>1386.36</ele>
        <time>2019-02-23T08:09:52Z</time>
      </trkpt>
      <trkpt lat="42.36897" lon="2.17205">
        <ele>1387.32</ele>
        <time>2019-02-23T08:09:56Z</time>
      </trkpt>
      <trkpt lat="42.36906" lon="2.17212">
        <ele>1391.65</ele>
        <time>2019-02-23T08:10:07Z</time>
      </trkpt>
      <trkpt lat="42.36911" lon="2.17214">
        <ele>1393.57</ele>
        <time>2019-02-23T08:10:12Z</time>
      </trkpt>
      <trkpt lat="42.36919" lon="2.17216">
        <ele>1396.45</ele>
        <time>2019-02-23T08:10:20Z</time>
      </trkpt>
      <trkpt lat="42.36923" lon="2.17219">
        <ele>1398.37</ele>
        <time>2019-02-23T08:10:25Z</time>
      </trkpt>
      <trkpt lat="42.36924" lon="2.1722">
        <ele>1399.82</ele>
        <time>2019-02-23T08:10:29Z</time>
      </trkpt>
      <trkpt lat="42.36931" lon="2.17223">
        <ele>1402.7</ele>
        <time>2019-02-23T08:10:36Z</time>
      </trkpt>
      <trkpt lat="42.36936" lon="2.17224">
        <ele>1404.14</ele>
        <time>2019-02-23T08:10:41Z</time>
      </trkpt>
      <trkpt lat="42.36952" lon="2.17227">
        <ele>1407.99</ele>
        <time>2019-02-23T08:10:52Z</time>
      </trkpt>
      <trkpt lat="42.36954" lon="2.17226">
        <ele>1408.47</ele>
        <time>2019-02-23T08:10:53Z</time>
      </trkpt>
      <trkpt lat="42.36961" lon="2.17221">
        <ele>1410.87</ele>
        <time>2019-02-23T08:11:03Z</time>
      </trkpt>
      <trkpt lat="42.36947" lon="2.17195">
        <ele>1414.72</ele>
        <time>2019-02-23T08:11:21Z</time>
      </trkpt>
      <trkpt lat="42.36933" lon="2.17177">
        <ele>1418.08</ele>
        <time>2019-02-23T08:11:35Z</time>
      </trkpt>
      <trkpt lat="42.36934" lon="2.17178">
        <ele>1419.04</ele>
        <time>2019-02-23T08:11:40Z</time>
      </trkpt>
      <trkpt lat="42.36938" lon="2.17181">
        <ele>1420.49</ele>
        <time>2019-02-23T08:11:43Z</time>
      </trkpt>
      <trkpt lat="42.36943" lon="2.17184">
        <ele>1421.93</ele>
        <time>2019-02-23T08:11:47Z</time>
      </trkpt>
      <trkpt lat="42.36948" lon="2.17184">
        <ele>1422.89</ele>
        <time>2019-02-23T08:11:51Z</time>
      </trkpt>
      <trkpt lat="42.36961" lon="2.17185">
        <ele>1426.25</ele>
        <time>2019-02-23T08:11:59Z</time>
      </trkpt>
      <trkpt lat="42.36963" lon="2.17183">
        <ele>1428.66</ele>
        <time>2019-02-23T08:12:06Z</time>
      </trkpt>
      <trkpt lat="42.36951" lon="2.17168">
        <ele>1432.02</ele>
        <time>2019-02-23T08:12:17Z</time>
      </trkpt>
      <trkpt lat="42.36953" lon="2.1717">
        <ele>1432.5</ele>
        <time>2019-02-23T08:12:20Z</time>
      </trkpt>
      <trkpt lat="42.36958" lon="2.17173">
        <ele>1434.42</ele>
        <time>2019-02-23T08:12:24Z</time>
      </trkpt>
      <trkpt lat="42.36962" lon="2.17179">
        <ele>1436.35</ele>
        <time>2019-02-23T08:12:28Z</time>
      </trkpt>
      <trkpt lat="42.36969" lon="2.17171">
        <ele>1438.27</ele>
        <time>2019-02-23T08:12:34Z</time>
      </trkpt>
      <trkpt lat="42.36969" lon="2.1717">
        <ele>1438.75</ele>
        <time>2019-02-23T08:12:35Z</time>
      </trkpt>
      <trkpt lat="42.36968" lon="2.17164">
        <ele>1441.15</ele>
        <time>2019-02-23T08:12:44Z</time>
      </trkpt>
      <trkpt lat="42.36972" lon="2.17168">
        <ele>1443.56</ele>
        <time>2019-02-23T08:12:49Z</time>
      </trkpt>
      <trkpt lat="42.36976" lon="2.1717">
        <ele>1444.52</ele>
        <time>2019-02-23T08:12:53Z</time>
      </trkpt>
      <trkpt lat="42.36981" lon="2.17172">
        <ele>1445.96</ele>
        <time>2019-02-23T08:12:57Z</time>
      </trkpt>
      <trkpt lat="42.36983" lon="2.17171">
        <ele>1446.92</ele>
        <time>2019-02-23T08:13:00Z</time>
      </trkpt>
      <trkpt lat="42.36985" lon="2.17168">
        <ele>1447.88</ele>
        <time>2019-02-23T08:13:02Z</time>
      </trkpt>
      <trkpt lat="42.36985" lon="2.17163">
        <ele>1448.84</ele>
        <time>2019-02-23T08:13:05Z</time>
      </trkpt>
      <trkpt lat="42.36982" lon="2.17153">
        <ele>1451.25</ele>
        <time>2019-02-23T08:13:13Z</time>
      </trkpt>
      <trkpt lat="42.3699" lon="2.1716">
        <ele>1455.57</ele>
        <time>2019-02-23T08:13:21Z</time>
      </trkpt>
      <trkpt lat="42.36991" lon="2.1716">
        <ele>1456.05</ele>
        <time>2019-02-23T08:13:22Z</time>
      </trkpt>
      <trkpt lat="42.36995" lon="2.17162">
        <ele>1457.5</ele>
        <time>2019-02-23T08:13:26Z</time>
      </trkpt>
      <trkpt lat="42.37006" lon="2.17169">
        <ele>1460.86</ele>
        <time>2019-02-23T08:13:37Z</time>
      </trkpt>
      <trkpt lat="42.3701" lon="2.17174">
        <ele>1462.78</ele>
        <time>2019-02-23T08:13:43Z</time>
      </trkpt>
      <trkpt lat="42.3701" lon="2.17166">
        <ele>1464.23</ele>
        <time>2019-02-23T08:13:50Z</time>
      </trkpt>
      <trkpt lat="42.37008" lon="2.17158">
        <ele>1465.67</ele>
        <time>2019-02-23T08:13:55Z</time>
      </trkpt>
      <trkpt lat="42.37007" lon="2.17155">
        <ele>1466.15</ele>
        <time>2019-02-23T08:13:57Z</time>
      </trkpt>
      <trkpt lat="42.37007" lon="2.17151">
        <ele>1467.59</ele>
        <time>2019-02-23T08:14:02Z</time>
      </trkpt>
      <trkpt lat="42.37014" lon="2.17149">
        <ele>1470.95</ele>
        <time>2019-02-23T08:14:12Z</time>
      </trkpt>
      <trkpt lat="42.3701" lon="2.17138">
        <ele>1472.4</ele>
        <time>2019-02-23T08:14:17Z</time>
      </trkpt>
      <trkpt lat="42.3701" lon="2.17132">
        <ele>1473.84</ele>
        <time>2019-02-23T08:14:21Z</time>
      </trkpt>
      <trkpt lat="42.37008" lon="2.17115">
        <ele>1476.72</ele>
        <time>2019-02-23T08:14:30Z</time>
      </trkpt>
      <trkpt lat="42.37011" lon="2.1712">
        <ele>1477.68</ele>
        <time>2019-02-23T08:14:35Z</time>
      </trkpt>
      <trkpt lat="42.37013" lon="2.17121">
        <ele>1478.65</ele>
        <time>2019-02-23T08:14:38Z</time>
      </trkpt>
      <trkpt lat="42.37022" lon="2.17128">
        <ele>1482.49</ele>
        <time>2019-02-23T08:14:48Z</time>
      </trkpt>
      <trkpt lat="42.37022" lon="2.17129">
        <ele>1482.49</ele>
        <time>2019-02-23T08:14:49Z</time>
      </trkpt>
      <trkpt lat="42.37027" lon="2.1713">
        <ele>1485.37</ele>
        <time>2019-02-23T08:14:59Z</time>
      </trkpt>
      <trkpt lat="42.37025" lon="2.17122">
        <ele>1487.3</ele>
        <time>2019-02-23T08:15:04Z</time>
      </trkpt>
      <trkpt lat="42.37024" lon="2.17095">
        <ele>1491.14</ele>
        <time>2019-02-23T08:15:18Z</time>
      </trkpt>
      <trkpt lat="42.37022" lon="2.17079">
        <ele>1493.55</ele>
        <time>2019-02-23T08:15:32Z</time>
      </trkpt>
      <trkpt lat="42.37017" lon="2.17075">
        <ele>1493.55</ele>
        <time>2019-02-23T08:15:37Z</time>
      </trkpt>
      <trkpt lat="42.37009" lon="2.17069">
        <ele>1496.43</ele>
        <time>2019-02-23T08:15:46Z</time>
      </trkpt>
      <trkpt lat="42.37007" lon="2.17065">
        <ele>1497.87</ele>
        <time>2019-02-23T08:15:51Z</time>
      </trkpt>
      <trkpt lat="42.37008" lon="2.1706">
        <ele>1497.87</ele>
        <time>2019-02-23T08:16:07Z</time>
      </trkpt>
      <trkpt lat="42.37008" lon="2.1706">
        <ele>1497.87</ele>
        <time>2019-02-23T08:16:31Z</time>
      </trkpt>
      <trkpt lat="42.37009" lon="2.17056">
        <ele>1497.39</ele>
        <time>2019-02-23T08:16:56Z</time>
      </trkpt>
      <trkpt lat="42.37011" lon="2.1704">
        <ele>1494.03</ele>
        <time>2019-02-23T08:17:10Z</time>
      </trkpt>
      <trkpt lat="42.37012" lon="2.17036">
        <ele>1493.55</ele>
        <time>2019-02-23T08:17:13Z</time>
      </trkpt>
      <trkpt lat="42.37017" lon="2.17009">
        <ele>1494.99</ele>
        <time>2019-02-23T08:17:31Z</time>
      </trkpt>
      <trkpt lat="42.37016" lon="2.17005">
        <ele>1494.99</ele>
        <time>2019-02-23T08:17:34Z</time>
      </trkpt>
      <trkpt lat="42.37012" lon="2.16987">
        <ele>1496.43</ele>
        <time>2019-02-23T08:17:43Z</time>
      </trkpt>
      <trkpt lat="42.37008" lon="2.16981">
        <ele>1495.47</ele>
        <time>2019-02-23T08:17:48Z</time>
      </trkpt>
      <trkpt lat="42.37008" lon="2.1697">
        <ele>1494.51</ele>
        <time>2019-02-23T08:18:06Z</time>
      </trkpt>
      <trkpt lat="42.37008" lon="2.16964">
        <ele>1493.55</ele>
        <time>2019-02-23T08:18:19Z</time>
      </trkpt>
      <trkpt lat="42.37006" lon="2.16946">
        <ele>1492.58</ele>
        <time>2019-02-23T08:18:28Z</time>
      </trkpt>
      <trkpt lat="42.37006" lon="2.16942">
        <ele>1492.1</ele>
        <time>2019-02-23T08:18:30Z</time>
      </trkpt>
      <trkpt lat="42.37006" lon="2.16931">
        <ele>1493.55</ele>
        <time>2019-02-23T08:18:37Z</time>
      </trkpt>
      <trkpt lat="42.37005" lon="2.16918">
        <ele>1496.43</ele>
        <time>2019-02-23T08:18:46Z</time>
      </trkpt>
      <trkpt lat="42.37006" lon="2.16914">
        <ele>1497.39</ele>
        <time>2019-02-23T08:18:48Z</time>
      </trkpt>
      <trkpt lat="42.37009" lon="2.16892">
        <ele>1499.79</ele>
        <time>2019-02-23T08:19:02Z</time>
      </trkpt>
      <trkpt lat="42.37006" lon="2.16882">
        <ele>1500.76</ele>
        <time>2019-02-23T08:19:10Z</time>
      </trkpt>
      <trkpt lat="42.37003" lon="2.16875">
        <ele>1501.24</ele>
        <time>2019-02-23T08:19:14Z</time>
      </trkpt>
      <trkpt lat="42.36998" lon="2.16848">
        <ele>1502.68</ele>
        <time>2019-02-23T08:19:29Z</time>
      </trkpt>
      <trkpt lat="42.36998" lon="2.16826">
        <ele>1503.16</ele>
        <time>2019-02-23T08:19:42Z</time>
      </trkpt>
      <trkpt lat="42.37" lon="2.16797">
        <ele>1503.16</ele>
        <time>2019-02-23T08:19:56Z</time>
      </trkpt>
      <trkpt lat="42.37005" lon="2.16774">
        <ele>1504.6</ele>
        <time>2019-02-23T08:20:08Z</time>
      </trkpt>
      <trkpt lat="42.37011" lon="2.16767">
        <ele>1505.56</ele>
        <time>2019-02-23T08:20:15Z</time>
      </trkpt>
      <trkpt lat="42.37013" lon="2.16764">
        <ele>1506.04</ele>
        <time>2019-02-23T08:20:18Z</time>
      </trkpt>
      <trkpt lat="42.37014" lon="2.16761">
        <ele>1506.04</ele>
        <time>2019-02-23T08:20:20Z</time>
      </trkpt>
      <trkpt lat="42.37015" lon="2.16756">
        <ele>1505.56</ele>
        <time>2019-02-23T08:20:24Z</time>
      </trkpt>
      <trkpt lat="42.37015" lon="2.16737">
        <ele>1503.64</ele>
        <time>2019-02-23T08:20:39Z</time>
      </trkpt>
      <trkpt lat="42.37014" lon="2.16727">
        <ele>1500.76</ele>
        <time>2019-02-23T08:20:49Z</time>
      </trkpt>
      <trkpt lat="42.37008" lon="2.16708">
        <ele>1501.24</ele>
        <time>2019-02-23T08:21:04Z</time>
      </trkpt>
      <trkpt lat="42.36986" lon="2.16686">
        <ele>1498.83</ele>
        <time>2019-02-23T08:21:19Z</time>
      </trkpt>
      <trkpt lat="42.36977" lon="2.16672">
        <ele>1500.27</ele>
        <time>2019-02-23T08:21:27Z</time>
      </trkpt>
      <trkpt lat="42.36977" lon="2.1666">
        <ele>1500.27</ele>
        <time>2019-02-23T08:21:31Z</time>
      </trkpt>
      <trkpt lat="42.36976" lon="2.16656">
        <ele>1499.79</ele>
        <time>2019-02-23T08:21:33Z</time>
      </trkpt>
      <trkpt lat="42.36977" lon="2.16648">
        <ele>1499.31</ele>
        <time>2019-02-23T08:21:37Z</time>
      </trkpt>
      <trkpt lat="42.36981" lon="2.16628">
        <ele>1495.95</ele>
        <time>2019-02-23T08:21:47Z</time>
      </trkpt>
      <trkpt lat="42.36984" lon="2.16599">
        <ele>1493.06</ele>
        <time>2019-02-23T08:22:02Z</time>
      </trkpt>
      <trkpt lat="42.3699" lon="2.16574">
        <ele>1492.58</ele>
        <time>2019-02-23T08:22:11Z</time>
      </trkpt>
      <trkpt lat="42.36992" lon="2.16574">
        <ele>1492.1</ele>
        <time>2019-02-23T08:22:32Z</time>
      </trkpt>
      <trkpt lat="42.36993" lon="2.16574">
        <ele>1491.62</ele>
        <time>2019-02-23T08:22:34Z</time>
      </trkpt>
      <trkpt lat="42.36995" lon="2.16574">
        <ele>1491.14</ele>
        <time>2019-02-23T08:22:36Z</time>
      </trkpt>
      <trkpt lat="42.37001" lon="2.16576">
        <ele>1488.74</ele>
        <time>2019-02-23T08:22:43Z</time>
      </trkpt>
      <trkpt lat="42.37002" lon="2.16575">
        <ele>1487.78</ele>
        <time>2019-02-23T08:22:45Z</time>
      </trkpt>
      <trkpt lat="42.37015" lon="2.1656">
        <ele>1484.89</ele>
        <time>2019-02-23T08:22:56Z</time>
      </trkpt>
      <trkpt lat="42.37026" lon="2.16548">
        <ele>1486.82</ele>
        <time>2019-02-23T08:23:05Z</time>
      </trkpt>
      <trkpt lat="42.37034" lon="2.16353">
        <ele>1494.03</ele>
        <time>2019-02-23T08:24:09Z</time>
      </trkpt>
      <trkpt lat="42.37045" lon="2.16349">
        <ele>1493.06</ele>
        <time>2019-02-23T08:24:25Z</time>
      </trkpt>
      <trkpt lat="42.37038" lon="2.1634">
        <ele>1492.1</ele>
        <time>2019-02-23T08:24:46Z</time>
      </trkpt>
      <trkpt lat="42.37037" lon="2.16346">
        <ele>1493.06</ele>
        <time>2019-02-23T08:25:01Z</time>
      </trkpt>
      <trkpt lat="42.37035" lon="2.1635">
        <ele>1493.06</ele>
        <time>2019-02-23T08:25:04Z</time>
      </trkpt>
      <trkpt lat="42.37034" lon="2.16353">
        <ele>1493.06</ele>
        <time>2019-02-23T08:25:06Z</time>
      </trkpt>
      <trkpt lat="42.37023" lon="2.16367">
        <ele>1491.14</ele>
        <time>2019-02-23T08:25:16Z</time>
      </trkpt>
      <trkpt lat="42.37019" lon="2.16384">
        <ele>1489.7</ele>
        <time>2019-02-23T08:25:28Z</time>
      </trkpt>
      <trkpt lat="42.37017" lon="2.16388">
        <ele>1489.7</ele>
        <time>2019-02-23T08:25:45Z</time>
      </trkpt>
      <trkpt lat="42.37011" lon="2.16401">
        <ele>1490.18</ele>
        <time>2019-02-23T08:25:58Z</time>
      </trkpt>
      <trkpt lat="42.37011" lon="2.16402">
        <ele>1490.18</ele>
        <time>2019-02-23T08:25:59Z</time>
      </trkpt>
      <trkpt lat="42.37011" lon="2.16407">
        <ele>1490.18</ele>
        <time>2019-02-23T08:26:02Z</time>
      </trkpt>
      <trkpt lat="42.36996" lon="2.16429">
        <ele>1493.55</ele>
        <time>2019-02-23T08:26:17Z</time>
      </trkpt>
      <trkpt lat="42.36992" lon="2.16434">
        <ele>1495.47</ele>
        <time>2019-02-23T08:26:22Z</time>
      </trkpt>
      <trkpt lat="42.36976" lon="2.1646">
        <ele>1497.87</ele>
        <time>2019-02-23T08:26:36Z</time>
      </trkpt>
      <trkpt lat="42.36961" lon="2.16475">
        <ele>1497.39</ele>
        <time>2019-02-23T08:26:51Z</time>
      </trkpt>
      <trkpt lat="42.36951" lon="2.16479">
        <ele>1496.91</ele>
        <time>2019-02-23T08:26:58Z</time>
      </trkpt>
      <trkpt lat="42.36943" lon="2.16485">
        <ele>1496.43</ele>
        <time>2019-02-23T08:27:02Z</time>
      </trkpt>
      <trkpt lat="42.36935" lon="2.16492">
        <ele>1494.99</ele>
        <time>2019-02-23T08:27:06Z</time>
      </trkpt>
      <trkpt lat="42.36917" lon="2.16524">
        <ele>1494.03</ele>
        <time>2019-02-23T08:27:22Z</time>
      </trkpt>
      <trkpt lat="42.36902" lon="2.1654">
        <ele>1490.66</ele>
        <time>2019-02-23T08:27:32Z</time>
      </trkpt>
      <trkpt lat="42.369" lon="2.16543">
        <ele>1489.7</ele>
        <time>2019-02-23T08:27:34Z</time>
      </trkpt>
      <trkpt lat="42.36876" lon="2.16554">
        <ele>1486.34</ele>
        <time>2019-02-23T08:27:48Z</time>
      </trkpt>
      <trkpt lat="42.36866" lon="2.1656">
        <ele>1484.89</ele>
        <time>2019-02-23T08:27:52Z</time>
      </trkpt>
      <trkpt lat="42.36855" lon="2.16568">
        <ele>1481.53</ele>
        <time>2019-02-23T08:27:57Z</time>
      </trkpt>
      <trkpt lat="42.36851" lon="2.16572">
        <ele>1481.05</ele>
        <time>2019-02-23T08:27:59Z</time>
      </trkpt>
      <trkpt lat="42.36837" lon="2.16589">
        <ele>1477.68</ele>
        <time>2019-02-23T08:28:05Z</time>
      </trkpt>
      <trkpt lat="42.36825" lon="2.16601">
        <ele>1474.8</ele>
        <time>2019-02-23T08:28:11Z</time>
      </trkpt>
      <trkpt lat="42.36822" lon="2.16602">
        <ele>1474.32</ele>
        <time>2019-02-23T08:28:12Z</time>
      </trkpt>
      <trkpt lat="42.36811" lon="2.16611">
        <ele>1470.95</ele>
        <time>2019-02-23T08:28:17Z</time>
      </trkpt>
      <trkpt lat="42.36809" lon="2.16613">
        <ele>1470.95</ele>
        <time>2019-02-23T08:28:18Z</time>
      </trkpt>
      <trkpt lat="42.36795" lon="2.16625">
        <ele>1467.11</ele>
        <time>2019-02-23T08:28:25Z</time>
      </trkpt>
      <trkpt lat="42.36793" lon="2.16626">
        <ele>1467.11</ele>
        <time>2019-02-23T08:28:26Z</time>
      </trkpt>
      <trkpt lat="42.36779" lon="2.16632">
        <ele>1463.74</ele>
        <time>2019-02-23T08:28:32Z</time>
      </trkpt>
      <trkpt lat="42.36764" lon="2.16638">
        <ele>1460.38</ele>
        <time>2019-02-23T08:28:38Z</time>
      </trkpt>
      <trkpt lat="42.36762" lon="2.16639">
        <ele>1460.38</ele>
        <time>2019-02-23T08:28:39Z</time>
      </trkpt>
      <trkpt lat="42.36747" lon="2.16646">
        <ele>1457.02</ele>
        <time>2019-02-23T08:28:46Z</time>
      </trkpt>
      <trkpt lat="42.36738" lon="2.16649">
        <ele>1454.61</ele>
        <time>2019-02-23T08:28:51Z</time>
      </trkpt>
      <trkpt lat="42.3673" lon="2.16655">
        <ele>1452.21</ele>
        <time>2019-02-23T08:28:56Z</time>
      </trkpt>
      <trkpt lat="42.36725" lon="2.16657">
        <ele>1452.21</ele>
        <time>2019-02-23T08:29:00Z</time>
      </trkpt>
      <trkpt lat="42.36719" lon="2.16656">
        <ele>1450.77</ele>
        <time>2019-02-23T08:29:04Z</time>
      </trkpt>
      <trkpt lat="42.36709" lon="2.16661">
        <ele>1447.88</ele>
        <time>2019-02-23T08:29:10Z</time>
      </trkpt>
      <trkpt lat="42.36683" lon="2.16675">
        <ele>1446.44</ele>
        <time>2019-02-23T08:29:23Z</time>
      </trkpt>
      <trkpt lat="42.36656" lon="2.16678">
        <ele>1449.81</ele>
        <time>2019-02-23T08:29:33Z</time>
      </trkpt>
      <trkpt lat="42.36644" lon="2.16677">
        <ele>1451.73</ele>
        <time>2019-02-23T08:29:39Z</time>
      </trkpt>
      <trkpt lat="42.36612" lon="2.16693">
        <ele>1453.65</ele>
        <time>2019-02-23T08:29:56Z</time>
      </trkpt>
      <trkpt lat="42.366" lon="2.16704">
        <ele>1454.13</ele>
        <time>2019-02-23T08:30:10Z</time>
      </trkpt>
      <trkpt lat="42.36593" lon="2.16714">
        <ele>1451.25</ele>
        <time>2019-02-23T08:30:20Z</time>
      </trkpt>
      <trkpt lat="42.36589" lon="2.16721">
        <ele>1448.36</ele>
        <time>2019-02-23T08:30:31Z</time>
      </trkpt>
      <trkpt lat="42.36588" lon="2.16722">
        <ele>1446.92</ele>
        <time>2019-02-23T08:30:46Z</time>
      </trkpt>
      <trkpt lat="42.36586" lon="2.16724">
        <ele>1447.4</ele>
        <time>2019-02-23T08:30:49Z</time>
      </trkpt>
      <trkpt lat="42.36569" lon="2.1674">
        <ele>1449.81</ele>
        <time>2019-02-23T08:31:00Z</time>
      </trkpt>
      <trkpt lat="42.36553" lon="2.16758">
        <ele>1452.21</ele>
        <time>2019-02-23T08:31:11Z</time>
      </trkpt>
      <trkpt lat="42.36547" lon="2.16783">
        <ele>1455.09</ele>
        <time>2019-02-23T08:31:25Z</time>
      </trkpt>
      <trkpt lat="42.36546" lon="2.16785">
        <ele>1455.57</ele>
        <time>2019-02-23T08:31:27Z</time>
      </trkpt>
      <trkpt lat="42.36531" lon="2.16803">
        <ele>1452.69</ele>
        <time>2019-02-23T08:31:39Z</time>
      </trkpt>
      <trkpt lat="42.36519" lon="2.16824">
        <ele>1451.73</ele>
        <time>2019-02-23T08:31:52Z</time>
      </trkpt>
      <trkpt lat="42.36493" lon="2.16827">
        <ele>1455.09</ele>
        <time>2019-02-23T08:32:03Z</time>
      </trkpt>
      <trkpt lat="42.36464" lon="2.16807">
        <ele>1457.98</ele>
        <time>2019-02-23T08:32:18Z</time>
      </trkpt>
      <trkpt lat="42.36436" lon="2.16811">
        <ele>1455.57</ele>
        <time>2019-02-23T08:32:35Z</time>
      </trkpt>
      <trkpt lat="42.36434" lon="2.16812">
        <ele>1455.57</ele>
        <time>2019-02-23T08:32:52Z</time>
      </trkpt>
      <trkpt lat="42.36425" lon="2.16819">
        <ele>1457.02</ele>
        <time>2019-02-23T08:33:07Z</time>
      </trkpt>
      <trkpt lat="42.36424" lon="2.1682">
        <ele>1456.53</ele>
        <time>2019-02-23T08:33:10Z</time>
      </trkpt>
      <trkpt lat="42.36418" lon="2.16824">
        <ele>1455.57</ele>
        <time>2019-02-23T08:33:19Z</time>
      </trkpt>
      <trkpt lat="42.36411" lon="2.16843">
        <ele>1452.69</ele>
        <time>2019-02-23T08:33:34Z</time>
      </trkpt>
      <trkpt lat="42.36396" lon="2.16873">
        <ele>1453.17</ele>
        <time>2019-02-23T08:33:48Z</time>
      </trkpt>
      <trkpt lat="42.36379" lon="2.16896">
        <ele>1451.73</ele>
        <time>2019-02-23T08:33:55Z</time>
      </trkpt>
      <trkpt lat="42.36349" lon="2.16888">
        <ele>1451.25</ele>
        <time>2019-02-23T08:34:04Z</time>
      </trkpt>
      <trkpt lat="42.36322" lon="2.16849">
        <ele>1449.32</ele>
        <time>2019-02-23T08:34:21Z</time>
      </trkpt>
      <trkpt lat="42.36316" lon="2.16844">
        <ele>1448.36</ele>
        <time>2019-02-23T08:34:26Z</time>
      </trkpt>
      <trkpt lat="42.36312" lon="2.16834">
        <ele>1450.77</ele>
        <time>2019-02-23T08:34:32Z</time>
      </trkpt>
      <trkpt lat="42.36305" lon="2.16827">
        <ele>1451.25</ele>
        <time>2019-02-23T08:34:41Z</time>
      </trkpt>
      <trkpt lat="42.36303" lon="2.16822">
        <ele>1451.73</ele>
        <time>2019-02-23T08:34:44Z</time>
      </trkpt>
      <trkpt lat="42.36299" lon="2.16814">
        <ele>1453.17</ele>
        <time>2019-02-23T08:34:50Z</time>
      </trkpt>
      <trkpt lat="42.36287" lon="2.16808">
        <ele>1451.73</ele>
        <time>2019-02-23T08:35:06Z</time>
      </trkpt>
      <trkpt lat="42.36286" lon="2.16804">
        <ele>1451.25</ele>
        <time>2019-02-23T08:35:34Z</time>
      </trkpt>
      <trkpt lat="42.36277" lon="2.16798">
        <ele>1450.29</ele>
        <time>2019-02-23T08:35:44Z</time>
      </trkpt>
      <trkpt lat="42.3627" lon="2.16794">
        <ele>1449.32</ele>
        <time>2019-02-23T08:36:00Z</time>
      </trkpt>
      <trkpt lat="42.36263" lon="2.1679">
        <ele>1447.4</ele>
        <time>2019-02-23T08:36:04Z</time>
      </trkpt>
      <trkpt lat="42.36254" lon="2.16784">
        <ele>1445</ele>
        <time>2019-02-23T08:36:09Z</time>
      </trkpt>
      <trkpt lat="42.36241" lon="2.16777">
        <ele>1441.63</ele>
        <time>2019-02-23T08:36:15Z</time>
      </trkpt>
      <trkpt lat="42.3623" lon="2.16769">
        <ele>1438.27</ele>
        <time>2019-02-23T08:36:19Z</time>
      </trkpt>
      <trkpt lat="42.36225" lon="2.16765">
        <ele>1437.31</ele>
        <time>2019-02-23T08:36:21Z</time>
      </trkpt>
      <trkpt lat="42.36212" lon="2.16754">
        <ele>1433.94</ele>
        <time>2019-02-23T08:36:26Z</time>
      </trkpt>
      <trkpt lat="42.36211" lon="2.16753">
        <ele>1433.46</ele>
        <time>2019-02-23T08:36:27Z</time>
      </trkpt>
      <trkpt lat="42.36204" lon="2.16747">
        <ele>1431.54</ele>
        <time>2019-02-23T08:36:30Z</time>
      </trkpt>
      <trkpt lat="42.36196" lon="2.16739">
        <ele>1429.14</ele>
        <time>2019-02-23T08:36:35Z</time>
      </trkpt>
      <trkpt lat="42.3619" lon="2.16732">
        <ele>1427.21</ele>
        <time>2019-02-23T08:36:38Z</time>
      </trkpt>
      <trkpt lat="42.36186" lon="2.16727">
        <ele>1426.25</ele>
        <time>2019-02-23T08:36:40Z</time>
      </trkpt>
      <trkpt lat="42.36163" lon="2.16698">
        <ele>1422.89</ele>
        <time>2019-02-23T08:36:51Z</time>
      </trkpt>
      <trkpt lat="42.36157" lon="2.16694">
        <ele>1421.93</ele>
        <time>2019-02-23T08:36:53Z</time>
      </trkpt>
      <trkpt lat="42.36143" lon="2.16684">
        <ele>1418.56</ele>
        <time>2019-02-23T08:36:58Z</time>
      </trkpt>
      <trkpt lat="42.3613" lon="2.16676">
        <ele>1417.12</ele>
        <time>2019-02-23T08:37:02Z</time>
      </trkpt>
      <trkpt lat="42.36112" lon="2.1666">
        <ele>1413.76</ele>
        <time>2019-02-23T08:37:10Z</time>
      </trkpt>
      <trkpt lat="42.36105" lon="2.16653">
        <ele>1411.83</ele>
        <time>2019-02-23T08:37:14Z</time>
      </trkpt>
      <trkpt lat="42.361" lon="2.16649">
        <ele>1408.47</ele>
        <time>2019-02-23T08:37:23Z</time>
      </trkpt>
      <trkpt lat="42.36106" lon="2.16661">
        <ele>1406.55</ele>
        <time>2019-02-23T08:37:27Z</time>
      </trkpt>
      <trkpt lat="42.36111" lon="2.16685">
        <ele>1404.14</ele>
        <time>2019-02-23T08:37:32Z</time>
      </trkpt>
      <trkpt lat="42.36099" lon="2.16687">
        <ele>1400.78</ele>
        <time>2019-02-23T08:37:38Z</time>
      </trkpt>
      <trkpt lat="42.36091" lon="2.16686">
        <ele>1398.37</ele>
        <time>2019-02-23T08:37:42Z</time>
      </trkpt>
      <trkpt lat="42.36083" lon="2.16687">
        <ele>1395.49</ele>
        <time>2019-02-23T08:37:47Z</time>
      </trkpt>
      <trkpt lat="42.36077" lon="2.16691">
        <ele>1392.61</ele>
        <time>2019-02-23T08:37:53Z</time>
      </trkpt>
      <trkpt lat="42.36074" lon="2.16692">
        <ele>1392.61</ele>
        <time>2019-02-23T08:37:55Z</time>
      </trkpt>
      <trkpt lat="42.36063" lon="2.16686">
        <ele>1390.2</ele>
        <time>2019-02-23T08:38:00Z</time>
      </trkpt>
      <trkpt lat="42.36055" lon="2.16687">
        <ele>1386.36</ele>
        <time>2019-02-23T08:38:05Z</time>
      </trkpt>
      <trkpt lat="42.36055" lon="2.16691">
        <ele>1385.4</ele>
        <time>2019-02-23T08:38:07Z</time>
      </trkpt>
      <trkpt lat="42.36049" lon="2.16691">
        <ele>1383.47</ele>
        <time>2019-02-23T08:38:11Z</time>
      </trkpt>
      <trkpt lat="42.36038" lon="2.16688">
        <ele>1380.11</ele>
        <time>2019-02-23T08:38:17Z</time>
      </trkpt>
      <trkpt lat="42.36032" lon="2.16676">
        <ele>1376.75</ele>
        <time>2019-02-23T08:38:23Z</time>
      </trkpt>
      <trkpt lat="42.36028" lon="2.16661">
        <ele>1373.86</ele>
        <time>2019-02-23T08:38:29Z</time>
      </trkpt>
      <trkpt lat="42.36028" lon="2.16659">
        <ele>1372.9</ele>
        <time>2019-02-23T08:38:30Z</time>
      </trkpt>
      <trkpt lat="42.36028" lon="2.16646">
        <ele>1369.54</ele>
        <time>2019-02-23T08:38:36Z</time>
      </trkpt>
      <trkpt lat="42.36027" lon="2.16624">
        <ele>1366.65</ele>
        <time>2019-02-23T08:38:42Z</time>
      </trkpt>
      <trkpt lat="42.36027" lon="2.16597">
        <ele>1363.29</ele>
        <time>2019-02-23T08:38:49Z</time>
      </trkpt>
      <trkpt lat="42.36" lon="2.16583">
        <ele>1359.92</ele>
        <time>2019-02-23T08:39:00Z</time>
      </trkpt>
      <trkpt lat="42.35966" lon="2.16547">
        <ele>1357.52</ele>
        <time>2019-02-23T08:39:16Z</time>
      </trkpt>
      <trkpt lat="42.35933" lon="2.16525">
        <ele>1354.15</ele>
        <time>2019-02-23T08:39:28Z</time>
      </trkpt>
      <trkpt lat="42.3591" lon="2.16497">
        <ele>1351.27</ele>
        <time>2019-02-23T08:39:36Z</time>
      </trkpt>
      <trkpt lat="42.35909" lon="2.16496">
        <ele>1351.27</ele>
        <time>2019-02-23T08:39:37Z</time>
      </trkpt>
      <trkpt lat="42.35901" lon="2.16482">
        <ele>1348.39</ele>
        <time>2019-02-23T08:39:41Z</time>
      </trkpt>
      <trkpt lat="42.3589" lon="2.16468">
        <ele>1345.5</ele>
        <time>2019-02-23T08:39:45Z</time>
      </trkpt>
      <trkpt lat="42.35878" lon="2.16448">
        <ele>1342.14</ele>
        <time>2019-02-23T08:39:50Z</time>
      </trkpt>
      <trkpt lat="42.35866" lon="2.16429">
        <ele>1338.77</ele>
        <time>2019-02-23T08:39:55Z</time>
      </trkpt>
      <trkpt lat="42.3586" lon="2.16413">
        <ele>1335.41</ele>
        <time>2019-02-23T08:40:01Z</time>
      </trkpt>
      <trkpt lat="42.35859" lon="2.16407">
        <ele>1333.01</ele>
        <time>2019-02-23T08:40:03Z</time>
      </trkpt>
      <trkpt lat="42.3585" lon="2.1639">
        <ele>1329.64</ele>
        <time>2019-02-23T08:40:10Z</time>
      </trkpt>
      <trkpt lat="42.35847" lon="2.16386">
        <ele>1328.2</ele>
        <time>2019-02-23T08:40:12Z</time>
      </trkpt>
      <trkpt lat="42.35842" lon="2.16376">
        <ele>1324.83</ele>
        <time>2019-02-23T08:40:18Z</time>
      </trkpt>
      <trkpt lat="42.35828" lon="2.16368">
        <ele>1326.76</ele>
        <time>2019-02-23T08:40:29Z</time>
      </trkpt>
      <trkpt lat="42.35818" lon="2.16373">
        <ele>1323.87</ele>
        <time>2019-02-23T08:40:36Z</time>
      </trkpt>
      <trkpt lat="42.35789" lon="2.16415">
        <ele>1323.39</ele>
        <time>2019-02-23T08:40:51Z</time>
      </trkpt>
      <trkpt lat="42.35761" lon="2.16435">
        <ele>1325.8</ele>
        <time>2019-02-23T08:41:07Z</time>
      </trkpt>
      <trkpt lat="42.35762" lon="2.16434">
        <ele>1326.28</ele>
        <time>2019-02-23T08:41:31Z</time>
      </trkpt>
      <trkpt lat="42.35766" lon="2.16432">
        <ele>1326.28</ele>
        <time>2019-02-23T08:41:56Z</time>
      </trkpt>
      <trkpt lat="42.35767" lon="2.16429">
        <ele>1326.76</ele>
        <time>2019-02-23T08:42:21Z</time>
      </trkpt>
      <trkpt lat="42.35767" lon="2.16428">
        <ele>1327.24</ele>
        <time>2019-02-23T08:42:39Z</time>
      </trkpt>
      <trkpt lat="42.35758" lon="2.16431">
        <ele>1327.72</ele>
        <time>2019-02-23T08:43:02Z</time>
      </trkpt>
      <trkpt lat="42.35753" lon="2.16434">
        <ele>1327.72</ele>
        <time>2019-02-23T08:43:26Z</time>
      </trkpt>
      <trkpt lat="42.35753" lon="2.16434">
        <ele>1328.68</ele>
        <time>2019-02-23T08:43:44Z</time>
      </trkpt>
      <trkpt lat="42.35753" lon="2.16434">
        <ele>1328.68</ele>
        <time>2019-02-23T08:44:11Z</time>
      </trkpt>
      <trkpt lat="42.35753" lon="2.16434">
        <ele>1330.6</ele>
        <time>2019-02-23T08:44:31Z</time>
      </trkpt>
      <trkpt lat="42.35753" lon="2.16434">
        <ele>1330.12</ele>
        <time>2019-02-23T08:45:04Z</time>
      </trkpt>
      <trkpt lat="42.35753" lon="2.16434">
        <ele>1331.08</ele>
        <time>2019-02-23T08:45:38Z</time>
      </trkpt>
      <trkpt lat="42.35753" lon="2.16434">
        <ele>1331.08</ele>
        <time>2019-02-23T08:46:02Z</time>
      </trkpt>
      <trkpt lat="42.35753" lon="2.16434">
        <ele>1331.56</ele>
        <time>2019-02-23T08:46:30Z</time>
      </trkpt>
      <trkpt lat="42.35753" lon="2.16434">
        <ele>1332.04</ele>
        <time>2019-02-23T08:47:02Z</time>
      </trkpt>
      <trkpt lat="42.35753" lon="2.16434">
        <ele>1332.52</ele>
        <time>2019-02-23T08:47:28Z</time>
      </trkpt>
      <trkpt lat="42.35753" lon="2.16434">
        <ele>1333.01</ele>
        <time>2019-02-23T08:48:03Z</time>
      </trkpt>
      <trkpt lat="42.35753" lon="2.16434">
        <ele>1333.97</ele>
        <time>2019-02-23T08:48:28Z</time>
      </trkpt>
      <trkpt lat="42.35754" lon="2.16435">
        <ele>1334.93</ele>
        <time>2019-02-23T08:48:52Z</time>
      </trkpt>
      <trkpt lat="42.35755" lon="2.1643">
        <ele>1334.93</ele>
        <time>2019-02-23T08:49:16Z</time>
      </trkpt>
      <trkpt lat="42.35745" lon="2.16431">
        <ele>1337.33</ele>
        <time>2019-02-23T08:49:32Z</time>
      </trkpt>
      <trkpt lat="42.3574" lon="2.16434">
        <ele>1337.81</ele>
        <time>2019-02-23T08:49:36Z</time>
      </trkpt>
      <trkpt lat="42.3573" lon="2.1646">
        <ele>1338.77</ele>
        <time>2019-02-23T08:49:53Z</time>
      </trkpt>
      <trkpt lat="42.35714" lon="2.16461">
        <ele>1340.7</ele>
        <time>2019-02-23T08:50:09Z</time>
      </trkpt>
      <trkpt lat="42.35695" lon="2.16468">
        <ele>1342.14</ele>
        <time>2019-02-23T08:50:24Z</time>
      </trkpt>
      <trkpt lat="42.35668" lon="2.16496">
        <ele>1341.18</ele>
        <time>2019-02-23T08:50:36Z</time>
      </trkpt>
      <trkpt lat="42.35634" lon="2.16529">
        <ele>1342.62</ele>
        <time>2019-02-23T08:50:50Z</time>
      </trkpt>
      <trkpt lat="42.3561" lon="2.1654">
        <ele>1339.73</ele>
        <time>2019-02-23T08:50:58Z</time>
      </trkpt>
      <trkpt lat="42.35601" lon="2.16544">
        <ele>1338.29</ele>
        <time>2019-02-23T08:51:01Z</time>
      </trkpt>
      <trkpt lat="42.35578" lon="2.16539">
        <ele>1334.93</ele>
        <time>2019-02-23T08:51:14Z</time>
      </trkpt>
      <trkpt lat="42.35564" lon="2.16538">
        <ele>1332.52</ele>
        <time>2019-02-23T08:51:21Z</time>
      </trkpt>
      <trkpt lat="42.35548" lon="2.16538">
        <ele>1329.16</ele>
        <time>2019-02-23T08:51:29Z</time>
      </trkpt>
      <trkpt lat="42.35545" lon="2.16538">
        <ele>1328.2</ele>
        <time>2019-02-23T08:51:31Z</time>
      </trkpt>
      <trkpt lat="42.35533" lon="2.16537">
        <ele>1324.83</ele>
        <time>2019-02-23T08:51:38Z</time>
      </trkpt>
      <trkpt lat="42.35525" lon="2.16537">
        <ele>1321.47</ele>
        <time>2019-02-23T08:51:44Z</time>
      </trkpt>
      <trkpt lat="42.35512" lon="2.16534">
        <ele>1318.1</ele>
        <time>2019-02-23T08:51:53Z</time>
      </trkpt>
      <trkpt lat="42.35509" lon="2.16532">
        <ele>1318.1</ele>
        <time>2019-02-23T08:51:54Z</time>
      </trkpt>
      <trkpt lat="42.35503" lon="2.16529">
        <ele>1316.18</ele>
        <time>2019-02-23T08:51:57Z</time>
      </trkpt>
      <trkpt lat="42.35493" lon="2.16524">
        <ele>1314.26</ele>
        <time>2019-02-23T08:52:02Z</time>
      </trkpt>
      <trkpt lat="42.35482" lon="2.16517">
        <ele>1310.41</ele>
        <time>2019-02-23T08:52:09Z</time>
      </trkpt>
      <trkpt lat="42.35475" lon="2.16514">
        <ele>1307.05</ele>
        <time>2019-02-23T08:52:13Z</time>
      </trkpt>
      <trkpt lat="42.35469" lon="2.16511">
        <ele>1304.65</ele>
        <time>2019-02-23T08:52:16Z</time>
      </trkpt>
      <trkpt lat="42.35447" lon="2.16492">
        <ele>1302.24</ele>
        <time>2019-02-23T08:52:25Z</time>
      </trkpt>
      <trkpt lat="42.35442" lon="2.16481">
        <ele>1300.32</ele>
        <time>2019-02-23T08:52:28Z</time>
      </trkpt>
      <trkpt lat="42.35437" lon="2.16469">
        <ele>1299.36</ele>
        <time>2019-02-23T08:52:31Z</time>
      </trkpt>
      <trkpt lat="42.3543" lon="2.16453">
        <ele>1297.44</ele>
        <time>2019-02-23T08:52:35Z</time>
      </trkpt>
      <trkpt lat="42.35396" lon="2.16408">
        <ele>1299.84</ele>
        <time>2019-02-23T08:52:51Z</time>
      </trkpt>
      <trkpt lat="42.35385" lon="2.16407">
        <ele>1296.48</ele>
        <time>2019-02-23T08:52:57Z</time>
      </trkpt>
      <trkpt lat="42.35383" lon="2.16406">
        <ele>1296.48</ele>
        <time>2019-02-23T08:52:58Z</time>
      </trkpt>
      <trkpt lat="42.35368" lon="2.16396">
        <ele>1293.59</ele>
        <time>2019-02-23T08:53:13Z</time>
      </trkpt>
      <trkpt lat="42.35348" lon="2.1639">
        <ele>1290.71</ele>
        <time>2019-02-23T08:53:23Z</time>
      </trkpt>
      <trkpt lat="42.35304" lon="2.16371">
        <ele>1287.34</ele>
        <time>2019-02-23T08:53:38Z</time>
      </trkpt>
      <trkpt lat="42.3527" lon="2.16359">
        <ele>1283.98</ele>
        <time>2019-02-23T08:53:47Z</time>
      </trkpt>
      <trkpt lat="42.35248" lon="2.16353">
        <ele>1281.09</ele>
        <time>2019-02-23T08:53:55Z</time>
      </trkpt>
      <trkpt lat="42.35233" lon="2.1635">
        <ele>1277.73</ele>
        <time>2019-02-23T08:54:01Z</time>
      </trkpt>
      <trkpt lat="42.35221" lon="2.16346">
        <ele>1275.81</ele>
        <time>2019-02-23T08:54:05Z</time>
      </trkpt>
      <trkpt lat="42.3521" lon="2.16345">
        <ele>1272.44</ele>
        <time>2019-02-23T08:54:10Z</time>
      </trkpt>
      <trkpt lat="42.35209" lon="2.16347">
        <ele>1272.44</ele>
        <time>2019-02-23T08:54:11Z</time>
      </trkpt>
      <trkpt lat="42.3521" lon="2.16351">
        <ele>1271.48</ele>
        <time>2019-02-23T08:54:13Z</time>
      </trkpt>
      <trkpt lat="42.35212" lon="2.16355">
        <ele>1267.16</ele>
        <time>2019-02-23T08:54:20Z</time>
      </trkpt>
      <trkpt lat="42.35204" lon="2.16353">
        <ele>1265.23</ele>
        <time>2019-02-23T08:54:23Z</time>
      </trkpt>
      <trkpt lat="42.35191" lon="2.16351">
        <ele>1261.87</ele>
        <time>2019-02-23T08:54:27Z</time>
      </trkpt>
      <trkpt lat="42.35175" lon="2.16352">
        <ele>1257.54</ele>
        <time>2019-02-23T08:54:33Z</time>
      </trkpt>
      <trkpt lat="42.35173" lon="2.16357">
        <ele>1256.1</ele>
        <time>2019-02-23T08:54:35Z</time>
      </trkpt>
      <trkpt lat="42.35174" lon="2.16366">
        <ele>1253.7</ele>
        <time>2019-02-23T08:54:39Z</time>
      </trkpt>
      <trkpt lat="42.35172" lon="2.16372">
        <ele>1252.74</ele>
        <time>2019-02-23T08:54:41Z</time>
      </trkpt>
      <trkpt lat="42.35168" lon="2.16378">
        <ele>1248.89</ele>
        <time>2019-02-23T08:54:45Z</time>
      </trkpt>
      <trkpt lat="42.35165" lon="2.16379">
        <ele>1249.37</ele>
        <time>2019-02-23T08:54:46Z</time>
      </trkpt>
      <trkpt lat="42.35154" lon="2.1638">
        <ele>1247.45</ele>
        <time>2019-02-23T08:54:49Z</time>
      </trkpt>
      <trkpt lat="42.35146" lon="2.1638">
        <ele>1246.01</ele>
        <time>2019-02-23T08:54:52Z</time>
      </trkpt>
      <trkpt lat="42.35131" lon="2.16378">
        <ele>1242.16</ele>
        <time>2019-02-23T08:54:58Z</time>
      </trkpt>
      <trkpt lat="42.35107" lon="2.16356">
        <ele>1238.8</ele>
        <time>2019-02-23T08:55:07Z</time>
      </trkpt>
      <trkpt lat="42.351" lon="2.16357">
        <ele>1237.35</ele>
        <time>2019-02-23T08:55:09Z</time>
      </trkpt>
      <trkpt lat="42.35089" lon="2.16377">
        <ele>1235.43</ele>
        <time>2019-02-23T08:55:14Z</time>
      </trkpt>
      <trkpt lat="42.35086" lon="2.16384">
        <ele>1233.99</ele>
        <time>2019-02-23T08:55:16Z</time>
      </trkpt>
      <trkpt lat="42.3507" lon="2.16405">
        <ele>1230.62</ele>
        <time>2019-02-23T08:55:22Z</time>
      </trkpt>
      <trkpt lat="42.35064" lon="2.16409">
        <ele>1229.18</ele>
        <time>2019-02-23T08:55:24Z</time>
      </trkpt>
      <trkpt lat="42.35048" lon="2.16399">
        <ele>1226.3</ele>
        <time>2019-02-23T08:55:30Z</time>
      </trkpt>
      <trkpt lat="42.35027" lon="2.16394">
        <ele>1222.93</ele>
        <time>2019-02-23T08:55:35Z</time>
      </trkpt>
      <trkpt lat="42.34996" lon="2.16362">
        <ele>1220.05</ele>
        <time>2019-02-23T08:55:50Z</time>
      </trkpt>
      <trkpt lat="42.35" lon="2.16298">
        <ele>1221.49</ele>
        <time>2019-02-23T08:56:04Z</time>
      </trkpt>
      <trkpt lat="42.34991" lon="2.16288">
        <ele>1221.97</ele>
        <time>2019-02-23T08:56:13Z</time>
      </trkpt>
      <trkpt lat="42.34984" lon="2.16292">
        <ele>1221.97</ele>
        <time>2019-02-23T08:56:29Z</time>
      </trkpt>
      <trkpt lat="42.34978" lon="2.16292">
        <ele>1222.93</ele>
        <time>2019-02-23T08:56:55Z</time>
      </trkpt>
      <trkpt lat="42.34964" lon="2.16291">
        <ele>1223.42</ele>
        <time>2019-02-23T08:57:06Z</time>
      </trkpt>
      <trkpt lat="42.3494" lon="2.1628">
        <ele>1224.38</ele>
        <time>2019-02-23T08:57:26Z</time>
      </trkpt>
      <trkpt lat="42.34939" lon="2.16278">
        <ele>1224.86</ele>
        <time>2019-02-23T08:57:29Z</time>
      </trkpt>
      <trkpt lat="42.34935" lon="2.16274">
        <ele>1225.34</ele>
        <time>2019-02-23T08:57:34Z</time>
      </trkpt>
      <trkpt lat="42.34917" lon="2.16248">
        <ele>1228.22</ele>
        <time>2019-02-23T08:57:54Z</time>
      </trkpt>
      <trkpt lat="42.34913" lon="2.1624">
        <ele>1228.7</ele>
        <time>2019-02-23T08:58:00Z</time>
      </trkpt>
      <trkpt lat="42.34901" lon="2.16217">
        <ele>1232.55</ele>
        <time>2019-02-23T08:58:15Z</time>
      </trkpt>
      <trkpt lat="42.34895" lon="2.16189">
        <ele>1235.43</ele>
        <time>2019-02-23T08:58:30Z</time>
      </trkpt>
      <trkpt lat="42.34894" lon="2.16186">
        <ele>1235.91</ele>
        <time>2019-02-23T08:58:42Z</time>
      </trkpt>
      <trkpt lat="42.34894" lon="2.16185">
        <ele>1235.91</ele>
        <time>2019-02-23T08:58:45Z</time>
      </trkpt>
      <trkpt lat="42.34891" lon="2.16176">
        <ele>1235.43</ele>
        <time>2019-02-23T08:58:50Z</time>
      </trkpt>
      <trkpt lat="42.34869" lon="2.16125">
        <ele>1236.87</ele>
        <time>2019-02-23T08:59:08Z</time>
      </trkpt>
      <trkpt lat="42.34839" lon="2.1608">
        <ele>1240.24</ele>
        <time>2019-02-23T08:59:23Z</time>
      </trkpt>
      <trkpt lat="42.34829" lon="2.16063">
        <ele>1243.12</ele>
        <time>2019-02-23T08:59:31Z</time>
      </trkpt>
      <trkpt lat="42.34823" lon="2.16049">
        <ele>1246.01</ele>
        <time>2019-02-23T08:59:40Z</time>
      </trkpt>
      <trkpt lat="42.3481" lon="2.16034">
        <ele>1248.89</ele>
        <time>2019-02-23T08:59:51Z</time>
      </trkpt>
      <trkpt lat="42.34794" lon="2.1601">
        <ele>1251.29</ele>
        <time>2019-02-23T09:00:05Z</time>
      </trkpt>
      <trkpt lat="42.34792" lon="2.16004">
        <ele>1251.29</ele>
        <time>2019-02-23T09:00:09Z</time>
      </trkpt>
      <trkpt lat="42.34788" lon="2.15988">
        <ele>1252.74</ele>
        <time>2019-02-23T09:00:18Z</time>
      </trkpt>
      <trkpt lat="42.3477" lon="2.15961">
        <ele>1255.62</ele>
        <time>2019-02-23T09:00:33Z</time>
      </trkpt>
      <trkpt lat="42.34743" lon="2.15933">
        <ele>1256.58</ele>
        <time>2019-02-23T09:00:47Z</time>
      </trkpt>
      <trkpt lat="42.34724" lon="2.15906">
        <ele>1259.46</ele>
        <time>2019-02-23T09:01:00Z</time>
      </trkpt>
      <trkpt lat="42.34715" lon="2.15886">
        <ele>1262.35</ele>
        <time>2019-02-23T09:01:12Z</time>
      </trkpt>
      <trkpt lat="42.34722" lon="2.15869">
        <ele>1265.71</ele>
        <time>2019-02-23T09:01:19Z</time>
      </trkpt>
      <trkpt lat="42.34723" lon="2.15865">
        <ele>1266.67</ele>
        <time>2019-02-23T09:01:21Z</time>
      </trkpt>
      <trkpt lat="42.34725" lon="2.15845">
        <ele>1270.04</ele>
        <time>2019-02-23T09:01:30Z</time>
      </trkpt>
      <trkpt lat="42.34725" lon="2.15833">
        <ele>1273.4</ele>
        <time>2019-02-23T09:01:37Z</time>
      </trkpt>
      <trkpt lat="42.34725" lon="2.15831">
        <ele>1273.4</ele>
        <time>2019-02-23T09:01:38Z</time>
      </trkpt>
      <trkpt lat="42.34724" lon="2.15819">
        <ele>1276.77</ele>
        <time>2019-02-23T09:01:45Z</time>
      </trkpt>
      <trkpt lat="42.34724" lon="2.15802">
        <ele>1280.13</ele>
        <time>2019-02-23T09:01:55Z</time>
      </trkpt>
      <trkpt lat="42.34721" lon="2.15789">
        <ele>1283.02</ele>
        <time>2019-02-23T09:02:04Z</time>
      </trkpt>
      <trkpt lat="42.34719" lon="2.15773">
        <ele>1286.38</ele>
        <time>2019-02-23T09:02:15Z</time>
      </trkpt>
      <trkpt lat="42.34712" lon="2.15755">
        <ele>1289.75</ele>
        <time>2019-02-23T09:02:27Z</time>
      </trkpt>
      <trkpt lat="42.3471" lon="2.15741">
        <ele>1291.19</ele>
        <time>2019-02-23T09:02:35Z</time>
      </trkpt>
      <trkpt lat="42.3471" lon="2.15722">
        <ele>1294.55</ele>
        <time>2019-02-23T09:02:45Z</time>
      </trkpt>
      <trkpt lat="42.34711" lon="2.15702">
        <ele>1297.92</ele>
        <time>2019-02-23T09:02:55Z</time>
      </trkpt>
      <trkpt lat="42.34714" lon="2.15683">
        <ele>1301.28</ele>
        <time>2019-02-23T09:03:05Z</time>
      </trkpt>
      <trkpt lat="42.34715" lon="2.15673">
        <ele>1302.72</ele>
        <time>2019-02-23T09:03:10Z</time>
      </trkpt>
      <trkpt lat="42.34716" lon="2.15669">
        <ele>1303.69</ele>
        <time>2019-02-23T09:03:13Z</time>
      </trkpt>
      <trkpt lat="42.34718" lon="2.15658">
        <ele>1306.09</ele>
        <time>2019-02-23T09:03:20Z</time>
      </trkpt>
      <trkpt lat="42.34718" lon="2.15656">
        <ele>1305.61</ele>
        <time>2019-02-23T09:03:24Z</time>
      </trkpt>
      <trkpt lat="42.3473" lon="2.15627">
        <ele>1308.49</ele>
        <time>2019-02-23T09:03:42Z</time>
      </trkpt>
      <trkpt lat="42.34736" lon="2.15609">
        <ele>1311.38</ele>
        <time>2019-02-23T09:03:53Z</time>
      </trkpt>
      <trkpt lat="42.34739" lon="2.15589">
        <ele>1312.34</ele>
        <time>2019-02-23T09:04:03Z</time>
      </trkpt>
      <trkpt lat="42.34742" lon="2.15552">
        <ele>1313.78</ele>
        <time>2019-02-23T09:04:17Z</time>
      </trkpt>
      <trkpt lat="42.34745" lon="2.15501">
        <ele>1316.66</ele>
        <time>2019-02-23T09:04:32Z</time>
      </trkpt>
      <trkpt lat="42.34743" lon="2.15445">
        <ele>1318.59</ele>
        <time>2019-02-23T09:04:47Z</time>
      </trkpt>
      <trkpt lat="42.34747" lon="2.15415">
        <ele>1321.95</ele>
        <time>2019-02-23T09:04:58Z</time>
      </trkpt>
      <trkpt lat="42.34752" lon="2.15384">
        <ele>1324.83</ele>
        <time>2019-02-23T09:05:10Z</time>
      </trkpt>
      <trkpt lat="42.34751" lon="2.15343">
        <ele>1328.2</ele>
        <time>2019-02-23T09:05:25Z</time>
      </trkpt>
      <trkpt lat="42.34753" lon="2.15319">
        <ele>1331.08</ele>
        <time>2019-02-23T09:05:36Z</time>
      </trkpt>
      <trkpt lat="42.34754" lon="2.15306">
        <ele>1332.52</ele>
        <time>2019-02-23T09:05:43Z</time>
      </trkpt>
      <trkpt lat="42.34755" lon="2.15282">
        <ele>1335.89</ele>
        <time>2019-02-23T09:05:56Z</time>
      </trkpt>
      <trkpt lat="42.34756" lon="2.1527">
        <ele>1338.77</ele>
        <time>2019-02-23T09:06:06Z</time>
      </trkpt>
      <trkpt lat="42.34757" lon="2.15249">
        <ele>1340.22</ele>
        <time>2019-02-23T09:06:19Z</time>
      </trkpt>
      <trkpt lat="42.3476" lon="2.15198">
        <ele>1342.62</ele>
        <time>2019-02-23T09:06:35Z</time>
      </trkpt>
      <trkpt lat="42.34774" lon="2.15139">
        <ele>1345.5</ele>
        <time>2019-02-23T09:06:52Z</time>
      </trkpt>
      <trkpt lat="42.34794" lon="2.15085">
        <ele>1348.39</ele>
        <time>2019-02-23T09:07:08Z</time>
      </trkpt>
      <trkpt lat="42.34801" lon="2.15053">
        <ele>1351.27</ele>
        <time>2019-02-23T09:07:17Z</time>
      </trkpt>
      <trkpt lat="42.3481" lon="2.15002">
        <ele>1354.15</ele>
        <time>2019-02-23T09:07:32Z</time>
      </trkpt>
      <trkpt lat="42.34817" lon="2.14988">
        <ele>1356.56</ele>
        <time>2019-02-23T09:07:38Z</time>
      </trkpt>
      <trkpt lat="42.34832" lon="2.14958">
        <ele>1359.44</ele>
        <time>2019-02-23T09:07:50Z</time>
      </trkpt>
      <trkpt lat="42.34849" lon="2.14927">
        <ele>1362.33</ele>
        <time>2019-02-23T09:08:02Z</time>
      </trkpt>
      <trkpt lat="42.34875" lon="2.14888">
        <ele>1364.25</ele>
        <time>2019-02-23T09:08:17Z</time>
      </trkpt>
      <trkpt lat="42.34905" lon="2.14846">
        <ele>1365.69</ele>
        <time>2019-02-23T09:08:31Z</time>
      </trkpt>
      <trkpt lat="42.34934" lon="2.14807">
        <ele>1366.17</ele>
        <time>2019-02-23T09:08:45Z</time>
      </trkpt>
      <trkpt lat="42.34964" lon="2.1476">
        <ele>1367.61</ele>
        <time>2019-02-23T09:09:01Z</time>
      </trkpt>
      <trkpt lat="42.34972" lon="2.14702">
        <ele>1368.09</ele>
        <time>2019-02-23T09:09:15Z</time>
      </trkpt>
      <trkpt lat="42.35002" lon="2.14649">
        <ele>1368.57</ele>
        <time>2019-02-23T09:09:30Z</time>
      </trkpt>
      <trkpt lat="42.3502" lon="2.14593">
        <ele>1369.05</ele>
        <time>2019-02-23T09:09:45Z</time>
      </trkpt>
      <trkpt lat="42.35031" lon="2.14539">
        <ele>1368.57</ele>
        <time>2019-02-23T09:09:59Z</time>
      </trkpt>
      <trkpt lat="42.34991" lon="2.14543">
        <ele>1370.02</ele>
        <time>2019-02-23T09:10:11Z</time>
      </trkpt>
      <trkpt lat="42.34983" lon="2.14549">
        <ele>1370.98</ele>
        <time>2019-02-23T09:10:15Z</time>
      </trkpt>
      <trkpt lat="42.34978" lon="2.14555">
        <ele>1371.46</ele>
        <time>2019-02-23T09:10:19Z</time>
      </trkpt>
      <trkpt lat="42.34966" lon="2.14567">
        <ele>1374.82</ele>
        <time>2019-02-23T09:10:30Z</time>
      </trkpt>
      <trkpt lat="42.34953" lon="2.14575">
        <ele>1377.71</ele>
        <time>2019-02-23T09:10:43Z</time>
      </trkpt>
      <trkpt lat="42.34937" lon="2.14578">
        <ele>1381.07</ele>
        <time>2019-02-23T09:10:56Z</time>
      </trkpt>
      <trkpt lat="42.34922" lon="2.14578">
        <ele>1383.47</ele>
        <time>2019-02-23T09:11:08Z</time>
      </trkpt>
      <trkpt lat="42.34918" lon="2.14574">
        <ele>1384.92</ele>
        <time>2019-02-23T09:11:13Z</time>
      </trkpt>
      <trkpt lat="42.34911" lon="2.14565">
        <ele>1386.84</ele>
        <time>2019-02-23T09:11:24Z</time>
      </trkpt>
      <trkpt lat="42.34909" lon="2.14563">
        <ele>1387.8</ele>
        <time>2019-02-23T09:11:27Z</time>
      </trkpt>
      <trkpt lat="42.34896" lon="2.14548">
        <ele>1391.17</ele>
        <time>2019-02-23T09:11:43Z</time>
      </trkpt>
      <trkpt lat="42.34884" lon="2.14535">
        <ele>1394.53</ele>
        <time>2019-02-23T09:11:55Z</time>
      </trkpt>
      <trkpt lat="42.34882" lon="2.14533">
        <ele>1395.49</ele>
        <time>2019-02-23T09:11:57Z</time>
      </trkpt>
      <trkpt lat="42.34869" lon="2.14521">
        <ele>1398.37</ele>
        <time>2019-02-23T09:12:09Z</time>
      </trkpt>
      <trkpt lat="42.34859" lon="2.14515">
        <ele>1399.82</ele>
        <time>2019-02-23T09:12:18Z</time>
      </trkpt>
      <trkpt lat="42.34847" lon="2.14502">
        <ele>1403.18</ele>
        <time>2019-02-23T09:12:33Z</time>
      </trkpt>
      <trkpt lat="42.34837" lon="2.1449">
        <ele>1405.58</ele>
        <time>2019-02-23T09:12:47Z</time>
      </trkpt>
      <trkpt lat="42.34835" lon="2.14486">
        <ele>1407.03</ele>
        <time>2019-02-23T09:12:51Z</time>
      </trkpt>
      <trkpt lat="42.34832" lon="2.14481">
        <ele>1407.99</ele>
        <time>2019-02-23T09:12:55Z</time>
      </trkpt>
      <trkpt lat="42.34824" lon="2.14469">
        <ele>1410.39</ele>
        <time>2019-02-23T09:13:07Z</time>
      </trkpt>
      <trkpt lat="42.34818" lon="2.14466">
        <ele>1411.83</ele>
        <time>2019-02-23T09:13:13Z</time>
      </trkpt>
      <trkpt lat="42.34812" lon="2.1446">
        <ele>1415.2</ele>
        <time>2019-02-23T09:13:26Z</time>
      </trkpt>
      <trkpt lat="42.34812" lon="2.1446">
        <ele>1416.64</ele>
        <time>2019-02-23T09:13:31Z</time>
      </trkpt>
      <trkpt lat="42.34795" lon="2.14457">
        <ele>1419.52</ele>
        <time>2019-02-23T09:13:44Z</time>
      </trkpt>
      <trkpt lat="42.34786" lon="2.14453">
        <ele>1421.45</ele>
        <time>2019-02-23T09:13:49Z</time>
      </trkpt>
      <trkpt lat="42.3478" lon="2.1445">
        <ele>1422.89</ele>
        <time>2019-02-23T09:13:53Z</time>
      </trkpt>
      <trkpt lat="42.34776" lon="2.14446">
        <ele>1423.37</ele>
        <time>2019-02-23T09:13:56Z</time>
      </trkpt>
      <trkpt lat="42.34769" lon="2.14435">
        <ele>1426.25</ele>
        <time>2019-02-23T09:14:08Z</time>
      </trkpt>
      <trkpt lat="42.34796" lon="2.14432">
        <ele>1429.62</ele>
        <time>2019-02-23T09:14:22Z</time>
      </trkpt>
      <trkpt lat="42.34808" lon="2.14425">
        <ele>1431.54</ele>
        <time>2019-02-23T09:14:31Z</time>
      </trkpt>
      <trkpt lat="42.34822" lon="2.14401">
        <ele>1433.46</ele>
        <time>2019-02-23T09:14:45Z</time>
      </trkpt>
      <trkpt lat="42.34817" lon="2.14403">
        <ele>1434.42</ele>
        <time>2019-02-23T09:14:51Z</time>
      </trkpt>
      <trkpt lat="42.34809" lon="2.14407">
        <ele>1434.91</ele>
        <time>2019-02-23T09:14:53Z</time>
      </trkpt>
      <trkpt lat="42.34789" lon="2.14411">
        <ele>1436.83</ele>
        <time>2019-02-23T09:15:05Z</time>
      </trkpt>
      <trkpt lat="42.34783" lon="2.14403">
        <ele>1440.67</ele>
        <time>2019-02-23T09:15:15Z</time>
      </trkpt>
      <trkpt lat="42.34779" lon="2.14395">
        <ele>1444.52</ele>
        <time>2019-02-23T09:15:26Z</time>
      </trkpt>
      <trkpt lat="42.34773" lon="2.14391">
        <ele>1447.4</ele>
        <time>2019-02-23T09:15:36Z</time>
      </trkpt>
      <trkpt lat="42.34774" lon="2.14384">
        <ele>1450.77</ele>
        <time>2019-02-23T09:15:54Z</time>
      </trkpt>
      <trkpt lat="42.34778" lon="2.14375">
        <ele>1453.65</ele>
        <time>2019-02-23T09:16:04Z</time>
      </trkpt>
      <trkpt lat="42.34782" lon="2.14371">
        <ele>1455.57</ele>
        <time>2019-02-23T09:16:10Z</time>
      </trkpt>
      <trkpt lat="42.34783" lon="2.14364">
        <ele>1457.5</ele>
        <time>2019-02-23T09:16:25Z</time>
      </trkpt>
      <trkpt lat="42.34782" lon="2.14357">
        <ele>1460.86</ele>
        <time>2019-02-23T09:16:37Z</time>
      </trkpt>
      <trkpt lat="42.34781" lon="2.14356">
        <ele>1460.86</ele>
        <time>2019-02-23T09:16:38Z</time>
      </trkpt>
      <trkpt lat="42.34779" lon="2.14347">
        <ele>1463.26</ele>
        <time>2019-02-23T09:16:47Z</time>
      </trkpt>
      <trkpt lat="42.34775" lon="2.1434">
        <ele>1464.71</ele>
        <time>2019-02-23T09:16:53Z</time>
      </trkpt>
      <trkpt lat="42.34774" lon="2.14337">
        <ele>1466.15</ele>
        <time>2019-02-23T09:16:56Z</time>
      </trkpt>
      <trkpt lat="42.34771" lon="2.14335">
        <ele>1467.11</ele>
        <time>2019-02-23T09:16:59Z</time>
      </trkpt>
      <trkpt lat="42.34762" lon="2.14329">
        <ele>1469.51</ele>
        <time>2019-02-23T09:17:08Z</time>
      </trkpt>
      <trkpt lat="42.34754" lon="2.14316">
        <ele>1472.88</ele>
        <time>2019-02-23T09:17:20Z</time>
      </trkpt>
      <trkpt lat="42.3475" lon="2.14308">
        <ele>1474.8</ele>
        <time>2019-02-23T09:17:26Z</time>
      </trkpt>
      <trkpt lat="42.34748" lon="2.14305">
        <ele>1475.28</ele>
        <time>2019-02-23T09:17:29Z</time>
      </trkpt>
      <trkpt lat="42.34744" lon="2.14295">
        <ele>1477.2</ele>
        <time>2019-02-23T09:17:37Z</time>
      </trkpt>
      <trkpt lat="42.3474" lon="2.14285">
        <ele>1478.65</ele>
        <time>2019-02-23T09:17:43Z</time>
      </trkpt>
      <trkpt lat="42.34734" lon="2.14275">
        <ele>1481.53</ele>
        <time>2019-02-23T09:17:54Z</time>
      </trkpt>
      <trkpt lat="42.34721" lon="2.14265">
        <ele>1484.41</ele>
        <time>2019-02-23T09:18:06Z</time>
      </trkpt>
      <trkpt lat="42.34713" lon="2.14253">
        <ele>1487.78</ele>
        <time>2019-02-23T09:18:15Z</time>
      </trkpt>
      <trkpt lat="42.3471" lon="2.14247">
        <ele>1489.22</ele>
        <time>2019-02-23T09:18:19Z</time>
      </trkpt>
      <trkpt lat="42.34703" lon="2.14232">
        <ele>1492.58</ele>
        <time>2019-02-23T09:18:30Z</time>
      </trkpt>
      <trkpt lat="42.34702" lon="2.1423">
        <ele>1493.06</ele>
        <time>2019-02-23T09:18:32Z</time>
      </trkpt>
      <trkpt lat="42.34689" lon="2.14215">
        <ele>1496.43</ele>
        <time>2019-02-23T09:18:43Z</time>
      </trkpt>
      <trkpt lat="42.34679" lon="2.14201">
        <ele>1500.27</ele>
        <time>2019-02-23T09:18:56Z</time>
      </trkpt>
      <trkpt lat="42.34675" lon="2.14189">
        <ele>1502.2</ele>
        <time>2019-02-23T09:19:06Z</time>
      </trkpt>
      <trkpt lat="42.34671" lon="2.14182">
        <ele>1503.16</ele>
        <time>2019-02-23T09:19:12Z</time>
      </trkpt>
      <trkpt lat="42.34664" lon="2.1417">
        <ele>1506.04</ele>
        <time>2019-02-23T09:19:23Z</time>
      </trkpt>
      <trkpt lat="42.34661" lon="2.14164">
        <ele>1506.52</ele>
        <time>2019-02-23T09:19:28Z</time>
      </trkpt>
      <trkpt lat="42.34648" lon="2.14151">
        <ele>1508.93</ele>
        <time>2019-02-23T09:19:41Z</time>
      </trkpt>
      <trkpt lat="42.34644" lon="2.14149">
        <ele>1509.89</ele>
        <time>2019-02-23T09:19:44Z</time>
      </trkpt>
      <trkpt lat="42.34629" lon="2.14129">
        <ele>1511.81</ele>
        <time>2019-02-23T09:19:57Z</time>
      </trkpt>
      <trkpt lat="42.34625" lon="2.14126">
        <ele>1512.29</ele>
        <time>2019-02-23T09:20:01Z</time>
      </trkpt>
      <trkpt lat="42.34616" lon="2.14109">
        <ele>1514.69</ele>
        <time>2019-02-23T09:20:12Z</time>
      </trkpt>
      <trkpt lat="42.34613" lon="2.14091">
        <ele>1518.54</ele>
        <time>2019-02-23T09:20:23Z</time>
      </trkpt>
      <trkpt lat="42.34611" lon="2.14087">
        <ele>1518.06</ele>
        <time>2019-02-23T09:20:25Z</time>
      </trkpt>
      <trkpt lat="42.34616" lon="2.14072">
        <ele>1521.9</ele>
        <time>2019-02-23T09:20:36Z</time>
      </trkpt>
      <trkpt lat="42.34616" lon="2.14071">
        <ele>1521.9</ele>
        <time>2019-02-23T09:20:37Z</time>
      </trkpt>
      <trkpt lat="42.34613" lon="2.14062">
        <ele>1523.35</ele>
        <time>2019-02-23T09:20:42Z</time>
      </trkpt>
      <trkpt lat="42.34612" lon="2.14058">
        <ele>1523.83</ele>
        <time>2019-02-23T09:20:45Z</time>
      </trkpt>
      <trkpt lat="42.34611" lon="2.14049">
        <ele>1524.79</ele>
        <time>2019-02-23T09:20:51Z</time>
      </trkpt>
      <trkpt lat="42.3461" lon="2.14042">
        <ele>1525.75</ele>
        <time>2019-02-23T09:20:55Z</time>
      </trkpt>
      <trkpt lat="42.34603" lon="2.14023">
        <ele>1529.11</ele>
        <time>2019-02-23T09:21:07Z</time>
      </trkpt>
      <trkpt lat="42.34597" lon="2.14004">
        <ele>1532.48</ele>
        <time>2019-02-23T09:21:21Z</time>
      </trkpt>
      <trkpt lat="42.34596" lon="2.14003">
        <ele>1532</ele>
        <time>2019-02-23T09:21:22Z</time>
      </trkpt>
      <trkpt lat="42.34594" lon="2.13995">
        <ele>1533.92</ele>
        <time>2019-02-23T09:21:28Z</time>
      </trkpt>
      <trkpt lat="42.34591" lon="2.13981">
        <ele>1537.29</ele>
        <time>2019-02-23T09:21:38Z</time>
      </trkpt>
      <trkpt lat="42.34591" lon="2.1398">
        <ele>1537.77</ele>
        <time>2019-02-23T09:21:39Z</time>
      </trkpt>
      <trkpt lat="42.34586" lon="2.13968">
        <ele>1540.17</ele>
        <time>2019-02-23T09:21:53Z</time>
      </trkpt>
      <trkpt lat="42.34571" lon="2.13951">
        <ele>1543.05</ele>
        <time>2019-02-23T09:22:07Z</time>
      </trkpt>
      <trkpt lat="42.34559" lon="2.13935">
        <ele>1545.46</ele>
        <time>2019-02-23T09:22:20Z</time>
      </trkpt>
      <trkpt lat="42.34554" lon="2.13923">
        <ele>1546.42</ele>
        <time>2019-02-23T09:22:27Z</time>
      </trkpt>
      <trkpt lat="42.34556" lon="2.13918">
        <ele>1546.9</ele>
        <time>2019-02-23T09:22:30Z</time>
      </trkpt>
      <trkpt lat="42.34559" lon="2.13908">
        <ele>1546.9</ele>
        <time>2019-02-23T09:22:36Z</time>
      </trkpt>
      <trkpt lat="42.3456" lon="2.13903">
        <ele>1546.9</ele>
        <time>2019-02-23T09:22:39Z</time>
      </trkpt>
      <trkpt lat="42.34565" lon="2.13896">
        <ele>1546.42</ele>
        <time>2019-02-23T09:22:44Z</time>
      </trkpt>
      <trkpt lat="42.34581" lon="2.13859">
        <ele>1545.94</ele>
        <time>2019-02-23T09:23:00Z</time>
      </trkpt>
      <trkpt lat="42.34586" lon="2.13835">
        <ele>1544.01</ele>
        <time>2019-02-23T09:23:08Z</time>
      </trkpt>
      <trkpt lat="42.34609" lon="2.1379">
        <ele>1542.57</ele>
        <time>2019-02-23T09:23:24Z</time>
      </trkpt>
      <trkpt lat="42.34618" lon="2.13748">
        <ele>1542.09</ele>
        <time>2019-02-23T09:23:36Z</time>
      </trkpt>
      <trkpt lat="42.34622" lon="2.13704">
        <ele>1543.53</ele>
        <time>2019-02-23T09:23:49Z</time>
      </trkpt>
      <trkpt lat="42.34622" lon="2.13689">
        <ele>1546.9</ele>
        <time>2019-02-23T09:23:58Z</time>
      </trkpt>
      <trkpt lat="42.34619" lon="2.13675">
        <ele>1548.34</ele>
        <time>2019-02-23T09:24:06Z</time>
      </trkpt>
      <trkpt lat="42.34619" lon="2.13667">
        <ele>1549.3</ele>
        <time>2019-02-23T09:24:10Z</time>
      </trkpt>
      <trkpt lat="42.34617" lon="2.13661">
        <ele>1549.78</ele>
        <time>2019-02-23T09:24:14Z</time>
      </trkpt>
      <trkpt lat="42.34615" lon="2.13652">
        <ele>1550.26</ele>
        <time>2019-02-23T09:24:18Z</time>
      </trkpt>
      <trkpt lat="42.34603" lon="2.1362">
        <ele>1553.15</ele>
        <time>2019-02-23T09:24:33Z</time>
      </trkpt>
      <trkpt lat="42.34601" lon="2.13586">
        <ele>1553.63</ele>
        <time>2019-02-23T09:24:45Z</time>
      </trkpt>
      <trkpt lat="42.34597" lon="2.13537">
        <ele>1553.15</ele>
        <time>2019-02-23T09:24:59Z</time>
      </trkpt>
      <trkpt lat="42.3459" lon="2.13493">
        <ele>1554.11</ele>
        <time>2019-02-23T09:25:12Z</time>
      </trkpt>
      <trkpt lat="42.34592" lon="2.13463">
        <ele>1556.51</ele>
        <time>2019-02-23T09:25:27Z</time>
      </trkpt>
      <trkpt lat="42.34593" lon="2.13446">
        <ele>1559.88</ele>
        <time>2019-02-23T09:25:38Z</time>
      </trkpt>
      <trkpt lat="42.34594" lon="2.13443">
        <ele>1560.36</ele>
        <time>2019-02-23T09:25:40Z</time>
      </trkpt>
      <trkpt lat="42.34596" lon="2.1344">
        <ele>1560.84</ele>
        <time>2019-02-23T09:25:42Z</time>
      </trkpt>
      <trkpt lat="42.34599" lon="2.13423">
        <ele>1564.2</ele>
        <time>2019-02-23T09:25:52Z</time>
      </trkpt>
      <trkpt lat="42.346" lon="2.1342">
        <ele>1565.16</ele>
        <time>2019-02-23T09:25:54Z</time>
      </trkpt>
      <trkpt lat="42.34598" lon="2.13401">
        <ele>1568.05</ele>
        <time>2019-02-23T09:26:07Z</time>
      </trkpt>
      <trkpt lat="42.34601" lon="2.1338">
        <ele>1571.41</ele>
        <time>2019-02-23T09:26:19Z</time>
      </trkpt>
      <trkpt lat="42.34601" lon="2.13362">
        <ele>1574.3</ele>
        <time>2019-02-23T09:26:30Z</time>
      </trkpt>
      <trkpt lat="42.34599" lon="2.13342">
        <ele>1577.66</ele>
        <time>2019-02-23T09:26:44Z</time>
      </trkpt>
      <trkpt lat="42.34588" lon="2.13315">
        <ele>1581.51</ele>
        <time>2019-02-23T09:27:00Z</time>
      </trkpt>
      <trkpt lat="42.34588" lon="2.13313">
        <ele>1581.51</ele>
        <time>2019-02-23T09:27:01Z</time>
      </trkpt>
      <trkpt lat="42.34581" lon="2.133">
        <ele>1584.39</ele>
        <time>2019-02-23T09:27:13Z</time>
      </trkpt>
      <trkpt lat="42.34576" lon="2.13287">
        <ele>1587.75</ele>
        <time>2019-02-23T09:27:26Z</time>
      </trkpt>
      <trkpt lat="42.34569" lon="2.1327">
        <ele>1590.16</ele>
        <time>2019-02-23T09:27:39Z</time>
      </trkpt>
      <trkpt lat="42.34568" lon="2.13255">
        <ele>1592.08</ele>
        <time>2019-02-23T09:27:48Z</time>
      </trkpt>
      <trkpt lat="42.34563" lon="2.13232">
        <ele>1594.96</ele>
        <time>2019-02-23T09:28:01Z</time>
      </trkpt>
      <trkpt lat="42.34562" lon="2.13215">
        <ele>1598.81</ele>
        <time>2019-02-23T09:28:12Z</time>
      </trkpt>
      <trkpt lat="42.34561" lon="2.13208">
        <ele>1599.77</ele>
        <time>2019-02-23T09:28:18Z</time>
      </trkpt>
      <trkpt lat="42.34563" lon="2.13194">
        <ele>1603.62</ele>
        <time>2019-02-23T09:28:29Z</time>
      </trkpt>
      <trkpt lat="42.34564" lon="2.13191">
        <ele>1604.58</ele>
        <time>2019-02-23T09:28:32Z</time>
      </trkpt>
      <trkpt lat="42.34568" lon="2.13177">
        <ele>1607.94</ele>
        <time>2019-02-23T09:28:44Z</time>
      </trkpt>
      <trkpt lat="42.34569" lon="2.13168">
        <ele>1610.83</ele>
        <time>2019-02-23T09:29:01Z</time>
      </trkpt>
      <trkpt lat="42.34573" lon="2.13161">
        <ele>1612.27</ele>
        <time>2019-02-23T09:29:08Z</time>
      </trkpt>
      <trkpt lat="42.3457" lon="2.13136">
        <ele>1614.19</ele>
        <time>2019-02-23T09:29:25Z</time>
      </trkpt>
      <trkpt lat="42.3457" lon="2.13134">
        <ele>1615.15</ele>
        <time>2019-02-23T09:29:27Z</time>
      </trkpt>
      <trkpt lat="42.3457" lon="2.1313">
        <ele>1616.59</ele>
        <time>2019-02-23T09:29:30Z</time>
      </trkpt>
      <trkpt lat="42.3457" lon="2.13128">
        <ele>1617.07</ele>
        <time>2019-02-23T09:29:32Z</time>
      </trkpt>
      <trkpt lat="42.34561" lon="2.13114">
        <ele>1619.96</ele>
        <time>2019-02-23T09:29:45Z</time>
      </trkpt>
      <trkpt lat="42.34557" lon="2.13106">
        <ele>1621.88</ele>
        <time>2019-02-23T09:29:51Z</time>
      </trkpt>
      <trkpt lat="42.34549" lon="2.13092">
        <ele>1625.25</ele>
        <time>2019-02-23T09:30:02Z</time>
      </trkpt>
      <trkpt lat="42.3454" lon="2.13081">
        <ele>1628.61</ele>
        <time>2019-02-23T09:30:11Z</time>
      </trkpt>
      <trkpt lat="42.34536" lon="2.13071">
        <ele>1631.49</ele>
        <time>2019-02-23T09:30:19Z</time>
      </trkpt>
      <trkpt lat="42.34535" lon="2.13067">
        <ele>1631.98</ele>
        <time>2019-02-23T09:30:23Z</time>
      </trkpt>
      <trkpt lat="42.34539" lon="2.13063">
        <ele>1633.42</ele>
        <time>2019-02-23T09:30:27Z</time>
      </trkpt>
      <trkpt lat="42.34542" lon="2.1306">
        <ele>1634.86</ele>
        <time>2019-02-23T09:30:30Z</time>
      </trkpt>
      <trkpt lat="42.34543" lon="2.13058">
        <ele>1635.82</ele>
        <time>2019-02-23T09:30:33Z</time>
      </trkpt>
      <trkpt lat="42.3455" lon="2.13046">
        <ele>1639.67</ele>
        <time>2019-02-23T09:30:47Z</time>
      </trkpt>
      <trkpt lat="42.34545" lon="2.13037">
        <ele>1641.59</ele>
        <time>2019-02-23T09:30:58Z</time>
      </trkpt>
      <trkpt lat="42.34541" lon="2.1303">
        <ele>1642.07</ele>
        <time>2019-02-23T09:31:03Z</time>
      </trkpt>
      <trkpt lat="42.34541" lon="2.13023">
        <ele>1643.99</ele>
        <time>2019-02-23T09:31:07Z</time>
      </trkpt>
      <trkpt lat="42.34541" lon="2.1302">
        <ele>1644.47</ele>
        <time>2019-02-23T09:31:09Z</time>
      </trkpt>
      <trkpt lat="42.34541" lon="2.13016">
        <ele>1644.95</ele>
        <time>2019-02-23T09:31:12Z</time>
      </trkpt>
      <trkpt lat="42.34543" lon="2.13013">
        <ele>1645.43</ele>
        <time>2019-02-23T09:31:15Z</time>
      </trkpt>
      <trkpt lat="42.34549" lon="2.13006">
        <ele>1648.32</ele>
        <time>2019-02-23T09:31:22Z</time>
      </trkpt>
      <trkpt lat="42.34551" lon="2.12992">
        <ele>1651.68</ele>
        <time>2019-02-23T09:31:33Z</time>
      </trkpt>
      <trkpt lat="42.34551" lon="2.1299">
        <ele>1652.16</ele>
        <time>2019-02-23T09:31:34Z</time>
      </trkpt>
      <trkpt lat="42.34551" lon="2.12988">
        <ele>1652.64</ele>
        <time>2019-02-23T09:31:36Z</time>
      </trkpt>
      <trkpt lat="42.34549" lon="2.12977">
        <ele>1654.57</ele>
        <time>2019-02-23T09:31:42Z</time>
      </trkpt>
      <trkpt lat="42.34547" lon="2.12965">
        <ele>1656.97</ele>
        <time>2019-02-23T09:31:51Z</time>
      </trkpt>
      <trkpt lat="42.34547" lon="2.1296">
        <ele>1657.93</ele>
        <time>2019-02-23T09:31:55Z</time>
      </trkpt>
      <trkpt lat="42.34547" lon="2.12959">
        <ele>1658.41</ele>
        <time>2019-02-23T09:32:13Z</time>
      </trkpt>
      <trkpt lat="42.34549" lon="2.12957">
        <ele>1659.37</ele>
        <time>2019-02-23T09:32:32Z</time>
      </trkpt>
      <trkpt lat="42.34549" lon="2.12957">
        <ele>1658.89</ele>
        <time>2019-02-23T09:32:35Z</time>
      </trkpt>
      <trkpt lat="42.34554" lon="2.12953">
        <ele>1659.37</ele>
        <time>2019-02-23T09:32:51Z</time>
      </trkpt>
      <trkpt lat="42.34554" lon="2.12952">
        <ele>1659.37</ele>
        <time>2019-02-23T09:32:55Z</time>
      </trkpt>
      <trkpt lat="42.34576" lon="2.12926">
        <ele>1657.45</ele>
        <time>2019-02-23T09:33:11Z</time>
      </trkpt>
      <trkpt lat="42.34599" lon="2.1289">
        <ele>1658.89</ele>
        <time>2019-02-23T09:33:24Z</time>
      </trkpt>
      <trkpt lat="42.34604" lon="2.12882">
        <ele>1657.45</ele>
        <time>2019-02-23T09:33:27Z</time>
      </trkpt>
      <trkpt lat="42.34612" lon="2.12871">
        <ele>1658.89</ele>
        <time>2019-02-23T09:33:32Z</time>
      </trkpt>
      <trkpt lat="42.3462" lon="2.12853">
        <ele>1661.78</ele>
        <time>2019-02-23T09:33:45Z</time>
      </trkpt>
      <trkpt lat="42.34624" lon="2.12851">
        <ele>1663.22</ele>
        <time>2019-02-23T09:33:48Z</time>
      </trkpt>
      <trkpt lat="42.34628" lon="2.1285">
        <ele>1664.18</ele>
        <time>2019-02-23T09:33:51Z</time>
      </trkpt>
      <trkpt lat="42.34647" lon="2.12834">
        <ele>1665.62</ele>
        <time>2019-02-23T09:34:05Z</time>
      </trkpt>
      <trkpt lat="42.34661" lon="2.12808">
        <ele>1668.99</ele>
        <time>2019-02-23T09:34:19Z</time>
      </trkpt>
      <trkpt lat="42.34685" lon="2.12785">
        <ele>1667.54</ele>
        <time>2019-02-23T09:34:33Z</time>
      </trkpt>
      <trkpt lat="42.34716" lon="2.12782">
        <ele>1669.47</ele>
        <time>2019-02-23T09:34:48Z</time>
      </trkpt>
      <trkpt lat="42.34733" lon="2.12754">
        <ele>1672.35</ele>
        <time>2019-02-23T09:35:00Z</time>
      </trkpt>
      <trkpt lat="42.34735" lon="2.12721">
        <ele>1675.72</ele>
        <time>2019-02-23T09:35:14Z</time>
      </trkpt>
      <trkpt lat="42.34744" lon="2.12686">
        <ele>1678.12</ele>
        <time>2019-02-23T09:35:28Z</time>
      </trkpt>
      <trkpt lat="42.34756" lon="2.1264">
        <ele>1680.52</ele>
        <time>2019-02-23T09:35:42Z</time>
      </trkpt>
      <trkpt lat="42.34763" lon="2.12613">
        <ele>1683.89</ele>
        <time>2019-02-23T09:35:54Z</time>
      </trkpt>
      <trkpt lat="42.34766" lon="2.12588">
        <ele>1685.33</ele>
        <time>2019-02-23T09:36:09Z</time>
      </trkpt>
      <trkpt lat="42.3477" lon="2.12562">
        <ele>1684.85</ele>
        <time>2019-02-23T09:36:22Z</time>
      </trkpt>
      <trkpt lat="42.34773" lon="2.12539">
        <ele>1686.29</ele>
        <time>2019-02-23T09:36:35Z</time>
      </trkpt>
      <trkpt lat="42.34785" lon="2.12498">
        <ele>1687.73</ele>
        <time>2019-02-23T09:36:49Z</time>
      </trkpt>
      <trkpt lat="42.3479" lon="2.12469">
        <ele>1690.62</ele>
        <time>2019-02-23T09:37:00Z</time>
      </trkpt>
      <trkpt lat="42.34795" lon="2.12421">
        <ele>1693.98</ele>
        <time>2019-02-23T09:37:13Z</time>
      </trkpt>
      <trkpt lat="42.34801" lon="2.12385">
        <ele>1697.34</ele>
        <time>2019-02-23T09:37:24Z</time>
      </trkpt>
      <trkpt lat="42.34824" lon="2.12352">
        <ele>1698.79</ele>
        <time>2019-02-23T09:37:38Z</time>
      </trkpt>
      <trkpt lat="42.34843" lon="2.12327">
        <ele>1701.19</ele>
        <time>2019-02-23T09:37:52Z</time>
      </trkpt>
      <trkpt lat="42.34854" lon="2.12293">
        <ele>1702.63</ele>
        <time>2019-02-23T09:38:07Z</time>
      </trkpt>
      <trkpt lat="42.34863" lon="2.12263">
        <ele>1706</ele>
        <time>2019-02-23T09:38:20Z</time>
      </trkpt>
      <trkpt lat="42.34866" lon="2.12256">
        <ele>1708.4</ele>
        <time>2019-02-23T09:38:25Z</time>
      </trkpt>
      <trkpt lat="42.34867" lon="2.12254">
        <ele>1709.84</ele>
        <time>2019-02-23T09:38:28Z</time>
      </trkpt>
      <trkpt lat="42.34868" lon="2.12248">
        <ele>1711.28</ele>
        <time>2019-02-23T09:38:33Z</time>
      </trkpt>
      <trkpt lat="42.34873" lon="2.12242">
        <ele>1714.17</ele>
        <time>2019-02-23T09:38:41Z</time>
      </trkpt>
      <trkpt lat="42.34875" lon="2.12238">
        <ele>1714.65</ele>
        <time>2019-02-23T09:38:44Z</time>
      </trkpt>
      <trkpt lat="42.34881" lon="2.12229">
        <ele>1716.09</ele>
        <time>2019-02-23T09:38:51Z</time>
      </trkpt>
      <trkpt lat="42.34892" lon="2.12214">
        <ele>1719.94</ele>
        <time>2019-02-23T09:39:03Z</time>
      </trkpt>
      <trkpt lat="42.34893" lon="2.12214">
        <ele>1720.42</ele>
        <time>2019-02-23T09:39:04Z</time>
      </trkpt>
      <trkpt lat="42.34901" lon="2.122">
        <ele>1723.3</ele>
        <time>2019-02-23T09:39:15Z</time>
      </trkpt>
      <trkpt lat="42.34913" lon="2.12187">
        <ele>1725.7</ele>
        <time>2019-02-23T09:39:30Z</time>
      </trkpt>
      <trkpt lat="42.34931" lon="2.12169">
        <ele>1729.07</ele>
        <time>2019-02-23T09:39:46Z</time>
      </trkpt>
      <trkpt lat="42.34934" lon="2.12168">
        <ele>1730.03</ele>
        <time>2019-02-23T09:39:48Z</time>
      </trkpt>
      <trkpt lat="42.34942" lon="2.12165">
        <ele>1730.99</ele>
        <time>2019-02-23T09:39:53Z</time>
      </trkpt>
      <trkpt lat="42.34956" lon="2.12159">
        <ele>1733.39</ele>
        <time>2019-02-23T09:40:03Z</time>
      </trkpt>
      <trkpt lat="42.34962" lon="2.12156">
        <ele>1735.8</ele>
        <time>2019-02-23T09:40:12Z</time>
      </trkpt>
      <trkpt lat="42.34963" lon="2.12156">
        <ele>1736.28</ele>
        <time>2019-02-23T09:40:13Z</time>
      </trkpt>
      <trkpt lat="42.34967" lon="2.12156">
        <ele>1738.68</ele>
        <time>2019-02-23T09:40:23Z</time>
      </trkpt>
      <trkpt lat="42.34971" lon="2.12155">
        <ele>1740.12</ele>
        <time>2019-02-23T09:40:26Z</time>
      </trkpt>
      <trkpt lat="42.34974" lon="2.12154">
        <ele>1740.6</ele>
        <time>2019-02-23T09:40:28Z</time>
      </trkpt>
      <trkpt lat="42.34976" lon="2.12154">
        <ele>1742.05</ele>
        <time>2019-02-23T09:40:31Z</time>
      </trkpt>
      <trkpt lat="42.34981" lon="2.12158">
        <ele>1743.97</ele>
        <time>2019-02-23T09:40:35Z</time>
      </trkpt>
      <trkpt lat="42.34994" lon="2.12148">
        <ele>1746.85</ele>
        <time>2019-02-23T09:40:45Z</time>
      </trkpt>
      <trkpt lat="42.35009" lon="2.12138">
        <ele>1750.7</ele>
        <time>2019-02-23T09:40:54Z</time>
      </trkpt>
      <trkpt lat="42.35014" lon="2.12135">
        <ele>1752.62</ele>
        <time>2019-02-23T09:40:59Z</time>
      </trkpt>
      <trkpt lat="42.35017" lon="2.12132">
        <ele>1751.66</ele>
        <time>2019-02-23T09:41:03Z</time>
      </trkpt>
      <trkpt lat="42.3503" lon="2.12105">
        <ele>1752.14</ele>
        <time>2019-02-23T09:41:20Z</time>
      </trkpt>
      <trkpt lat="42.35032" lon="2.12102">
        <ele>1752.14</ele>
        <time>2019-02-23T09:41:24Z</time>
      </trkpt>
      <trkpt lat="42.35047" lon="2.12092">
        <ele>1753.1</ele>
        <time>2019-02-23T09:41:36Z</time>
      </trkpt>
      <trkpt lat="42.35051" lon="2.12083">
        <ele>1752.62</ele>
        <time>2019-02-23T09:41:45Z</time>
      </trkpt>
      <trkpt lat="42.35052" lon="2.12081">
        <ele>1752.62</ele>
        <time>2019-02-23T09:41:47Z</time>
      </trkpt>
      <trkpt lat="42.35059" lon="2.12063">
        <ele>1752.62</ele>
        <time>2019-02-23T09:41:57Z</time>
      </trkpt>
      <trkpt lat="42.3506" lon="2.12058">
        <ele>1753.1</ele>
        <time>2019-02-23T09:41:59Z</time>
      </trkpt>
      <trkpt lat="42.35064" lon="2.12047">
        <ele>1754.54</ele>
        <time>2019-02-23T09:42:03Z</time>
      </trkpt>
      <trkpt lat="42.35075" lon="2.12023">
        <ele>1756.47</ele>
        <time>2019-02-23T09:42:10Z</time>
      </trkpt>
      <trkpt lat="42.35086" lon="2.11993">
        <ele>1759.83</ele>
        <time>2019-02-23T09:42:19Z</time>
      </trkpt>
      <trkpt lat="42.35088" lon="2.11989">
        <ele>1761.27</ele>
        <time>2019-02-23T09:42:21Z</time>
      </trkpt>
      <trkpt lat="42.35091" lon="2.11976">
        <ele>1764.16</ele>
        <time>2019-02-23T09:42:27Z</time>
      </trkpt>
      <trkpt lat="42.35105" lon="2.11957">
        <ele>1763.68</ele>
        <time>2019-02-23T09:42:40Z</time>
      </trkpt>
      <trkpt lat="42.3514" lon="2.11947">
        <ele>1764.16</ele>
        <time>2019-02-23T09:42:54Z</time>
      </trkpt>
      <trkpt lat="42.35147" lon="2.11955">
        <ele>1764.64</ele>
        <time>2019-02-23T09:43:09Z</time>
      </trkpt>
      <trkpt lat="42.35151" lon="2.11952">
        <ele>1765.12</ele>
        <time>2019-02-23T09:43:27Z</time>
      </trkpt>
      <trkpt lat="42.35154" lon="2.11951">
        <ele>1766.08</ele>
        <time>2019-02-23T09:43:30Z</time>
      </trkpt>
      <trkpt lat="42.35159" lon="2.11949">
        <ele>1765.6</ele>
        <time>2019-02-23T09:43:35Z</time>
      </trkpt>
      <trkpt lat="42.35165" lon="2.11945">
        <ele>1766.56</ele>
        <time>2019-02-23T09:43:42Z</time>
      </trkpt>
      <trkpt lat="42.35198" lon="2.11931">
        <ele>1764.64</ele>
        <time>2019-02-23T09:43:58Z</time>
      </trkpt>
      <trkpt lat="42.35205" lon="2.11929">
        <ele>1763.68</ele>
        <time>2019-02-23T09:44:00Z</time>
      </trkpt>
      <trkpt lat="42.35245" lon="2.1192">
        <ele>1764.16</ele>
        <time>2019-02-23T09:44:15Z</time>
      </trkpt>
      <trkpt lat="42.35279" lon="2.11913">
        <ele>1763.2</ele>
        <time>2019-02-23T09:44:30Z</time>
      </trkpt>
      <trkpt lat="42.35306" lon="2.11895">
        <ele>1766.56</ele>
        <time>2019-02-23T09:44:41Z</time>
      </trkpt>
      <trkpt lat="42.35332" lon="2.11874">
        <ele>1769.92</ele>
        <time>2019-02-23T09:44:51Z</time>
      </trkpt>
      <trkpt lat="42.35354" lon="2.11854">
        <ele>1771.85</ele>
        <time>2019-02-23T09:45:05Z</time>
      </trkpt>
      <trkpt lat="42.35355" lon="2.11853">
        <ele>1771.85</ele>
        <time>2019-02-23T09:45:07Z</time>
      </trkpt>
      <trkpt lat="42.35357" lon="2.11848">
        <ele>1771.85</ele>
        <time>2019-02-23T09:45:11Z</time>
      </trkpt>
      <trkpt lat="42.35364" lon="2.11841">
        <ele>1771.85</ele>
        <time>2019-02-23T09:45:17Z</time>
      </trkpt>
      <trkpt lat="42.35375" lon="2.1183">
        <ele>1775.69</ele>
        <time>2019-02-23T09:45:25Z</time>
      </trkpt>
      <trkpt lat="42.35377" lon="2.11829">
        <ele>1775.69</ele>
        <time>2019-02-23T09:45:26Z</time>
      </trkpt>
      <trkpt lat="42.35393" lon="2.11822">
        <ele>1779.06</ele>
        <time>2019-02-23T09:45:36Z</time>
      </trkpt>
      <trkpt lat="42.35402" lon="2.11818">
        <ele>1781.94</ele>
        <time>2019-02-23T09:45:42Z</time>
      </trkpt>
      <trkpt lat="42.35413" lon="2.11815">
        <ele>1784.82</ele>
        <time>2019-02-23T09:45:50Z</time>
      </trkpt>
      <trkpt lat="42.35427" lon="2.1181">
        <ele>1788.19</ele>
        <time>2019-02-23T09:46:01Z</time>
      </trkpt>
      <trkpt lat="42.35451" lon="2.11792">
        <ele>1787.71</ele>
        <time>2019-02-23T09:46:19Z</time>
      </trkpt>
      <trkpt lat="42.35471" lon="2.11779">
        <ele>1787.71</ele>
        <time>2019-02-23T09:46:34Z</time>
      </trkpt>
      <trkpt lat="42.3549" lon="2.11762">
        <ele>1788.19</ele>
        <time>2019-02-23T09:46:48Z</time>
      </trkpt>
      <trkpt lat="42.35504" lon="2.11747">
        <ele>1788.67</ele>
        <time>2019-02-23T09:47:01Z</time>
      </trkpt>
      <trkpt lat="42.35509" lon="2.11738">
        <ele>1787.71</ele>
        <time>2019-02-23T09:47:14Z</time>
      </trkpt>
      <trkpt lat="42.35509" lon="2.11738">
        <ele>1785.31</ele>
        <time>2019-02-23T09:47:26Z</time>
      </trkpt>
      <trkpt lat="42.35509" lon="2.11737">
        <ele>1786.75</ele>
        <time>2019-02-23T09:47:56Z</time>
      </trkpt>
      <trkpt lat="42.35509" lon="2.11737">
        <ele>1787.71</ele>
        <time>2019-02-23T09:48:26Z</time>
      </trkpt>
      <trkpt lat="42.35509" lon="2.11737">
        <ele>1788.19</ele>
        <time>2019-02-23T09:48:36Z</time>
      </trkpt>
      <trkpt lat="42.35516" lon="2.11726">
        <ele>1789.15</ele>
        <time>2019-02-23T09:48:50Z</time>
      </trkpt>
      <trkpt lat="42.35516" lon="2.11726">
        <ele>1789.15</ele>
        <time>2019-02-23T09:48:51Z</time>
      </trkpt>
      <trkpt lat="42.3551" lon="2.11721">
        <ele>1791.07</ele>
        <time>2019-02-23T09:49:07Z</time>
      </trkpt>
      <trkpt lat="42.3551" lon="2.11721">
        <ele>1790.59</ele>
        <time>2019-02-23T09:49:11Z</time>
      </trkpt>
      <trkpt lat="42.3551" lon="2.11721">
        <ele>1789.63</ele>
        <time>2019-02-23T09:49:16Z</time>
      </trkpt>
      <trkpt lat="42.35509" lon="2.11716">
        <ele>1792.03</ele>
        <time>2019-02-23T09:49:28Z</time>
      </trkpt>
      <trkpt lat="42.35509" lon="2.11713">
        <ele>1793</ele>
        <time>2019-02-23T09:49:30Z</time>
      </trkpt>
      <trkpt lat="42.35508" lon="2.11712">
        <ele>1793.48</ele>
        <time>2019-02-23T09:49:31Z</time>
      </trkpt>
      <trkpt lat="42.355" lon="2.11697">
        <ele>1796.84</ele>
        <time>2019-02-23T09:49:44Z</time>
      </trkpt>
      <trkpt lat="42.35499" lon="2.11696">
        <ele>1797.32</ele>
        <time>2019-02-23T09:49:45Z</time>
      </trkpt>
      <trkpt lat="42.35488" lon="2.1169">
        <ele>1798.28</ele>
        <time>2019-02-23T09:49:58Z</time>
      </trkpt>
      <trkpt lat="42.35481" lon="2.11686">
        <ele>1800.21</ele>
        <time>2019-02-23T09:50:12Z</time>
      </trkpt>
      <trkpt lat="42.35465" lon="2.11682">
        <ele>1803.57</ele>
        <time>2019-02-23T09:50:21Z</time>
      </trkpt>
      <trkpt lat="42.35463" lon="2.11681">
        <ele>1803.09</ele>
        <time>2019-02-23T09:50:22Z</time>
      </trkpt>
      <trkpt lat="42.35449" lon="2.11683">
        <ele>1805.49</ele>
        <time>2019-02-23T09:50:32Z</time>
      </trkpt>
      <trkpt lat="42.35433" lon="2.11689">
        <ele>1804.05</ele>
        <time>2019-02-23T09:50:45Z</time>
      </trkpt>
      <trkpt lat="42.3542" lon="2.11686">
        <ele>1805.97</ele>
        <time>2019-02-23T09:51:01Z</time>
      </trkpt>
      <trkpt lat="42.35418" lon="2.11686">
        <ele>1806.45</ele>
        <time>2019-02-23T09:51:03Z</time>
      </trkpt>
      <trkpt lat="42.35414" lon="2.11686">
        <ele>1808.38</ele>
        <time>2019-02-23T09:51:10Z</time>
      </trkpt>
      <trkpt lat="42.35405" lon="2.11683">
        <ele>1808.86</ele>
        <time>2019-02-23T09:51:16Z</time>
      </trkpt>
      <trkpt lat="42.35393" lon="2.11682">
        <ele>1809.34</ele>
        <time>2019-02-23T09:51:30Z</time>
      </trkpt>
      <trkpt lat="42.35385" lon="2.1168">
        <ele>1811.26</ele>
        <time>2019-02-23T09:51:37Z</time>
      </trkpt>
      <trkpt lat="42.35376" lon="2.11679">
        <ele>1814.15</ele>
        <time>2019-02-23T09:51:50Z</time>
      </trkpt>
      <trkpt lat="42.35372" lon="2.11678">
        <ele>1814.15</ele>
        <time>2019-02-23T09:51:54Z</time>
      </trkpt>
      <trkpt lat="42.35357" lon="2.11681">
        <ele>1815.11</ele>
        <time>2019-02-23T09:52:12Z</time>
      </trkpt>
      <trkpt lat="42.35353" lon="2.11685">
        <ele>1814.63</ele>
        <time>2019-02-23T09:52:22Z</time>
      </trkpt>
      <trkpt lat="42.35339" lon="2.11689">
        <ele>1815.59</ele>
        <time>2019-02-23T09:52:41Z</time>
      </trkpt>
      <trkpt lat="42.3533" lon="2.1169">
        <ele>1816.07</ele>
        <time>2019-02-23T09:52:58Z</time>
      </trkpt>
      <trkpt lat="42.3533" lon="2.1169">
        <ele>1816.07</ele>
        <time>2019-02-23T09:52:59Z</time>
      </trkpt>
      <trkpt lat="42.35321" lon="2.11693">
        <ele>1817.03</ele>
        <time>2019-02-23T09:53:06Z</time>
      </trkpt>
      <trkpt lat="42.35307" lon="2.11694">
        <ele>1820.39</ele>
        <time>2019-02-23T09:53:16Z</time>
      </trkpt>
      <trkpt lat="42.35303" lon="2.11693">
        <ele>1820.87</ele>
        <time>2019-02-23T09:53:20Z</time>
      </trkpt>
      <trkpt lat="42.35298" lon="2.11693">
        <ele>1820.87</ele>
        <time>2019-02-23T09:53:24Z</time>
      </trkpt>
      <trkpt lat="42.35276" lon="2.11692">
        <ele>1819.91</ele>
        <time>2019-02-23T09:53:42Z</time>
      </trkpt>
      <trkpt lat="42.35257" lon="2.11686">
        <ele>1823.28</ele>
        <time>2019-02-23T09:53:55Z</time>
      </trkpt>
      <trkpt lat="42.35255" lon="2.11686">
        <ele>1823.76</ele>
        <time>2019-02-23T09:53:56Z</time>
      </trkpt>
      <trkpt lat="42.35234" lon="2.11681">
        <ele>1824.72</ele>
        <time>2019-02-23T09:54:09Z</time>
      </trkpt>
      <trkpt lat="42.35226" lon="2.11676">
        <ele>1823.76</ele>
        <time>2019-02-23T09:54:16Z</time>
      </trkpt>
      <trkpt lat="42.35219" lon="2.1168">
        <ele>1824.24</ele>
        <time>2019-02-23T09:54:21Z</time>
      </trkpt>
      <trkpt lat="42.35215" lon="2.11677">
        <ele>1824.72</ele>
        <time>2019-02-23T09:54:26Z</time>
      </trkpt>
      <trkpt lat="42.35204" lon="2.11665">
        <ele>1824.72</ele>
        <time>2019-02-23T09:54:43Z</time>
      </trkpt>
      <trkpt lat="42.35202" lon="2.11666">
        <ele>1824.24</ele>
        <time>2019-02-23T09:54:47Z</time>
      </trkpt>
      <trkpt lat="42.35183" lon="2.11662">
        <ele>1822.8</ele>
        <time>2019-02-23T09:55:03Z</time>
      </trkpt>
      <trkpt lat="42.35168" lon="2.11662">
        <ele>1821.35</ele>
        <time>2019-02-23T09:55:19Z</time>
      </trkpt>
      <trkpt lat="42.35166" lon="2.11661">
        <ele>1821.84</ele>
        <time>2019-02-23T09:55:21Z</time>
      </trkpt>
      <trkpt lat="42.35164" lon="2.1166">
        <ele>1821.35</ele>
        <time>2019-02-23T09:55:23Z</time>
      </trkpt>
      <trkpt lat="42.35149" lon="2.11661">
        <ele>1822.32</ele>
        <time>2019-02-23T09:55:37Z</time>
      </trkpt>
      <trkpt lat="42.35143" lon="2.11657">
        <ele>1822.8</ele>
        <time>2019-02-23T09:55:52Z</time>
      </trkpt>
      <trkpt lat="42.35138" lon="2.11656">
        <ele>1823.28</ele>
        <time>2019-02-23T09:56:02Z</time>
      </trkpt>
      <trkpt lat="42.35123" lon="2.11654">
        <ele>1821.84</ele>
        <time>2019-02-23T09:56:20Z</time>
      </trkpt>
      <trkpt lat="42.35123" lon="2.11654">
        <ele>1821.84</ele>
        <time>2019-02-23T09:56:21Z</time>
      </trkpt>
      <trkpt lat="42.3512" lon="2.11653">
        <ele>1821.35</ele>
        <time>2019-02-23T09:56:24Z</time>
      </trkpt>
      <trkpt lat="42.35116" lon="2.11653">
        <ele>1819.91</ele>
        <time>2019-02-23T09:56:27Z</time>
      </trkpt>
      <trkpt lat="42.35112" lon="2.1165">
        <ele>1818.95</ele>
        <time>2019-02-23T09:56:36Z</time>
      </trkpt>
      <trkpt lat="42.35109" lon="2.11643">
        <ele>1816.55</ele>
        <time>2019-02-23T09:56:41Z</time>
      </trkpt>
      <trkpt lat="42.35099" lon="2.11615">
        <ele>1817.99</ele>
        <time>2019-02-23T09:56:53Z</time>
      </trkpt>
      <trkpt lat="42.35091" lon="2.11603">
        <ele>1816.55</ele>
        <time>2019-02-23T09:57:05Z</time>
      </trkpt>
      <trkpt lat="42.35085" lon="2.11604">
        <ele>1815.11</ele>
        <time>2019-02-23T09:57:22Z</time>
      </trkpt>
      <trkpt lat="42.35077" lon="2.1161">
        <ele>1815.59</ele>
        <time>2019-02-23T09:57:39Z</time>
      </trkpt>
      <trkpt lat="42.35075" lon="2.1161">
        <ele>1815.11</ele>
        <time>2019-02-23T09:58:01Z</time>
      </trkpt>
      <trkpt lat="42.35075" lon="2.11611">
        <ele>1814.15</ele>
        <time>2019-02-23T09:58:25Z</time>
      </trkpt>
      <trkpt lat="42.35075" lon="2.11611">
        <ele>1816.55</ele>
        <time>2019-02-23T09:58:48Z</time>
      </trkpt>
      <trkpt lat="42.35075" lon="2.11611">
        <ele>1817.51</ele>
        <time>2019-02-23T09:59:09Z</time>
      </trkpt>
      <trkpt lat="42.35073" lon="2.11613">
        <ele>1818.95</ele>
        <time>2019-02-23T09:59:25Z</time>
      </trkpt>
      <trkpt lat="42.35063" lon="2.11623">
        <ele>1821.84</ele>
        <time>2019-02-23T09:59:40Z</time>
      </trkpt>
      <trkpt lat="42.35061" lon="2.11626">
        <ele>1822.8</ele>
        <time>2019-02-23T09:59:45Z</time>
      </trkpt>
      <trkpt lat="42.35054" lon="2.1163">
        <ele>1823.76</ele>
        <time>2019-02-23T09:59:51Z</time>
      </trkpt>
      <trkpt lat="42.35052" lon="2.11631">
        <ele>1824.24</ele>
        <time>2019-02-23T09:59:53Z</time>
      </trkpt>
      <trkpt lat="42.35047" lon="2.11631">
        <ele>1825.68</ele>
        <time>2019-02-23T10:00:00Z</time>
      </trkpt>
      <trkpt lat="42.3504" lon="2.11634">
        <ele>1826.16</ele>
        <time>2019-02-23T10:00:04Z</time>
      </trkpt>
      <trkpt lat="42.35034" lon="2.11637">
        <ele>1826.16</ele>
        <time>2019-02-23T10:00:08Z</time>
      </trkpt>
      <trkpt lat="42.35021" lon="2.11644">
        <ele>1825.2</ele>
        <time>2019-02-23T10:00:15Z</time>
      </trkpt>
      <trkpt lat="42.35004" lon="2.11648">
        <ele>1826.16</ele>
        <time>2019-02-23T10:00:32Z</time>
      </trkpt>
      <trkpt lat="42.35" lon="2.11645">
        <ele>1827.12</ele>
        <time>2019-02-23T10:00:38Z</time>
      </trkpt>
      <trkpt lat="42.34993" lon="2.11642">
        <ele>1827.12</ele>
        <time>2019-02-23T10:00:43Z</time>
      </trkpt>
      <trkpt lat="42.34979" lon="2.11643">
        <ele>1827.6</ele>
        <time>2019-02-23T10:00:57Z</time>
      </trkpt>
      <trkpt lat="42.34975" lon="2.11644">
        <ele>1828.08</ele>
        <time>2019-02-23T10:01:02Z</time>
      </trkpt>
      <trkpt lat="42.3497" lon="2.11647">
        <ele>1828.56</ele>
        <time>2019-02-23T10:01:06Z</time>
      </trkpt>
      <trkpt lat="42.34967" lon="2.11646">
        <ele>1827.12</ele>
        <time>2019-02-23T10:01:28Z</time>
      </trkpt>
      <trkpt lat="42.34967" lon="2.11646">
        <ele>1827.6</ele>
        <time>2019-02-23T10:01:30Z</time>
      </trkpt>
      <trkpt lat="42.34961" lon="2.11645">
        <ele>1828.08</ele>
        <time>2019-02-23T10:01:33Z</time>
      </trkpt>
      <trkpt lat="42.34954" lon="2.11643">
        <ele>1828.56</ele>
        <time>2019-02-23T10:01:37Z</time>
      </trkpt>
      <trkpt lat="42.34946" lon="2.11647">
        <ele>1830.49</ele>
        <time>2019-02-23T10:01:45Z</time>
      </trkpt>
      <trkpt lat="42.34941" lon="2.11647">
        <ele>1830.97</ele>
        <time>2019-02-23T10:02:05Z</time>
      </trkpt>
      <trkpt lat="42.3494" lon="2.11649">
        <ele>1830.01</ele>
        <time>2019-02-23T10:02:25Z</time>
      </trkpt>
      <trkpt lat="42.34934" lon="2.11652">
        <ele>1830.01</ele>
        <time>2019-02-23T10:02:30Z</time>
      </trkpt>
      <trkpt lat="42.34931" lon="2.11653">
        <ele>1831.45</ele>
        <time>2019-02-23T10:02:37Z</time>
      </trkpt>
      <trkpt lat="42.34922" lon="2.11656">
        <ele>1832.89</ele>
        <time>2019-02-23T10:02:57Z</time>
      </trkpt>
      <trkpt lat="42.34919" lon="2.11657">
        <ele>1832.89</ele>
        <time>2019-02-23T10:03:00Z</time>
      </trkpt>
      <trkpt lat="42.34915" lon="2.11661">
        <ele>1832.41</ele>
        <time>2019-02-23T10:03:04Z</time>
      </trkpt>
      <trkpt lat="42.34914" lon="2.11661">
        <ele>1832.41</ele>
        <time>2019-02-23T10:03:06Z</time>
      </trkpt>
      <trkpt lat="42.34908" lon="2.11663">
        <ele>1831.45</ele>
        <time>2019-02-23T10:03:10Z</time>
      </trkpt>
      <trkpt lat="42.34901" lon="2.11665">
        <ele>1832.41</ele>
        <time>2019-02-23T10:03:14Z</time>
      </trkpt>
      <trkpt lat="42.34895" lon="2.11668">
        <ele>1832.89</ele>
        <time>2019-02-23T10:03:19Z</time>
      </trkpt>
      <trkpt lat="42.3489" lon="2.11667">
        <ele>1833.85</ele>
        <time>2019-02-23T10:03:22Z</time>
      </trkpt>
      <trkpt lat="42.34882" lon="2.11665">
        <ele>1835.29</ele>
        <time>2019-02-23T10:03:27Z</time>
      </trkpt>
      <trkpt lat="42.34874" lon="2.11666">
        <ele>1835.77</ele>
        <time>2019-02-23T10:03:47Z</time>
      </trkpt>
      <trkpt lat="42.3486" lon="2.11668">
        <ele>1836.74</ele>
        <time>2019-02-23T10:03:54Z</time>
      </trkpt>
      <trkpt lat="42.34857" lon="2.11667">
        <ele>1836.74</ele>
        <time>2019-02-23T10:03:57Z</time>
      </trkpt>
      <trkpt lat="42.34848" lon="2.11668">
        <ele>1836.26</ele>
        <time>2019-02-23T10:04:03Z</time>
      </trkpt>
      <trkpt lat="42.34821" lon="2.11672">
        <ele>1836.26</ele>
        <time>2019-02-23T10:04:19Z</time>
      </trkpt>
      <trkpt lat="42.34806" lon="2.11666">
        <ele>1837.22</ele>
        <time>2019-02-23T10:04:35Z</time>
      </trkpt>
      <trkpt lat="42.34777" lon="2.11653">
        <ele>1838.18</ele>
        <time>2019-02-23T10:04:51Z</time>
      </trkpt>
      <trkpt lat="42.34766" lon="2.11648">
        <ele>1837.7</ele>
        <time>2019-02-23T10:04:58Z</time>
      </trkpt>
      <trkpt lat="42.34752" lon="2.11648">
        <ele>1837.7</ele>
        <time>2019-02-23T10:05:07Z</time>
      </trkpt>
      <trkpt lat="42.34734" lon="2.11649">
        <ele>1838.18</ele>
        <time>2019-02-23T10:05:23Z</time>
      </trkpt>
      <trkpt lat="42.34726" lon="2.11654">
        <ele>1838.66</ele>
        <time>2019-02-23T10:05:36Z</time>
      </trkpt>
      <trkpt lat="42.34709" lon="2.11649">
        <ele>1841.54</ele>
        <time>2019-02-23T10:05:49Z</time>
      </trkpt>
      <trkpt lat="42.34703" lon="2.1165">
        <ele>1842.98</ele>
        <time>2019-02-23T10:05:58Z</time>
      </trkpt>
      <trkpt lat="42.34698" lon="2.11651">
        <ele>1842.02</ele>
        <time>2019-02-23T10:06:03Z</time>
      </trkpt>
      <trkpt lat="42.34694" lon="2.11652">
        <ele>1842.02</ele>
        <time>2019-02-23T10:06:05Z</time>
      </trkpt>
      <trkpt lat="42.34689" lon="2.11653">
        <ele>1842.5</ele>
        <time>2019-02-23T10:06:08Z</time>
      </trkpt>
      <trkpt lat="42.34673" lon="2.11657">
        <ele>1846.35</ele>
        <time>2019-02-23T10:06:21Z</time>
      </trkpt>
      <trkpt lat="42.3467" lon="2.11656">
        <ele>1846.83</ele>
        <time>2019-02-23T10:06:23Z</time>
      </trkpt>
      <trkpt lat="42.34647" lon="2.11656">
        <ele>1850.68</ele>
        <time>2019-02-23T10:06:42Z</time>
      </trkpt>
      <trkpt lat="42.34628" lon="2.11659">
        <ele>1850.68</ele>
        <time>2019-02-23T10:06:58Z</time>
      </trkpt>
      <trkpt lat="42.34607" lon="2.11664">
        <ele>1852.6</ele>
        <time>2019-02-23T10:07:15Z</time>
      </trkpt>
      <trkpt lat="42.34587" lon="2.11663">
        <ele>1855.96</ele>
        <time>2019-02-23T10:07:29Z</time>
      </trkpt>
      <trkpt lat="42.34584" lon="2.11663">
        <ele>1856.92</ele>
        <time>2019-02-23T10:07:31Z</time>
      </trkpt>
      <trkpt lat="42.34571" lon="2.1166">
        <ele>1858.37</ele>
        <time>2019-02-23T10:07:42Z</time>
      </trkpt>
      <trkpt lat="42.34566" lon="2.11661">
        <ele>1858.85</ele>
        <time>2019-02-23T10:07:50Z</time>
      </trkpt>
      <trkpt lat="42.34562" lon="2.1166">
        <ele>1860.29</ele>
        <time>2019-02-23T10:07:53Z</time>
      </trkpt>
      <trkpt lat="42.34559" lon="2.11661">
        <ele>1860.29</ele>
        <time>2019-02-23T10:07:57Z</time>
      </trkpt>
      <trkpt lat="42.34547" lon="2.11666">
        <ele>1862.69</ele>
        <time>2019-02-23T10:08:07Z</time>
      </trkpt>
      <trkpt lat="42.34543" lon="2.11669">
        <ele>1863.17</ele>
        <time>2019-02-23T10:08:11Z</time>
      </trkpt>
      <trkpt lat="42.34538" lon="2.11671">
        <ele>1863.17</ele>
        <time>2019-02-23T10:08:14Z</time>
      </trkpt>
      <trkpt lat="42.34524" lon="2.11679">
        <ele>1865.09</ele>
        <time>2019-02-23T10:08:24Z</time>
      </trkpt>
      <trkpt lat="42.34501" lon="2.11693">
        <ele>1866.54</ele>
        <time>2019-02-23T10:08:43Z</time>
      </trkpt>
      <trkpt lat="42.34497" lon="2.11697">
        <ele>1866.54</ele>
        <time>2019-02-23T10:08:48Z</time>
      </trkpt>
      <trkpt lat="42.34492" lon="2.11701">
        <ele>1867.02</ele>
        <time>2019-02-23T10:08:53Z</time>
      </trkpt>
      <trkpt lat="42.3447" lon="2.11706">
        <ele>1869.9</ele>
        <time>2019-02-23T10:09:08Z</time>
      </trkpt>
      <trkpt lat="42.3445" lon="2.11705">
        <ele>1873.27</ele>
        <time>2019-02-23T10:09:24Z</time>
      </trkpt>
      <trkpt lat="42.34439" lon="2.11704">
        <ele>1873.75</ele>
        <time>2019-02-23T10:09:33Z</time>
      </trkpt>
      <trkpt lat="42.34409" lon="2.1171">
        <ele>1874.23</ele>
        <time>2019-02-23T10:09:50Z</time>
      </trkpt>
      <trkpt lat="42.34385" lon="2.11715">
        <ele>1873.75</ele>
        <time>2019-02-23T10:10:02Z</time>
      </trkpt>
      <trkpt lat="42.34363" lon="2.11728">
        <ele>1873.75</ele>
        <time>2019-02-23T10:10:17Z</time>
      </trkpt>
      <trkpt lat="42.34341" lon="2.11739">
        <ele>1873.27</ele>
        <time>2019-02-23T10:10:31Z</time>
      </trkpt>
      <trkpt lat="42.34317" lon="2.11748">
        <ele>1872.79</ele>
        <time>2019-02-23T10:10:47Z</time>
      </trkpt>
      <trkpt lat="42.34289" lon="2.11762">
        <ele>1873.27</ele>
        <time>2019-02-23T10:11:01Z</time>
      </trkpt>
      <trkpt lat="42.34263" lon="2.11774">
        <ele>1873.75</ele>
        <time>2019-02-23T10:11:15Z</time>
      </trkpt>
      <trkpt lat="42.34239" lon="2.11778">
        <ele>1873.75</ele>
        <time>2019-02-23T10:11:32Z</time>
      </trkpt>
      <trkpt lat="42.34232" lon="2.11783">
        <ele>1873.75</ele>
        <time>2019-02-23T10:11:39Z</time>
      </trkpt>
      <trkpt lat="42.34206" lon="2.11815">
        <ele>1873.27</ele>
        <time>2019-02-23T10:11:55Z</time>
      </trkpt>
      <trkpt lat="42.34173" lon="2.11841">
        <ele>1873.27</ele>
        <time>2019-02-23T10:12:11Z</time>
      </trkpt>
      <trkpt lat="42.3415" lon="2.11847">
        <ele>1873.27</ele>
        <time>2019-02-23T10:12:24Z</time>
      </trkpt>
      <trkpt lat="42.34124" lon="2.11862">
        <ele>1872.79</ele>
        <time>2019-02-23T10:12:41Z</time>
      </trkpt>
      <trkpt lat="42.34106" lon="2.1188">
        <ele>1873.27</ele>
        <time>2019-02-23T10:12:56Z</time>
      </trkpt>
      <trkpt lat="42.34092" lon="2.11892">
        <ele>1872.79</ele>
        <time>2019-02-23T10:13:06Z</time>
      </trkpt>
      <trkpt lat="42.34076" lon="2.11877">
        <ele>1876.63</ele>
        <time>2019-02-23T10:13:21Z</time>
      </trkpt>
      <trkpt lat="42.34066" lon="2.11855">
        <ele>1880</ele>
        <time>2019-02-23T10:13:34Z</time>
      </trkpt>
      <trkpt lat="42.34051" lon="2.1185">
        <ele>1883.84</ele>
        <time>2019-02-23T10:13:46Z</time>
      </trkpt>
      <trkpt lat="42.34033" lon="2.11843">
        <ele>1886.24</ele>
        <time>2019-02-23T10:14:02Z</time>
      </trkpt>
      <trkpt lat="42.34026" lon="2.11841">
        <ele>1887.21</ele>
        <time>2019-02-23T10:14:13Z</time>
      </trkpt>
      <trkpt lat="42.34022" lon="2.11841">
        <ele>1888.17</ele>
        <time>2019-02-23T10:14:18Z</time>
      </trkpt>
      <trkpt lat="42.34006" lon="2.11841">
        <ele>1892.01</ele>
        <time>2019-02-23T10:14:32Z</time>
      </trkpt>
      <trkpt lat="42.33996" lon="2.11838">
        <ele>1892.97</ele>
        <time>2019-02-23T10:14:43Z</time>
      </trkpt>
      <trkpt lat="42.33989" lon="2.11837">
        <ele>1892.49</ele>
        <time>2019-02-23T10:14:49Z</time>
      </trkpt>
      <trkpt lat="42.33977" lon="2.11834">
        <ele>1892.49</ele>
        <time>2019-02-23T10:15:01Z</time>
      </trkpt>
      <trkpt lat="42.33975" lon="2.11834">
        <ele>1891.53</ele>
        <time>2019-02-23T10:15:04Z</time>
      </trkpt>
      <trkpt lat="42.33968" lon="2.11831">
        <ele>1890.57</ele>
        <time>2019-02-23T10:15:10Z</time>
      </trkpt>
      <trkpt lat="42.3396" lon="2.11827">
        <ele>1888.17</ele>
        <time>2019-02-23T10:15:18Z</time>
      </trkpt>
      <trkpt lat="42.33958" lon="2.11827">
        <ele>1890.57</ele>
        <time>2019-02-23T10:15:41Z</time>
      </trkpt>
      <trkpt lat="42.33953" lon="2.11829">
        <ele>1889.61</ele>
        <time>2019-02-23T10:15:53Z</time>
      </trkpt>
      <trkpt lat="42.3395" lon="2.11826">
        <ele>1888.17</ele>
        <time>2019-02-23T10:17:10Z</time>
      </trkpt>
      <trkpt lat="42.33952" lon="2.11823">
        <ele>1888.65</ele>
        <time>2019-02-23T10:17:12Z</time>
      </trkpt>
      <trkpt lat="42.33953" lon="2.11819">
        <ele>1889.13</ele>
        <time>2019-02-23T10:17:15Z</time>
      </trkpt>
      <trkpt lat="42.33957" lon="2.11798">
        <ele>1891.53</ele>
        <time>2019-02-23T10:17:28Z</time>
      </trkpt>
      <trkpt lat="42.33958" lon="2.11788">
        <ele>1892.97</ele>
        <time>2019-02-23T10:17:33Z</time>
      </trkpt>
      <trkpt lat="42.33962" lon="2.11772">
        <ele>1893.45</ele>
        <time>2019-02-23T10:17:41Z</time>
      </trkpt>
      <trkpt lat="42.33967" lon="2.11748">
        <ele>1894.42</ele>
        <time>2019-02-23T10:17:51Z</time>
      </trkpt>
      <trkpt lat="42.33973" lon="2.11717">
        <ele>1895.86</ele>
        <time>2019-02-23T10:18:07Z</time>
      </trkpt>
      <trkpt lat="42.33992" lon="2.11695">
        <ele>1898.26</ele>
        <time>2019-02-23T10:18:21Z</time>
      </trkpt>
      <trkpt lat="42.34003" lon="2.11684">
        <ele>1899.22</ele>
        <time>2019-02-23T10:18:28Z</time>
      </trkpt>
      <trkpt lat="42.34012" lon="2.11674">
        <ele>1900.18</ele>
        <time>2019-02-23T10:18:35Z</time>
      </trkpt>
      <trkpt lat="42.34031" lon="2.11653">
        <ele>1902.11</ele>
        <time>2019-02-23T10:18:50Z</time>
      </trkpt>
      <trkpt lat="42.34037" lon="2.11628">
        <ele>1903.07</ele>
        <time>2019-02-23T10:19:04Z</time>
      </trkpt>
      <trkpt lat="42.3404" lon="2.11602">
        <ele>1902.11</ele>
        <time>2019-02-23T10:19:18Z</time>
      </trkpt>
      <trkpt lat="42.34038" lon="2.11594">
        <ele>1901.63</ele>
        <time>2019-02-23T10:19:22Z</time>
      </trkpt>
      <trkpt lat="42.34038" lon="2.11585">
        <ele>1901.14</ele>
        <time>2019-02-23T10:19:26Z</time>
      </trkpt>
      <trkpt lat="42.3404" lon="2.11568">
        <ele>1900.18</ele>
        <time>2019-02-23T10:19:34Z</time>
      </trkpt>
      <trkpt lat="42.34033" lon="2.11541">
        <ele>1899.22</ele>
        <time>2019-02-23T10:19:49Z</time>
      </trkpt>
      <trkpt lat="42.34028" lon="2.11532">
        <ele>1898.74</ele>
        <time>2019-02-23T10:20:04Z</time>
      </trkpt>
      <trkpt lat="42.34028" lon="2.1153">
        <ele>1899.22</ele>
        <time>2019-02-23T10:20:07Z</time>
      </trkpt>
      <trkpt lat="42.34024" lon="2.11521">
        <ele>1898.74</ele>
        <time>2019-02-23T10:20:11Z</time>
      </trkpt>
      <trkpt lat="42.34022" lon="2.11513">
        <ele>1898.26</ele>
        <time>2019-02-23T10:20:15Z</time>
      </trkpt>
      <trkpt lat="42.34016" lon="2.11498">
        <ele>1896.82</ele>
        <time>2019-02-23T10:20:30Z</time>
      </trkpt>
      <trkpt lat="42.34015" lon="2.11496">
        <ele>1896.82</ele>
        <time>2019-02-23T10:20:44Z</time>
      </trkpt>
      <trkpt lat="42.3401" lon="2.11479">
        <ele>1895.86</ele>
        <time>2019-02-23T10:20:59Z</time>
      </trkpt>
      <trkpt lat="42.34007" lon="2.11469">
        <ele>1895.38</ele>
        <time>2019-02-23T10:21:06Z</time>
      </trkpt>
      <trkpt lat="42.34005" lon="2.11458">
        <ele>1894.9</ele>
        <time>2019-02-23T10:21:19Z</time>
      </trkpt>
      <trkpt lat="42.34005" lon="2.11453">
        <ele>1895.38</ele>
        <time>2019-02-23T10:21:25Z</time>
      </trkpt>
      <trkpt lat="42.33995" lon="2.11416">
        <ele>1892.01</ele>
        <time>2019-02-23T10:21:35Z</time>
      </trkpt>
      <trkpt lat="42.33992" lon="2.11407">
        <ele>1891.05</ele>
        <time>2019-02-23T10:21:37Z</time>
      </trkpt>
      <trkpt lat="42.33975" lon="2.11371">
        <ele>1887.69</ele>
        <time>2019-02-23T10:21:47Z</time>
      </trkpt>
      <trkpt lat="42.33956" lon="2.11346">
        <ele>1884.8</ele>
        <time>2019-02-23T10:21:55Z</time>
      </trkpt>
      <trkpt lat="42.3395" lon="2.11365">
        <ele>1883.36</ele>
        <time>2019-02-23T10:22:04Z</time>
      </trkpt>
      <trkpt lat="42.33951" lon="2.11415">
        <ele>1879.51</ele>
        <time>2019-02-23T10:22:20Z</time>
      </trkpt>
      <trkpt lat="42.3394" lon="2.11421">
        <ele>1876.15</ele>
        <time>2019-02-23T10:22:29Z</time>
      </trkpt>
      <trkpt lat="42.33926" lon="2.114">
        <ele>1875.19</ele>
        <time>2019-02-23T10:22:34Z</time>
      </trkpt>
      <trkpt lat="42.33902" lon="2.1136">
        <ele>1872.3</ele>
        <time>2019-02-23T10:22:44Z</time>
      </trkpt>
      <trkpt lat="42.33896" lon="2.11345">
        <ele>1870.38</ele>
        <time>2019-02-23T10:22:55Z</time>
      </trkpt>
      <trkpt lat="42.33897" lon="2.11341">
        <ele>1870.86</ele>
        <time>2019-02-23T10:23:04Z</time>
      </trkpt>
      <trkpt lat="42.33896" lon="2.11325">
        <ele>1869.9</ele>
        <time>2019-02-23T10:23:16Z</time>
      </trkpt>
      <trkpt lat="42.33894" lon="2.11325">
        <ele>1867.98</ele>
        <time>2019-02-23T10:23:29Z</time>
      </trkpt>
      <trkpt lat="42.3389" lon="2.11319">
        <ele>1867.02</ele>
        <time>2019-02-23T10:23:33Z</time>
      </trkpt>
      <trkpt lat="42.33879" lon="2.11309">
        <ele>1862.69</ele>
        <time>2019-02-23T10:23:40Z</time>
      </trkpt>
      <trkpt lat="42.33876" lon="2.11306">
        <ele>1862.21</ele>
        <time>2019-02-23T10:23:41Z</time>
      </trkpt>
      <trkpt lat="42.33861" lon="2.11288">
        <ele>1859.33</ele>
        <time>2019-02-23T10:23:48Z</time>
      </trkpt>
      <trkpt lat="42.33859" lon="2.11282">
        <ele>1857.89</ele>
        <time>2019-02-23T10:23:51Z</time>
      </trkpt>
      <trkpt lat="42.33857" lon="2.1128">
        <ele>1855.96</ele>
        <time>2019-02-23T10:23:53Z</time>
      </trkpt>
      <trkpt lat="42.33856" lon="2.11278">
        <ele>1855</ele>
        <time>2019-02-23T10:23:55Z</time>
      </trkpt>
      <trkpt lat="42.33852" lon="2.11271">
        <ele>1852.12</ele>
        <time>2019-02-23T10:24:05Z</time>
      </trkpt>
      <trkpt lat="42.33843" lon="2.11265">
        <ele>1850.68</ele>
        <time>2019-02-23T10:24:14Z</time>
      </trkpt>
      <trkpt lat="42.33839" lon="2.11257">
        <ele>1847.31</ele>
        <time>2019-02-23T10:24:19Z</time>
      </trkpt>
      <trkpt lat="42.33833" lon="2.11255">
        <ele>1845.87</ele>
        <time>2019-02-23T10:24:22Z</time>
      </trkpt>
      <trkpt lat="42.33826" lon="2.11252">
        <ele>1842.98</ele>
        <time>2019-02-23T10:24:27Z</time>
      </trkpt>
      <trkpt lat="42.33817" lon="2.11247">
        <ele>1839.62</ele>
        <time>2019-02-23T10:24:31Z</time>
      </trkpt>
      <trkpt lat="42.33815" lon="2.11246">
        <ele>1839.14</ele>
        <time>2019-02-23T10:24:32Z</time>
      </trkpt>
      <trkpt lat="42.33808" lon="2.11241">
        <ele>1835.77</ele>
        <time>2019-02-23T10:24:36Z</time>
      </trkpt>
      <trkpt lat="42.33807" lon="2.1124">
        <ele>1836.26</ele>
        <time>2019-02-23T10:24:37Z</time>
      </trkpt>
      <trkpt lat="42.33804" lon="2.11225">
        <ele>1833.37</ele>
        <time>2019-02-23T10:24:43Z</time>
      </trkpt>
      <trkpt lat="42.33802" lon="2.11224">
        <ele>1833.37</ele>
        <time>2019-02-23T10:24:44Z</time>
      </trkpt>
      <trkpt lat="42.33798" lon="2.11226">
        <ele>1831.45</ele>
        <time>2019-02-23T10:25:02Z</time>
      </trkpt>
      <trkpt lat="42.33786" lon="2.11224">
        <ele>1828.08</ele>
        <time>2019-02-23T10:25:09Z</time>
      </trkpt>
      <trkpt lat="42.33778" lon="2.11219">
        <ele>1825.2</ele>
        <time>2019-02-23T10:25:13Z</time>
      </trkpt>
      <trkpt lat="42.33772" lon="2.11214">
        <ele>1823.28</ele>
        <time>2019-02-23T10:25:16Z</time>
      </trkpt>
      <trkpt lat="42.33764" lon="2.11215">
        <ele>1821.84</ele>
        <time>2019-02-23T10:25:31Z</time>
      </trkpt>
      <trkpt lat="42.33763" lon="2.11212">
        <ele>1822.32</ele>
        <time>2019-02-23T10:25:43Z</time>
      </trkpt>
      <trkpt lat="42.33767" lon="2.1117">
        <ele>1819.43</ele>
        <time>2019-02-23T10:25:55Z</time>
      </trkpt>
      <trkpt lat="42.33783" lon="2.11123">
        <ele>1815.59</ele>
        <time>2019-02-23T10:26:06Z</time>
      </trkpt>
      <trkpt lat="42.33785" lon="2.11099">
        <ele>1812.22</ele>
        <time>2019-02-23T10:26:15Z</time>
      </trkpt>
      <trkpt lat="42.33772" lon="2.11088">
        <ele>1808.86</ele>
        <time>2019-02-23T10:26:22Z</time>
      </trkpt>
      <trkpt lat="42.33771" lon="2.11087">
        <ele>1808.86</ele>
        <time>2019-02-23T10:26:23Z</time>
      </trkpt>
      <trkpt lat="42.33767" lon="2.11088">
        <ele>1807.9</ele>
        <time>2019-02-23T10:26:37Z</time>
      </trkpt>
      <trkpt lat="42.33768" lon="2.11099">
        <ele>1808.38</ele>
        <time>2019-02-23T10:26:55Z</time>
      </trkpt>
      <trkpt lat="42.33761" lon="2.11101">
        <ele>1808.38</ele>
        <time>2019-02-23T10:27:04Z</time>
      </trkpt>
      <trkpt lat="42.33757" lon="2.11104">
        <ele>1808.86</ele>
        <time>2019-02-23T10:27:07Z</time>
      </trkpt>
      <trkpt lat="42.33749" lon="2.11127">
        <ele>1807.9</ele>
        <time>2019-02-23T10:27:23Z</time>
      </trkpt>
      <trkpt lat="42.33748" lon="2.11129">
        <ele>1807.9</ele>
        <time>2019-02-23T10:27:31Z</time>
      </trkpt>
      <trkpt lat="42.33747" lon="2.11134">
        <ele>1807.9</ele>
        <time>2019-02-23T10:27:38Z</time>
      </trkpt>
      <trkpt lat="42.33744" lon="2.11137">
        <ele>1807.9</ele>
        <time>2019-02-23T10:27:54Z</time>
      </trkpt>
      <trkpt lat="42.33744" lon="2.11142">
        <ele>1808.86</ele>
        <time>2019-02-23T10:27:57Z</time>
      </trkpt>
      <trkpt lat="42.3374" lon="2.11145">
        <ele>1807.9</ele>
        <time>2019-02-23T10:28:16Z</time>
      </trkpt>
      <trkpt lat="42.33739" lon="2.11148">
        <ele>1807.9</ele>
        <time>2019-02-23T10:28:21Z</time>
      </trkpt>
      <trkpt lat="42.33735" lon="2.11153">
        <ele>1807.42</ele>
        <time>2019-02-23T10:28:28Z</time>
      </trkpt>
      <trkpt lat="42.3373" lon="2.11159">
        <ele>1806.94</ele>
        <time>2019-02-23T10:28:33Z</time>
      </trkpt>
      <trkpt lat="42.33721" lon="2.11168">
        <ele>1805.97</ele>
        <time>2019-02-23T10:28:47Z</time>
      </trkpt>
      <trkpt lat="42.33711" lon="2.11173">
        <ele>1804.53</ele>
        <time>2019-02-23T10:28:58Z</time>
      </trkpt>
      <trkpt lat="42.33705" lon="2.11175">
        <ele>1803.09</ele>
        <time>2019-02-23T10:29:04Z</time>
      </trkpt>
      <trkpt lat="42.33701" lon="2.11186">
        <ele>1801.17</ele>
        <time>2019-02-23T10:29:18Z</time>
      </trkpt>
      <trkpt lat="42.33701" lon="2.11186">
        <ele>1801.17</ele>
        <time>2019-02-23T10:29:46Z</time>
      </trkpt>
      <trkpt lat="42.33701" lon="2.11185">
        <ele>1801.65</ele>
        <time>2019-02-23T10:30:11Z</time>
      </trkpt>
      <trkpt lat="42.33701" lon="2.11186">
        <ele>1801.65</ele>
        <time>2019-02-23T10:30:33Z</time>
      </trkpt>
      <trkpt lat="42.337" lon="2.11186">
        <ele>1802.13</ele>
        <time>2019-02-23T10:30:58Z</time>
      </trkpt>
      <trkpt lat="42.33701" lon="2.11192">
        <ele>1802.13</ele>
        <time>2019-02-23T10:31:13Z</time>
      </trkpt>
      <trkpt lat="42.33697" lon="2.11213">
        <ele>1803.09</ele>
        <time>2019-02-23T10:31:25Z</time>
      </trkpt>
      <trkpt lat="42.33699" lon="2.11232">
        <ele>1803.09</ele>
        <time>2019-02-23T10:31:35Z</time>
      </trkpt>
      <trkpt lat="42.33701" lon="2.11243">
        <ele>1804.05</ele>
        <time>2019-02-23T10:31:41Z</time>
      </trkpt>
      <trkpt lat="42.33701" lon="2.11246">
        <ele>1805.49</ele>
        <time>2019-02-23T10:31:43Z</time>
      </trkpt>
      <trkpt lat="42.33699" lon="2.11267">
        <ele>1807.9</ele>
        <time>2019-02-23T10:31:58Z</time>
      </trkpt>
      <trkpt lat="42.33697" lon="2.11281">
        <ele>1807.9</ele>
        <time>2019-02-23T10:32:05Z</time>
      </trkpt>
      <trkpt lat="42.33697" lon="2.11311">
        <ele>1810.78</ele>
        <time>2019-02-23T10:32:25Z</time>
      </trkpt>
      <trkpt lat="42.33697" lon="2.11311">
        <ele>1810.78</ele>
        <time>2019-02-23T10:32:26Z</time>
      </trkpt>
      <trkpt lat="42.33698" lon="2.1132">
        <ele>1811.74</ele>
        <time>2019-02-23T10:32:31Z</time>
      </trkpt>
      <trkpt lat="42.33699" lon="2.11325">
        <ele>1813.18</ele>
        <time>2019-02-23T10:32:34Z</time>
      </trkpt>
      <trkpt lat="42.33702" lon="2.11328">
        <ele>1814.63</ele>
        <time>2019-02-23T10:32:38Z</time>
      </trkpt>
      <trkpt lat="42.33703" lon="2.11329">
        <ele>1816.07</ele>
        <time>2019-02-23T10:32:44Z</time>
      </trkpt>
      <trkpt lat="42.33704" lon="2.11334">
        <ele>1816.07</ele>
        <time>2019-02-23T10:32:48Z</time>
      </trkpt>
      <trkpt lat="42.33709" lon="2.1134">
        <ele>1817.51</ele>
        <time>2019-02-23T10:32:58Z</time>
      </trkpt>
      <trkpt lat="42.33709" lon="2.11345">
        <ele>1817.99</ele>
        <time>2019-02-23T10:33:00Z</time>
      </trkpt>
      <trkpt lat="42.33712" lon="2.11351">
        <ele>1818.47</ele>
        <time>2019-02-23T10:33:05Z</time>
      </trkpt>
      <trkpt lat="42.33718" lon="2.11365">
        <ele>1818.47</ele>
        <time>2019-02-23T10:33:13Z</time>
      </trkpt>
      <trkpt lat="42.3372" lon="2.11368">
        <ele>1818.95</ele>
        <time>2019-02-23T10:33:15Z</time>
      </trkpt>
      <trkpt lat="42.33722" lon="2.11377">
        <ele>1820.39</ele>
        <time>2019-02-23T10:33:20Z</time>
      </trkpt>
      <trkpt lat="42.33723" lon="2.1138">
        <ele>1820.39</ele>
        <time>2019-02-23T10:33:24Z</time>
      </trkpt>
      <trkpt lat="42.33723" lon="2.11386">
        <ele>1820.87</ele>
        <time>2019-02-23T10:33:28Z</time>
      </trkpt>
      <trkpt lat="42.33725" lon="2.11403">
        <ele>1821.35</ele>
        <time>2019-02-23T10:33:41Z</time>
      </trkpt>
      <trkpt lat="42.33728" lon="2.11416">
        <ele>1821.84</ele>
        <time>2019-02-23T10:33:46Z</time>
      </trkpt>
      <trkpt lat="42.33733" lon="2.11429">
        <ele>1821.84</ele>
        <time>2019-02-23T10:33:53Z</time>
      </trkpt>
      <trkpt lat="42.33735" lon="2.1144">
        <ele>1822.32</ele>
        <time>2019-02-23T10:34:08Z</time>
      </trkpt>
      <trkpt lat="42.33736" lon="2.11444">
        <ele>1821.84</ele>
        <time>2019-02-23T10:34:10Z</time>
      </trkpt>
      <trkpt lat="42.33739" lon="2.11458">
        <ele>1822.32</ele>
        <time>2019-02-23T10:34:15Z</time>
      </trkpt>
      <trkpt lat="42.33749" lon="2.11488">
        <ele>1821.84</ele>
        <time>2019-02-23T10:34:34Z</time>
      </trkpt>
      <trkpt lat="42.33755" lon="2.11497">
        <ele>1822.8</ele>
        <time>2019-02-23T10:34:49Z</time>
      </trkpt>
      <trkpt lat="42.33756" lon="2.11503">
        <ele>1822.8</ele>
        <time>2019-02-23T10:35:06Z</time>
      </trkpt>
      <trkpt lat="42.33756" lon="2.11507">
        <ele>1823.28</ele>
        <time>2019-02-23T10:35:10Z</time>
      </trkpt>
      <trkpt lat="42.33756" lon="2.1151">
        <ele>1822.8</ele>
        <time>2019-02-23T10:35:12Z</time>
      </trkpt>
      <trkpt lat="42.33758" lon="2.11522">
        <ele>1823.76</ele>
        <time>2019-02-23T10:35:20Z</time>
      </trkpt>
      <trkpt lat="42.33762" lon="2.11535">
        <ele>1825.2</ele>
        <time>2019-02-23T10:35:31Z</time>
      </trkpt>
      <trkpt lat="42.33764" lon="2.11541">
        <ele>1826.16</ele>
        <time>2019-02-23T10:35:35Z</time>
      </trkpt>
      <trkpt lat="42.33768" lon="2.11553">
        <ele>1828.08</ele>
        <time>2019-02-23T10:35:48Z</time>
      </trkpt>
      <trkpt lat="42.33768" lon="2.11564">
        <ele>1828.56</ele>
        <time>2019-02-23T10:35:55Z</time>
      </trkpt>
      <trkpt lat="42.33767" lon="2.11577">
        <ele>1828.56</ele>
        <time>2019-02-23T10:36:10Z</time>
      </trkpt>
      <trkpt lat="42.33766" lon="2.11582">
        <ele>1829.05</ele>
        <time>2019-02-23T10:36:28Z</time>
      </trkpt>
      <trkpt lat="42.33764" lon="2.1159">
        <ele>1829.05</ele>
        <time>2019-02-23T10:36:36Z</time>
      </trkpt>
      <trkpt lat="42.33765" lon="2.11593">
        <ele>1829.53</ele>
        <time>2019-02-23T10:36:39Z</time>
      </trkpt>
      <trkpt lat="42.33763" lon="2.11602">
        <ele>1829.53</ele>
        <time>2019-02-23T10:36:49Z</time>
      </trkpt>
      <trkpt lat="42.33763" lon="2.11609">
        <ele>1829.53</ele>
        <time>2019-02-23T10:36:55Z</time>
      </trkpt>
      <trkpt lat="42.33762" lon="2.11621">
        <ele>1830.01</ele>
        <time>2019-02-23T10:37:08Z</time>
      </trkpt>
      <trkpt lat="42.33763" lon="2.11623">
        <ele>1830.01</ele>
        <time>2019-02-23T10:37:17Z</time>
      </trkpt>
      <trkpt lat="42.33767" lon="2.11633">
        <ele>1830.49</ele>
        <time>2019-02-23T10:37:25Z</time>
      </trkpt>
      <trkpt lat="42.33775" lon="2.11655">
        <ele>1833.85</ele>
        <time>2019-02-23T10:37:38Z</time>
      </trkpt>
      <trkpt lat="42.33778" lon="2.11665">
        <ele>1835.29</ele>
        <time>2019-02-23T10:37:44Z</time>
      </trkpt>
      <trkpt lat="42.33781" lon="2.11675">
        <ele>1837.22</ele>
        <time>2019-02-23T10:37:50Z</time>
      </trkpt>
      <trkpt lat="42.33783" lon="2.11678">
        <ele>1838.66</ele>
        <time>2019-02-23T10:37:54Z</time>
      </trkpt>
      <trkpt lat="42.3379" lon="2.11688">
        <ele>1840.58</ele>
        <time>2019-02-23T10:38:02Z</time>
      </trkpt>
      <trkpt lat="42.338" lon="2.11703">
        <ele>1843.47</ele>
        <time>2019-02-23T10:38:15Z</time>
      </trkpt>
      <trkpt lat="42.33802" lon="2.11706">
        <ele>1843.95</ele>
        <time>2019-02-23T10:38:17Z</time>
      </trkpt>
      <trkpt lat="42.33815" lon="2.11729">
        <ele>1845.39</ele>
        <time>2019-02-23T10:38:34Z</time>
      </trkpt>
      <trkpt lat="42.33821" lon="2.11744">
        <ele>1848.27</ele>
        <time>2019-02-23T10:38:46Z</time>
      </trkpt>
      <trkpt lat="42.33821" lon="2.11745">
        <ele>1848.75</ele>
        <time>2019-02-23T10:38:47Z</time>
      </trkpt>
      <trkpt lat="42.33824" lon="2.11752">
        <ele>1849.71</ele>
        <time>2019-02-23T10:38:52Z</time>
      </trkpt>
      <trkpt lat="42.33836" lon="2.11765">
        <ele>1853.56</ele>
        <time>2019-02-23T10:39:03Z</time>
      </trkpt>
      <trkpt lat="42.33839" lon="2.11769">
        <ele>1854.52</ele>
        <time>2019-02-23T10:39:06Z</time>
      </trkpt>
      <trkpt lat="42.33847" lon="2.11779">
        <ele>1857.89</ele>
        <time>2019-02-23T10:39:16Z</time>
      </trkpt>
      <trkpt lat="42.33849" lon="2.11781">
        <ele>1859.33</ele>
        <time>2019-02-23T10:39:31Z</time>
      </trkpt>
      <trkpt lat="42.33853" lon="2.11788">
        <ele>1860.29</ele>
        <time>2019-02-23T10:39:46Z</time>
      </trkpt>
      <trkpt lat="42.33855" lon="2.11801">
        <ele>1860.77</ele>
        <time>2019-02-23T10:39:53Z</time>
      </trkpt>
      <trkpt lat="42.33861" lon="2.11819">
        <ele>1861.73</ele>
        <time>2019-02-23T10:40:08Z</time>
      </trkpt>
      <trkpt lat="42.33859" lon="2.11824">
        <ele>1861.73</ele>
        <time>2019-02-23T10:40:13Z</time>
      </trkpt>
      <trkpt lat="42.33858" lon="2.11829">
        <ele>1861.73</ele>
        <time>2019-02-23T10:40:16Z</time>
      </trkpt>
      <trkpt lat="42.33857" lon="2.11842">
        <ele>1860.77</ele>
        <time>2019-02-23T10:40:25Z</time>
      </trkpt>
      <trkpt lat="42.33856" lon="2.11849">
        <ele>1860.77</ele>
        <time>2019-02-23T10:40:28Z</time>
      </trkpt>
      <trkpt lat="42.33857" lon="2.11859">
        <ele>1861.73</ele>
        <time>2019-02-23T10:40:35Z</time>
      </trkpt>
      <trkpt lat="42.33857" lon="2.11864">
        <ele>1862.21</ele>
        <time>2019-02-23T10:40:37Z</time>
      </trkpt>
      <trkpt lat="42.33858" lon="2.11895">
        <ele>1863.17</ele>
        <time>2019-02-23T10:40:48Z</time>
      </trkpt>
      <trkpt lat="42.33861" lon="2.11913">
        <ele>1864.61</ele>
        <time>2019-02-23T10:40:57Z</time>
      </trkpt>
      <trkpt lat="42.33865" lon="2.1192">
        <ele>1866.06</ele>
        <time>2019-02-23T10:41:12Z</time>
      </trkpt>
      <trkpt lat="42.33868" lon="2.11928">
        <ele>1867.98</ele>
        <time>2019-02-23T10:41:24Z</time>
      </trkpt>
      <trkpt lat="42.33869" lon="2.11929">
        <ele>1867.98</ele>
        <time>2019-02-23T10:41:26Z</time>
      </trkpt>
      <trkpt lat="42.33866" lon="2.11935">
        <ele>1867.5</ele>
        <time>2019-02-23T10:41:32Z</time>
      </trkpt>
      <trkpt lat="42.33861" lon="2.11951">
        <ele>1868.46</ele>
        <time>2019-02-23T10:41:42Z</time>
      </trkpt>
      <trkpt lat="42.33854" lon="2.11979">
        <ele>1870.86</ele>
        <time>2019-02-23T10:42:00Z</time>
      </trkpt>
      <trkpt lat="42.33852" lon="2.11991">
        <ele>1873.27</ele>
        <time>2019-02-23T10:42:08Z</time>
      </trkpt>
      <trkpt lat="42.3384" lon="2.12021">
        <ele>1876.63</ele>
        <time>2019-02-23T10:42:24Z</time>
      </trkpt>
      <trkpt lat="42.33839" lon="2.12033">
        <ele>1877.59</ele>
        <time>2019-02-23T10:42:30Z</time>
      </trkpt>
      <trkpt lat="42.33832" lon="2.12042">
        <ele>1878.07</ele>
        <time>2019-02-23T10:42:37Z</time>
      </trkpt>
      <trkpt lat="42.33829" lon="2.12044">
        <ele>1877.59</ele>
        <time>2019-02-23T10:42:53Z</time>
      </trkpt>
      <trkpt lat="42.33829" lon="2.1204">
        <ele>1878.07</ele>
        <time>2019-02-23T10:43:08Z</time>
      </trkpt>
      <trkpt lat="42.33828" lon="2.1204">
        <ele>1878.55</ele>
        <time>2019-02-23T10:43:29Z</time>
      </trkpt>
      <trkpt lat="42.33826" lon="2.12045">
        <ele>1879.03</ele>
        <time>2019-02-23T10:43:44Z</time>
      </trkpt>
      <trkpt lat="42.33825" lon="2.12051">
        <ele>1878.07</ele>
        <time>2019-02-23T10:44:01Z</time>
      </trkpt>
      <trkpt lat="42.3382" lon="2.12068">
        <ele>1876.63</ele>
        <time>2019-02-23T10:44:13Z</time>
      </trkpt>
      <trkpt lat="42.33814" lon="2.12077">
        <ele>1876.63</ele>
        <time>2019-02-23T10:44:20Z</time>
      </trkpt>
      <trkpt lat="42.33805" lon="2.12089">
        <ele>1876.63</ele>
        <time>2019-02-23T10:44:28Z</time>
      </trkpt>
      <trkpt lat="42.33794" lon="2.12115">
        <ele>1878.07</ele>
        <time>2019-02-23T10:44:42Z</time>
      </trkpt>
      <trkpt lat="42.3379" lon="2.12118">
        <ele>1877.11</ele>
        <time>2019-02-23T10:44:47Z</time>
      </trkpt>
      <trkpt lat="42.33788" lon="2.12123">
        <ele>1877.59</ele>
        <time>2019-02-23T10:44:50Z</time>
      </trkpt>
      <trkpt lat="42.33785" lon="2.12137">
        <ele>1877.11</ele>
        <time>2019-02-23T10:45:05Z</time>
      </trkpt>
      <trkpt lat="42.33784" lon="2.12139">
        <ele>1877.59</ele>
        <time>2019-02-23T10:45:06Z</time>
      </trkpt>
      <trkpt lat="42.33776" lon="2.12156">
        <ele>1878.07</ele>
        <time>2019-02-23T10:45:13Z</time>
      </trkpt>
      <trkpt lat="42.33776" lon="2.12161">
        <ele>1879.03</ele>
        <time>2019-02-23T10:45:16Z</time>
      </trkpt>
      <trkpt lat="42.33771" lon="2.12171">
        <ele>1880.96</ele>
        <time>2019-02-23T10:45:21Z</time>
      </trkpt>
      <trkpt lat="42.33769" lon="2.12177">
        <ele>1882.4</ele>
        <time>2019-02-23T10:45:26Z</time>
      </trkpt>
      <trkpt lat="42.33764" lon="2.12184">
        <ele>1883.84</ele>
        <time>2019-02-23T10:45:31Z</time>
      </trkpt>
      <trkpt lat="42.3376" lon="2.12201">
        <ele>1886.24</ele>
        <time>2019-02-23T10:45:44Z</time>
      </trkpt>
      <trkpt lat="42.33741" lon="2.12225">
        <ele>1887.69</ele>
        <time>2019-02-23T10:46:01Z</time>
      </trkpt>
      <trkpt lat="42.33726" lon="2.12255">
        <ele>1888.65</ele>
        <time>2019-02-23T10:46:19Z</time>
      </trkpt>
      <trkpt lat="42.33707" lon="2.12284">
        <ele>1891.05</ele>
        <time>2019-02-23T10:46:37Z</time>
      </trkpt>
      <trkpt lat="42.33699" lon="2.12314">
        <ele>1891.53</ele>
        <time>2019-02-23T10:46:51Z</time>
      </trkpt>
      <trkpt lat="42.33689" lon="2.12338">
        <ele>1892.49</ele>
        <time>2019-02-23T10:47:06Z</time>
      </trkpt>
      <trkpt lat="42.33689" lon="2.12338">
        <ele>1892.49</ele>
        <time>2019-02-23T10:47:12Z</time>
      </trkpt>
      <trkpt lat="42.33686" lon="2.12342">
        <ele>1893.45</ele>
        <time>2019-02-23T10:47:16Z</time>
      </trkpt>
      <trkpt lat="42.33682" lon="2.1235">
        <ele>1893.93</ele>
        <time>2019-02-23T10:47:25Z</time>
      </trkpt>
      <trkpt lat="42.3368" lon="2.12352">
        <ele>1893.93</ele>
        <time>2019-02-23T10:47:27Z</time>
      </trkpt>
      <trkpt lat="42.33672" lon="2.12377">
        <ele>1892.01</ele>
        <time>2019-02-23T10:47:37Z</time>
      </trkpt>
      <trkpt lat="42.33654" lon="2.1245">
        <ele>1892.01</ele>
        <time>2019-02-23T10:47:54Z</time>
      </trkpt>
      <trkpt lat="42.33662" lon="2.12517">
        <ele>1890.09</ele>
        <time>2019-02-23T10:48:10Z</time>
      </trkpt>
      <trkpt lat="42.33665" lon="2.12564">
        <ele>1889.13</ele>
        <time>2019-02-23T10:48:25Z</time>
      </trkpt>
      <trkpt lat="42.33651" lon="2.12599">
        <ele>1887.69</ele>
        <time>2019-02-23T10:48:33Z</time>
      </trkpt>
      <trkpt lat="42.33649" lon="2.12603">
        <ele>1886.72</ele>
        <time>2019-02-23T10:48:37Z</time>
      </trkpt>
      <trkpt lat="42.33648" lon="2.12618">
        <ele>1885.28</ele>
        <time>2019-02-23T10:48:44Z</time>
      </trkpt>
      <trkpt lat="42.33648" lon="2.12629">
        <ele>1883.84</ele>
        <time>2019-02-23T10:48:49Z</time>
      </trkpt>
      <trkpt lat="42.33643" lon="2.12691">
        <ele>1880</ele>
        <time>2019-02-23T10:49:05Z</time>
      </trkpt>
      <trkpt lat="42.33631" lon="2.12759">
        <ele>1878.07</ele>
        <time>2019-02-23T10:49:18Z</time>
      </trkpt>
      <trkpt lat="42.33631" lon="2.12795">
        <ele>1877.11</ele>
        <time>2019-02-23T10:49:32Z</time>
      </trkpt>
      <trkpt lat="42.3363" lon="2.12804">
        <ele>1877.11</ele>
        <time>2019-02-23T10:49:38Z</time>
      </trkpt>
      <trkpt lat="42.33626" lon="2.12816">
        <ele>1877.59</ele>
        <time>2019-02-23T10:49:45Z</time>
      </trkpt>
      <trkpt lat="42.33622" lon="2.12825">
        <ele>1878.07</ele>
        <time>2019-02-23T10:50:01Z</time>
      </trkpt>
      <trkpt lat="42.3362" lon="2.12827">
        <ele>1878.07</ele>
        <time>2019-02-23T10:50:18Z</time>
      </trkpt>
      <trkpt lat="42.33608" lon="2.12851">
        <ele>1879.03</ele>
        <time>2019-02-23T10:50:36Z</time>
      </trkpt>
      <trkpt lat="42.33606" lon="2.12852">
        <ele>1879.51</ele>
        <time>2019-02-23T10:50:41Z</time>
      </trkpt>
      <trkpt lat="42.33586" lon="2.12867">
        <ele>1880.96</ele>
        <time>2019-02-23T10:50:56Z</time>
      </trkpt>
      <trkpt lat="42.33568" lon="2.12894">
        <ele>1881.92</ele>
        <time>2019-02-23T10:51:13Z</time>
      </trkpt>
      <trkpt lat="42.33558" lon="2.1291">
        <ele>1884.32</ele>
        <time>2019-02-23T10:51:29Z</time>
      </trkpt>
      <trkpt lat="42.33548" lon="2.12932">
        <ele>1883.84</ele>
        <time>2019-02-23T10:51:45Z</time>
      </trkpt>
      <trkpt lat="42.33561" lon="2.12953">
        <ele>1881.92</ele>
        <time>2019-02-23T10:51:57Z</time>
      </trkpt>
      <trkpt lat="42.33561" lon="2.12952">
        <ele>1881.44</ele>
        <time>2019-02-23T10:52:18Z</time>
      </trkpt>
      <trkpt lat="42.33561" lon="2.12952">
        <ele>1880.96</ele>
        <time>2019-02-23T10:52:22Z</time>
      </trkpt>
      <trkpt lat="42.33562" lon="2.12952">
        <ele>1880</ele>
        <time>2019-02-23T10:52:25Z</time>
      </trkpt>
      <trkpt lat="42.33567" lon="2.12955">
        <ele>1879.03</ele>
        <time>2019-02-23T10:52:30Z</time>
      </trkpt>
      <trkpt lat="42.33572" lon="2.12966">
        <ele>1876.15</ele>
        <time>2019-02-23T10:52:39Z</time>
      </trkpt>
      <trkpt lat="42.33565" lon="2.12994">
        <ele>1874.23</ele>
        <time>2019-02-23T10:52:54Z</time>
      </trkpt>
      <trkpt lat="42.33558" lon="2.13046">
        <ele>1871.34</ele>
        <time>2019-02-23T10:53:07Z</time>
      </trkpt>
      <trkpt lat="42.33551" lon="2.1309">
        <ele>1869.42</ele>
        <time>2019-02-23T10:53:19Z</time>
      </trkpt>
      <trkpt lat="42.33546" lon="2.13108">
        <ele>1868.94</ele>
        <time>2019-02-23T10:53:29Z</time>
      </trkpt>
      <trkpt lat="42.33543" lon="2.13116">
        <ele>1868.94</ele>
        <time>2019-02-23T10:53:34Z</time>
      </trkpt>
      <trkpt lat="42.33536" lon="2.13164">
        <ele>1868.94</ele>
        <time>2019-02-23T10:53:49Z</time>
      </trkpt>
      <trkpt lat="42.33526" lon="2.13214">
        <ele>1870.38</ele>
        <time>2019-02-23T10:54:03Z</time>
      </trkpt>
      <trkpt lat="42.33521" lon="2.13259">
        <ele>1868.46</ele>
        <time>2019-02-23T10:54:16Z</time>
      </trkpt>
      <trkpt lat="42.33508" lon="2.13315">
        <ele>1867.98</ele>
        <time>2019-02-23T10:54:31Z</time>
      </trkpt>
      <trkpt lat="42.33495" lon="2.1334">
        <ele>1866.06</ele>
        <time>2019-02-23T10:54:40Z</time>
      </trkpt>
      <trkpt lat="42.33492" lon="2.13348">
        <ele>1865.09</ele>
        <time>2019-02-23T10:54:42Z</time>
      </trkpt>
      <trkpt lat="42.33477" lon="2.13371">
        <ele>1862.21</ele>
        <time>2019-02-23T10:54:49Z</time>
      </trkpt>
      <trkpt lat="42.33467" lon="2.13387">
        <ele>1860.77</ele>
        <time>2019-02-23T10:54:53Z</time>
      </trkpt>
      <trkpt lat="42.33443" lon="2.13434">
        <ele>1860.77</ele>
        <time>2019-02-23T10:55:08Z</time>
      </trkpt>
      <trkpt lat="42.33425" lon="2.13427">
        <ele>1921.5999755859</ele>
        <time>2017-12-02T12:58:27Z</time>
      </trkpt>
      <trkpt lat="42.33419" lon="2.13425">
        <ele>1918.5999755859</ele>
        <time>2017-12-02T12:58:31Z</time>
      </trkpt>
      <trkpt lat="42.33414" lon="2.13424">
        <ele>1914.1999511719</ele>
        <time>2017-12-02T12:58:35Z</time>
      </trkpt>
      <trkpt lat="42.33406" lon="2.13422">
        <ele>1914</ele>
        <time>2017-12-02T12:58:40Z</time>
      </trkpt>
      <trkpt lat="42.33387" lon="2.13422">
        <ele>1910.8000488281</ele>
        <time>2017-12-02T12:58:52Z</time>
      </trkpt>
      <trkpt lat="42.33385" lon="2.13422">
        <ele>1910.4000244141</ele>
        <time>2017-12-02T12:58:53Z</time>
      </trkpt>
      <trkpt lat="42.33374" lon="2.13421">
        <ele>1906.8000488281</ele>
        <time>2017-12-02T12:58:57Z</time>
      </trkpt>
      <trkpt lat="42.33358" lon="2.13417">
        <ele>1903.1999511719</ele>
        <time>2017-12-02T12:59:03Z</time>
      </trkpt>
      <trkpt lat="42.33345" lon="2.13415">
        <ele>1899.5999755859</ele>
        <time>2017-12-02T12:59:08Z</time>
      </trkpt>
      <trkpt lat="42.33335" lon="2.13411">
        <ele>1896.5999755859</ele>
        <time>2017-12-02T12:59:12Z</time>
      </trkpt>
      <trkpt lat="42.33313" lon="2.13408">
        <ele>1893</ele>
        <time>2017-12-02T12:59:21Z</time>
      </trkpt>
      <trkpt lat="42.33305" lon="2.13403">
        <ele>1889.5999755859</ele>
        <time>2017-12-02T12:59:26Z</time>
      </trkpt>
      <trkpt lat="42.33305" lon="2.13403">
        <ele>1888.5999755859</ele>
        <time>2017-12-02T12:59:28Z</time>
      </trkpt>
      <trkpt lat="42.33285" lon="2.13404">
        <ele>1887.1999511719</ele>
        <time>2017-12-02T12:59:48Z</time>
      </trkpt>
      <trkpt lat="42.33282" lon="2.13403">
        <ele>1884</ele>
        <time>2017-12-02T12:59:51Z</time>
      </trkpt>
      <trkpt lat="42.33268" lon="2.134">
        <ele>1885</ele>
        <time>2017-12-02T13:00:03Z</time>
      </trkpt>
      <trkpt lat="42.33255" lon="2.13401">
        <ele>1881.5999755859</ele>
        <time>2017-12-02T13:00:13Z</time>
      </trkpt>
      <trkpt lat="42.33248" lon="2.13402">
        <ele>1877.1999511719</ele>
        <time>2017-12-02T13:00:17Z</time>
      </trkpt>
      <trkpt lat="42.33244" lon="2.13403">
        <ele>1874.1999511719</ele>
        <time>2017-12-02T13:00:20Z</time>
      </trkpt>
      <trkpt lat="42.33239" lon="2.13404">
        <ele>1872.8000488281</ele>
        <time>2017-12-02T13:00:23Z</time>
      </trkpt>
      <trkpt lat="42.33233" lon="2.13404">
        <ele>1871.1999511719</ele>
        <time>2017-12-02T13:00:27Z</time>
      </trkpt>
      <trkpt lat="42.33224" lon="2.13406">
        <ele>1870.1999511719</ele>
        <time>2017-12-02T13:00:41Z</time>
      </trkpt>
      <trkpt lat="42.33218" lon="2.13406">
        <ele>1868.4000244141</ele>
        <time>2017-12-02T13:00:45Z</time>
      </trkpt>
      <trkpt lat="42.33212" lon="2.13407">
        <ele>1865</ele>
        <time>2017-12-02T13:00:49Z</time>
      </trkpt>
      <trkpt lat="42.33196" lon="2.13405">
        <ele>1861.8000488281</ele>
        <time>2017-12-02T13:01:00Z</time>
      </trkpt>
      <trkpt lat="42.3319" lon="2.13401">
        <ele>1858.1999511719</ele>
        <time>2017-12-02T13:01:04Z</time>
      </trkpt>
      <trkpt lat="42.33186" lon="2.134">
        <ele>1855</ele>
        <time>2017-12-02T13:01:08Z</time>
      </trkpt>
      <trkpt lat="42.33179" lon="2.13396">
        <ele>1851.8000488281</ele>
        <time>2017-12-02T13:01:17Z</time>
      </trkpt>
      <trkpt lat="42.33176" lon="2.13392">
        <ele>1848.5999755859</ele>
        <time>2017-12-02T13:01:20Z</time>
      </trkpt>
      <trkpt lat="42.33175" lon="2.13389">
        <ele>1845.4000244141</ele>
        <time>2017-12-02T13:01:25Z</time>
      </trkpt>
      <trkpt lat="42.33175" lon="2.13381">
        <ele>1844.8000488281</ele>
        <time>2017-12-02T13:01:30Z</time>
      </trkpt>
      <trkpt lat="42.33175" lon="2.13374">
        <ele>1845.8000488281</ele>
        <time>2017-12-02T13:01:32Z</time>
      </trkpt>
      <trkpt lat="42.33176" lon="2.13369">
        <ele>1846.4000244141</ele>
        <time>2017-12-02T13:01:34Z</time>
      </trkpt>
      <trkpt lat="42.33176" lon="2.13363">
        <ele>1845.8000488281</ele>
        <time>2017-12-02T13:01:37Z</time>
      </trkpt>
      <trkpt lat="42.33162" lon="2.13355">
        <ele>1842</ele>
        <time>2017-12-02T13:01:47Z</time>
      </trkpt>
      <trkpt lat="42.33158" lon="2.13354">
        <ele>1838.1999511719</ele>
        <time>2017-12-02T13:01:49Z</time>
      </trkpt>
      <trkpt lat="42.33154" lon="2.13355">
        <ele>1834.4000244141</ele>
        <time>2017-12-02T13:01:51Z</time>
      </trkpt>
      <trkpt lat="42.33149" lon="2.13357">
        <ele>1829.1999511719</ele>
        <time>2017-12-02T13:01:53Z</time>
      </trkpt>
      <trkpt lat="42.33145" lon="2.13358">
        <ele>1825.1999511719</ele>
        <time>2017-12-02T13:01:55Z</time>
      </trkpt>
      <trkpt lat="42.33137" lon="2.13362">
        <ele>1822.5999755859</ele>
        <time>2017-12-02T13:01:59Z</time>
      </trkpt>
      <trkpt lat="42.33124" lon="2.13372">
        <ele>1819.5999755859</ele>
        <time>2017-12-02T13:02:06Z</time>
      </trkpt>
      <trkpt lat="42.33117" lon="2.13379">
        <ele>1823.5999755859</ele>
        <time>2017-12-02T13:02:18Z</time>
      </trkpt>
      <trkpt lat="42.33117" lon="2.13378">
        <ele>1827.8000488281</ele>
        <time>2017-12-02T13:02:20Z</time>
      </trkpt>
      <trkpt lat="42.3312" lon="2.13376">
        <ele>1824.4000244141</ele>
        <time>2017-12-02T13:02:37Z</time>
      </trkpt>
      <trkpt lat="42.3312" lon="2.13375">
        <ele>1820.8000488281</ele>
        <time>2017-12-02T13:02:45Z</time>
      </trkpt>
      <trkpt lat="42.3312" lon="2.13375">
        <ele>1817.5999755859</ele>
        <time>2017-12-02T13:02:48Z</time>
      </trkpt>
      <trkpt lat="42.3312" lon="2.13375">
        <ele>1814</ele>
        <time>2017-12-02T13:02:51Z</time>
      </trkpt>
      <trkpt lat="42.33119" lon="2.13374">
        <ele>1810.1999511719</ele>
        <time>2017-12-02T13:02:55Z</time>
      </trkpt>
      <trkpt lat="42.33118" lon="2.13375">
        <ele>1807.4000244141</ele>
        <time>2017-12-02T13:02:59Z</time>
      </trkpt>
      <trkpt lat="42.33114" lon="2.13382">
        <ele>1812.4000244141</ele>
        <time>2017-12-02T13:03:05Z</time>
      </trkpt>
      <trkpt lat="42.33112" lon="2.13383">
        <ele>1817.8000488281</ele>
        <time>2017-12-02T13:03:07Z</time>
      </trkpt>
      <trkpt lat="42.33111" lon="2.13383">
        <ele>1822.8000488281</ele>
        <time>2017-12-02T13:03:09Z</time>
      </trkpt>
      <trkpt lat="42.33111" lon="2.13383">
        <ele>1827</ele>
        <time>2017-12-02T13:03:11Z</time>
      </trkpt>
      <trkpt lat="42.33112" lon="2.13382">
        <ele>1830.5999755859</ele>
        <time>2017-12-02T13:03:12Z</time>
      </trkpt>
      <trkpt lat="42.33112" lon="2.13382">
        <ele>1827.5999755859</ele>
        <time>2017-12-02T13:03:31Z</time>
      </trkpt>
      <trkpt lat="42.33113" lon="2.13381">
        <ele>1827.1999511719</ele>
        <time>2017-12-02T13:03:50Z</time>
      </trkpt>
      <trkpt lat="42.33112" lon="2.13385">
        <ele>1826.1999511719</ele>
        <time>2017-12-02T13:04:16Z</time>
      </trkpt>
      <trkpt lat="42.33113" lon="2.13384">
        <ele>1823.1999511719</ele>
        <time>2017-12-02T13:04:24Z</time>
      </trkpt>
      <trkpt lat="42.33113" lon="2.13382">
        <ele>1826.1999511719</ele>
        <time>2017-12-02T13:04:40Z</time>
      </trkpt>
      <trkpt lat="42.33113" lon="2.13385">
        <ele>1823</ele>
        <time>2017-12-02T13:04:52Z</time>
      </trkpt>
      <trkpt lat="42.33112" lon="2.13387">
        <ele>1819.5999755859</ele>
        <time>2017-12-02T13:05:05Z</time>
      </trkpt>
      <trkpt lat="42.33112" lon="2.13387">
        <ele>1817.1999511719</ele>
        <time>2017-12-02T13:05:09Z</time>
      </trkpt>
      <trkpt lat="42.33111" lon="2.13383">
        <ele>1820.4000244141</ele>
        <time>2017-12-02T13:05:41Z</time>
      </trkpt>
      <trkpt lat="42.33112" lon="2.13384">
        <ele>1817.4000244141</ele>
        <time>2017-12-02T13:06:04Z</time>
      </trkpt>
      <trkpt lat="42.33113" lon="2.13386">
        <ele>1820.5999755859</ele>
        <time>2017-12-02T13:06:16Z</time>
      </trkpt>
      <trkpt lat="42.33113" lon="2.13385">
        <ele>1823</ele>
        <time>2017-12-02T13:06:20Z</time>
      </trkpt>
      <trkpt lat="42.33112" lon="2.13385">
        <ele>1820</ele>
        <time>2017-12-02T13:06:31Z</time>
      </trkpt>
      <trkpt lat="42.33113" lon="2.13386">
        <ele>1818.8000488281</ele>
        <time>2017-12-02T13:07:02Z</time>
      </trkpt>
      <trkpt lat="42.33113" lon="2.13383">
        <ele>1820.1999511719</ele>
        <time>2017-12-02T13:07:33Z</time>
      </trkpt>
      <trkpt lat="42.33109" lon="2.13384">
        <ele>1817</ele>
        <time>2017-12-02T13:07:53Z</time>
      </trkpt>
      <trkpt lat="42.3309" lon="2.13394">
        <ele>1813.5999755859</ele>
        <time>2017-12-02T13:08:03Z</time>
      </trkpt>
      <trkpt lat="42.33085" lon="2.13397">
        <ele>1812.8000488281</ele>
        <time>2017-12-02T13:08:05Z</time>
      </trkpt>
      <trkpt lat="42.3306" lon="2.13419">
        <ele>1809.8000488281</ele>
        <time>2017-12-02T13:08:17Z</time>
      </trkpt>
      <trkpt lat="42.33055" lon="2.13427">
        <ele>1808.1999511719</ele>
        <time>2017-12-02T13:08:21Z</time>
      </trkpt>
      <trkpt lat="42.33051" lon="2.13432">
        <ele>1806.8000488281</ele>
        <time>2017-12-02T13:08:27Z</time>
      </trkpt>
      <trkpt lat="42.33034" lon="2.13451">
        <ele>1803.1999511719</ele>
        <time>2017-12-02T13:08:41Z</time>
      </trkpt>
      <trkpt lat="42.33024" lon="2.13465">
        <ele>1799.8000488281</ele>
        <time>2017-12-02T13:08:49Z</time>
      </trkpt>
      <trkpt lat="42.33003" lon="2.13482">
        <ele>1796</ele>
        <time>2017-12-02T13:08:59Z</time>
      </trkpt>
      <trkpt lat="42.32985" lon="2.13504">
        <ele>1792.5999755859</ele>
        <time>2017-12-02T13:09:08Z</time>
      </trkpt>
      <trkpt lat="42.32976" lon="2.13517">
        <ele>1789.5999755859</ele>
        <time>2017-12-02T13:09:13Z</time>
      </trkpt>
      <trkpt lat="42.32966" lon="2.13538">
        <ele>1786.1999511719</ele>
        <time>2017-12-02T13:09:21Z</time>
      </trkpt>
      <trkpt lat="42.32964" lon="2.13542">
        <ele>1785.5999755859</ele>
        <time>2017-12-02T13:09:32Z</time>
      </trkpt>
      <trkpt lat="42.3296" lon="2.13547">
        <ele>1789</ele>
        <time>2017-12-02T13:09:42Z</time>
      </trkpt>
      <trkpt lat="42.32955" lon="2.13546">
        <ele>1789</ele>
        <time>2017-12-02T13:09:48Z</time>
      </trkpt>
      <trkpt lat="42.32944" lon="2.13554">
        <ele>1788.4000244141</ele>
        <time>2017-12-02T13:09:58Z</time>
      </trkpt>
      <trkpt lat="42.32935" lon="2.13564">
        <ele>1785</ele>
        <time>2017-12-02T13:10:04Z</time>
      </trkpt>
      <trkpt lat="42.3293" lon="2.1357">
        <ele>1781.8000488281</ele>
        <time>2017-12-02T13:10:10Z</time>
      </trkpt>
      <trkpt lat="42.32927" lon="2.13572">
        <ele>1779.8000488281</ele>
        <time>2017-12-02T13:10:15Z</time>
      </trkpt>
      <trkpt lat="42.32924" lon="2.13576">
        <ele>1778.5999755859</ele>
        <time>2017-12-02T13:10:18Z</time>
      </trkpt>
      <trkpt lat="42.32918" lon="2.13583">
        <ele>1774.5999755859</ele>
        <time>2017-12-02T13:10:28Z</time>
      </trkpt>
      <trkpt lat="42.32917" lon="2.13584">
        <ele>1774.4000244141</ele>
        <time>2017-12-02T13:10:29Z</time>
      </trkpt>
      <trkpt lat="42.32908" lon="2.13603">
        <ele>1775.8000488281</ele>
        <time>2017-12-02T13:10:49Z</time>
      </trkpt>
      <trkpt lat="42.32904" lon="2.13611">
        <ele>1777.8000488281</ele>
        <time>2017-12-02T13:10:59Z</time>
      </trkpt>
      <trkpt lat="42.32898" lon="2.13629">
        <ele>1777.1999511719</ele>
        <time>2017-12-02T13:11:18Z</time>
      </trkpt>
      <trkpt lat="42.3289" lon="2.13637">
        <ele>1774.1999511719</ele>
        <time>2017-12-02T13:11:31Z</time>
      </trkpt>
      <trkpt lat="42.32887" lon="2.13644">
        <ele>1773.1999511719</ele>
        <time>2017-12-02T13:11:36Z</time>
      </trkpt>
      <trkpt lat="42.32879" lon="2.13657">
        <ele>1771</ele>
        <time>2017-12-02T13:11:44Z</time>
      </trkpt>
      <trkpt lat="42.32879" lon="2.13659">
        <ele>1770.8000488281</ele>
        <time>2017-12-02T13:11:45Z</time>
      </trkpt>
      <trkpt lat="42.32875" lon="2.13668">
        <ele>1768.5999755859</ele>
        <time>2017-12-02T13:11:52Z</time>
      </trkpt>
      <trkpt lat="42.32873" lon="2.13675">
        <ele>1768.1999511719</ele>
        <time>2017-12-02T13:11:58Z</time>
      </trkpt>
      <trkpt lat="42.32874" lon="2.13683">
        <ele>1767.4000244141</ele>
        <time>2017-12-02T13:12:04Z</time>
      </trkpt>
      <trkpt lat="42.32873" lon="2.13694">
        <ele>1766.8000488281</ele>
        <time>2017-12-02T13:12:08Z</time>
      </trkpt>
      <trkpt lat="42.32866" lon="2.13724">
        <ele>1766</ele>
        <time>2017-12-02T13:12:19Z</time>
      </trkpt>
      <trkpt lat="42.32861" lon="2.13736">
        <ele>1763.5999755859</ele>
        <time>2017-12-02T13:12:24Z</time>
      </trkpt>
      <trkpt lat="42.32851" lon="2.13768">
        <ele>1761.8000488281</ele>
        <time>2017-12-02T13:12:37Z</time>
      </trkpt>
      <trkpt lat="42.32844" lon="2.13789">
        <ele>1759.8000488281</ele>
        <time>2017-12-02T13:12:48Z</time>
      </trkpt>
      <trkpt lat="42.32835" lon="2.13813">
        <ele>1756.8000488281</ele>
        <time>2017-12-02T13:13:05Z</time>
      </trkpt>
      <trkpt lat="42.32834" lon="2.13816">
        <ele>1756</ele>
        <time>2017-12-02T13:13:07Z</time>
      </trkpt>
      <trkpt lat="42.32835" lon="2.13838">
        <ele>1753.4000244141</ele>
        <time>2017-12-02T13:13:21Z</time>
      </trkpt>
      <trkpt lat="42.32831" lon="2.1386">
        <ele>1750.1999511719</ele>
        <time>2017-12-02T13:13:34Z</time>
      </trkpt>
      <trkpt lat="42.32831" lon="2.13876">
        <ele>1749.1999511719</ele>
        <time>2017-12-02T13:13:49Z</time>
      </trkpt>
      <trkpt lat="42.32831" lon="2.13887">
        <ele>1748.1999511719</ele>
        <time>2017-12-02T13:13:57Z</time>
      </trkpt>
      <trkpt lat="42.32845" lon="2.13913">
        <ele>1749.8000488281</ele>
        <time>2017-12-02T13:14:09Z</time>
      </trkpt>
      <trkpt lat="42.32847" lon="2.13925">
        <ele>1751.1999511719</ele>
        <time>2017-12-02T13:14:20Z</time>
      </trkpt>
      <trkpt lat="42.32847" lon="2.13945">
        <ele>1751.1999511719</ele>
        <time>2017-12-02T13:14:32Z</time>
      </trkpt>
      <trkpt lat="42.3285" lon="2.13965">
        <ele>1750.1999511719</ele>
        <time>2017-12-02T13:14:42Z</time>
      </trkpt>
      <trkpt lat="42.3286" lon="2.13997">
        <ele>1748.1999511719</ele>
        <time>2017-12-02T13:14:53Z</time>
      </trkpt>
      <trkpt lat="42.32867" lon="2.14027">
        <ele>1747</ele>
        <time>2017-12-02T13:15:06Z</time>
      </trkpt>
      <trkpt lat="42.32867" lon="2.14029">
        <ele>1747.1999511719</ele>
        <time>2017-12-02T13:15:07Z</time>
      </trkpt>
      <trkpt lat="42.32868" lon="2.14038">
        <ele>1747.1999511719</ele>
        <time>2017-12-02T13:15:12Z</time>
      </trkpt>
      <trkpt lat="42.32865" lon="2.14063">
        <ele>1745.4000244141</ele>
        <time>2017-12-02T13:15:26Z</time>
      </trkpt>
      <trkpt lat="42.32858" lon="2.14075">
        <ele>1742.1999511719</ele>
        <time>2017-12-02T13:15:35Z</time>
      </trkpt>
      <trkpt lat="42.32855" lon="2.14088">
        <ele>1739.8000488281</ele>
        <time>2017-12-02T13:15:54Z</time>
      </trkpt>
      <trkpt lat="42.32852" lon="2.14088">
        <ele>1739.8000488281</ele>
        <time>2017-12-02T13:15:56Z</time>
      </trkpt>
      <trkpt lat="42.32834" lon="2.14075">
        <ele>1739</ele>
        <time>2017-12-02T13:16:11Z</time>
      </trkpt>
      <trkpt lat="42.3283" lon="2.14083">
        <ele>1737</ele>
        <time>2017-12-02T13:16:22Z</time>
      </trkpt>
      <trkpt lat="42.32828" lon="2.14091">
        <ele>1737.1999511719</ele>
        <time>2017-12-02T13:16:42Z</time>
      </trkpt>
      <trkpt lat="42.32829" lon="2.14129">
        <ele>1736.4000244141</ele>
        <time>2017-12-02T13:16:56Z</time>
      </trkpt>
      <trkpt lat="42.32839" lon="2.14144">
        <ele>1739.4000244141</ele>
        <time>2017-12-02T13:17:07Z</time>
      </trkpt>
      <trkpt lat="42.32839" lon="2.14145">
        <ele>1739.8000488281</ele>
        <time>2017-12-02T13:17:08Z</time>
      </trkpt>
      <trkpt lat="42.32843" lon="2.14151">
        <ele>1740.8000488281</ele>
        <time>2017-12-02T13:17:14Z</time>
      </trkpt>
      <trkpt lat="42.32851" lon="2.14168">
        <ele>1741.4000244141</ele>
        <time>2017-12-02T13:17:28Z</time>
      </trkpt>
      <trkpt lat="42.32856" lon="2.14202">
        <ele>1737.8000488281</ele>
        <time>2017-12-02T13:17:43Z</time>
      </trkpt>
      <trkpt lat="42.32853" lon="2.14206">
        <ele>1737.1999511719</ele>
        <time>2017-12-02T13:17:45Z</time>
      </trkpt>
      <trkpt lat="42.32848" lon="2.1422">
        <ele>1733.8000488281</ele>
        <time>2017-12-02T13:17:50Z</time>
      </trkpt>
      <trkpt lat="42.32844" lon="2.14227">
        <ele>1732.5999755859</ele>
        <time>2017-12-02T13:17:53Z</time>
      </trkpt>
      <trkpt lat="42.32832" lon="2.14239">
        <ele>1729.4000244141</ele>
        <time>2017-12-02T13:18:01Z</time>
      </trkpt>
      <trkpt lat="42.32831" lon="2.1424">
        <ele>1728.4000244141</ele>
        <time>2017-12-02T13:18:02Z</time>
      </trkpt>
      <trkpt lat="42.32823" lon="2.14243">
        <ele>1726</ele>
        <time>2017-12-02T13:18:07Z</time>
      </trkpt>
      <trkpt lat="42.32816" lon="2.14247">
        <ele>1724.8000488281</ele>
        <time>2017-12-02T13:18:11Z</time>
      </trkpt>
      <trkpt lat="42.3281" lon="2.1425">
        <ele>1722.5999755859</ele>
        <time>2017-12-02T13:18:16Z</time>
      </trkpt>
      <trkpt lat="42.3281" lon="2.14255">
        <ele>1722.1999511719</ele>
        <time>2017-12-02T13:18:21Z</time>
      </trkpt>
      <trkpt lat="42.32811" lon="2.14258">
        <ele>1721.8000488281</ele>
        <time>2017-12-02T13:18:23Z</time>
      </trkpt>
      <trkpt lat="42.32812" lon="2.14265">
        <ele>1722</ele>
        <time>2017-12-02T13:18:34Z</time>
      </trkpt>
      <trkpt lat="42.32815" lon="2.14269">
        <ele>1723.5999755859</ele>
        <time>2017-12-02T13:18:53Z</time>
      </trkpt>
      <trkpt lat="42.32809" lon="2.14273">
        <ele>1723.5999755859</ele>
        <time>2017-12-02T13:19:21Z</time>
      </trkpt>
      <trkpt lat="42.32803" lon="2.14274">
        <ele>1721.4000244141</ele>
        <time>2017-12-02T13:19:41Z</time>
      </trkpt>
      <trkpt lat="42.32804" lon="2.14274">
        <ele>1721.4000244141</ele>
        <time>2017-12-02T13:19:46Z</time>
      </trkpt>
      <trkpt lat="42.32806" lon="2.14274">
        <ele>1722</ele>
        <time>2017-12-02T13:20:10Z</time>
      </trkpt>
      <trkpt lat="42.32804" lon="2.14275">
        <ele>1722</ele>
        <time>2017-12-02T13:20:39Z</time>
      </trkpt>
      <trkpt lat="42.32802" lon="2.14275">
        <ele>1721.5999755859</ele>
        <time>2017-12-02T13:21:05Z</time>
      </trkpt>
      <trkpt lat="42.32802" lon="2.14276">
        <ele>1722.1999511719</ele>
        <time>2017-12-02T13:21:21Z</time>
      </trkpt>
      <trkpt lat="42.32805" lon="2.14272">
        <ele>1722.5999755859</ele>
        <time>2017-12-02T13:21:44Z</time>
      </trkpt>
      <trkpt lat="42.32805" lon="2.14271">
        <ele>1722.5999755859</ele>
        <time>2017-12-02T13:21:53Z</time>
      </trkpt>
      <trkpt lat="42.32812" lon="2.14273">
        <ele>1722.4000244141</ele>
        <time>2017-12-02T13:21:58Z</time>
      </trkpt>
      <trkpt lat="42.32816" lon="2.14292">
        <ele>1719</ele>
        <time>2017-12-02T13:22:09Z</time>
      </trkpt>
      <trkpt lat="42.32821" lon="2.14301">
        <ele>1717.1999511719</ele>
        <time>2017-12-02T13:22:13Z</time>
      </trkpt>
      <trkpt lat="42.32821" lon="2.14308">
        <ele>1716</ele>
        <time>2017-12-02T13:22:16Z</time>
      </trkpt>
      <trkpt lat="42.32822" lon="2.1431">
        <ele>1715.8000488281</ele>
        <time>2017-12-02T13:22:17Z</time>
      </trkpt>
      <trkpt lat="42.32813" lon="2.14323">
        <ele>1712.5999755859</ele>
        <time>2017-12-02T13:22:24Z</time>
      </trkpt>
      <trkpt lat="42.32799" lon="2.14342">
        <ele>1709</ele>
        <time>2017-12-02T13:22:34Z</time>
      </trkpt>
      <trkpt lat="42.32794" lon="2.14347">
        <ele>1708.8000488281</ele>
        <time>2017-12-02T13:22:37Z</time>
      </trkpt>
      <trkpt lat="42.32784" lon="2.14353">
        <ele>1705.1999511719</ele>
        <time>2017-12-02T13:22:42Z</time>
      </trkpt>
      <trkpt lat="42.32778" lon="2.14356">
        <ele>1703.8000488281</ele>
        <time>2017-12-02T13:22:45Z</time>
      </trkpt>
      <trkpt lat="42.32765" lon="2.14373">
        <ele>1700.5999755859</ele>
        <time>2017-12-02T13:22:54Z</time>
      </trkpt>
      <trkpt lat="42.32764" lon="2.14374">
        <ele>1700.4000244141</ele>
        <time>2017-12-02T13:22:55Z</time>
      </trkpt>
      <trkpt lat="42.32757" lon="2.14383">
        <ele>1697</ele>
        <time>2017-12-02T13:22:59Z</time>
      </trkpt>
      <trkpt lat="42.32754" lon="2.1439">
        <ele>1695.5999755859</ele>
        <time>2017-12-02T13:23:02Z</time>
      </trkpt>
      <trkpt lat="42.32748" lon="2.14401">
        <ele>1692.4000244141</ele>
        <time>2017-12-02T13:23:07Z</time>
      </trkpt>
      <trkpt lat="42.32739" lon="2.14415">
        <ele>1689.4000244141</ele>
        <time>2017-12-02T13:23:13Z</time>
      </trkpt>
      <trkpt lat="42.32734" lon="2.14424">
        <ele>1687.4000244141</ele>
        <time>2017-12-02T13:23:17Z</time>
      </trkpt>
      <trkpt lat="42.32717" lon="2.14456">
        <ele>1684.1999511719</ele>
        <time>2017-12-02T13:23:30Z</time>
      </trkpt>
      <trkpt lat="42.3271" lon="2.14468">
        <ele>1680.8000488281</ele>
        <time>2017-12-02T13:23:34Z</time>
      </trkpt>
      <trkpt lat="42.32707" lon="2.14473">
        <ele>1680.1999511719</ele>
        <time>2017-12-02T13:23:36Z</time>
      </trkpt>
      <trkpt lat="42.3269" lon="2.14494">
        <ele>1677</ele>
        <time>2017-12-02T13:23:45Z</time>
      </trkpt>
      <trkpt lat="42.32671" lon="2.14514">
        <ele>1673.8000488281</ele>
        <time>2017-12-02T13:23:55Z</time>
      </trkpt>
      <trkpt lat="42.3267" lon="2.14515">
        <ele>1673.5999755859</ele>
        <time>2017-12-02T13:23:56Z</time>
      </trkpt>
      <trkpt lat="42.3265" lon="2.14533">
        <ele>1670.1999511719</ele>
        <time>2017-12-02T13:24:07Z</time>
      </trkpt>
      <trkpt lat="42.32647" lon="2.14535">
        <ele>1669.4000244141</ele>
        <time>2017-12-02T13:24:09Z</time>
      </trkpt>
      <trkpt lat="42.32635" lon="2.14545">
        <ele>1666.4000244141</ele>
        <time>2017-12-02T13:24:16Z</time>
      </trkpt>
      <trkpt lat="42.32625" lon="2.1455">
        <ele>1663.1999511719</ele>
        <time>2017-12-02T13:24:22Z</time>
      </trkpt>
      <trkpt lat="42.32616" lon="2.14558">
        <ele>1660</ele>
        <time>2017-12-02T13:24:28Z</time>
      </trkpt>
      <trkpt lat="42.32607" lon="2.14566">
        <ele>1656.5999755859</ele>
        <time>2017-12-02T13:24:34Z</time>
      </trkpt>
      <trkpt lat="42.32597" lon="2.14577">
        <ele>1653.1999511719</ele>
        <time>2017-12-02T13:24:40Z</time>
      </trkpt>
      <trkpt lat="42.32587" lon="2.14589">
        <ele>1650.1999511719</ele>
        <time>2017-12-02T13:24:46Z</time>
      </trkpt>
      <trkpt lat="42.32581" lon="2.14603">
        <ele>1647</ele>
        <time>2017-12-02T13:24:53Z</time>
      </trkpt>
      <trkpt lat="42.32577" lon="2.14612">
        <ele>1644.4000244141</ele>
        <time>2017-12-02T13:25:03Z</time>
      </trkpt>
      <trkpt lat="42.32568" lon="2.14622">
        <ele>1640.5999755859</ele>
        <time>2017-12-02T13:25:12Z</time>
      </trkpt>
      <trkpt lat="42.32568" lon="2.14623">
        <ele>1640</ele>
        <time>2017-12-02T13:25:14Z</time>
      </trkpt>
      <trkpt lat="42.32564" lon="2.14637">
        <ele>1637.1999511719</ele>
        <time>2017-12-02T13:25:31Z</time>
      </trkpt>
      <trkpt lat="42.32565" lon="2.1464">
        <ele>1636.5999755859</ele>
        <time>2017-12-02T13:25:34Z</time>
      </trkpt>
      <trkpt lat="42.32568" lon="2.14653">
        <ele>1634</ele>
        <time>2017-12-02T13:25:53Z</time>
      </trkpt>
      <trkpt lat="42.32562" lon="2.14654">
        <ele>1633.1999511719</ele>
        <time>2017-12-02T13:26:07Z</time>
      </trkpt>
      <trkpt lat="42.32536" lon="2.14662">
        <ele>1630.5999755859</ele>
        <time>2017-12-02T13:26:22Z</time>
      </trkpt>
      <trkpt lat="42.32533" lon="2.14664">
        <ele>1630</ele>
        <time>2017-12-02T13:26:24Z</time>
      </trkpt>
      <trkpt lat="42.32524" lon="2.14671">
        <ele>1627.1999511719</ele>
        <time>2017-12-02T13:26:32Z</time>
      </trkpt>
      <trkpt lat="42.32509" lon="2.14679">
        <ele>1626.5999755859</ele>
        <time>2017-12-02T13:26:43Z</time>
      </trkpt>
      <trkpt lat="42.32502" lon="2.14686">
        <ele>1624.5999755859</ele>
        <time>2017-12-02T13:26:50Z</time>
      </trkpt>
      <trkpt lat="42.32495" lon="2.1469">
        <ele>1622.4000244141</ele>
        <time>2017-12-02T13:27:01Z</time>
      </trkpt>
      <trkpt lat="42.32489" lon="2.14695">
        <ele>1620.1999511719</ele>
        <time>2017-12-02T13:27:19Z</time>
      </trkpt>
      <trkpt lat="42.32486" lon="2.14699">
        <ele>1618.4000244141</ele>
        <time>2017-12-02T13:27:23Z</time>
      </trkpt>
      <trkpt lat="42.32479" lon="2.14702">
        <ele>1614.5999755859</ele>
        <time>2017-12-02T13:27:31Z</time>
      </trkpt>
      <trkpt lat="42.3247" lon="2.14707">
        <ele>1611.4000244141</ele>
        <time>2017-12-02T13:27:39Z</time>
      </trkpt>
      <trkpt lat="42.32461" lon="2.14711">
        <ele>1609</ele>
        <time>2017-12-02T13:27:46Z</time>
      </trkpt>
      <trkpt lat="42.32449" lon="2.1471">
        <ele>1605.5999755859</ele>
        <time>2017-12-02T13:27:56Z</time>
      </trkpt>
      <trkpt lat="42.32448" lon="2.1471">
        <ele>1605.1999511719</ele>
        <time>2017-12-02T13:27:57Z</time>
      </trkpt>
      <trkpt lat="42.32446" lon="2.14708">
        <ele>1604.8000488281</ele>
        <time>2017-12-02T13:27:59Z</time>
      </trkpt>
      <trkpt lat="42.32436" lon="2.14708">
        <ele>1601.8000488281</ele>
        <time>2017-12-02T13:28:06Z</time>
      </trkpt>
      <trkpt lat="42.32432" lon="2.14708">
        <ele>1599</ele>
        <time>2017-12-02T13:28:11Z</time>
      </trkpt>
      <trkpt lat="42.32422" lon="2.14711">
        <ele>1596.8000488281</ele>
        <time>2017-12-02T13:28:17Z</time>
      </trkpt>
      <trkpt lat="42.32416" lon="2.14714">
        <ele>1595</ele>
        <time>2017-12-02T13:28:21Z</time>
      </trkpt>
      <trkpt lat="42.32408" lon="2.14716">
        <ele>1591.5999755859</ele>
        <time>2017-12-02T13:28:34Z</time>
      </trkpt>
      <trkpt lat="42.32397" lon="2.14729">
        <ele>1588.5999755859</ele>
        <time>2017-12-02T13:28:47Z</time>
      </trkpt>
      <trkpt lat="42.32391" lon="2.14724">
        <ele>1588</ele>
        <time>2017-12-02T13:28:55Z</time>
      </trkpt>
      <trkpt lat="42.32381" lon="2.14713">
        <ele>1589.4000244141</ele>
        <time>2017-12-02T13:29:04Z</time>
      </trkpt>
      <trkpt lat="42.32367" lon="2.14685">
        <ele>1591.1999511719</ele>
        <time>2017-12-02T13:29:19Z</time>
      </trkpt>
      <trkpt lat="42.32363" lon="2.14671">
        <ele>1591.1999511719</ele>
        <time>2017-12-02T13:29:27Z</time>
      </trkpt>
      <trkpt lat="42.32361" lon="2.14669">
        <ele>1591.4000244141</ele>
        <time>2017-12-02T13:29:29Z</time>
      </trkpt>
      <trkpt lat="42.32353" lon="2.1467">
        <ele>1589</ele>
        <time>2017-12-02T13:29:37Z</time>
      </trkpt>
      <trkpt lat="42.32347" lon="2.14675">
        <ele>1585.8000488281</ele>
        <time>2017-12-02T13:29:46Z</time>
      </trkpt>
      <trkpt lat="42.32339" lon="2.14681">
        <ele>1582.1999511719</ele>
        <time>2017-12-02T13:29:52Z</time>
      </trkpt>
      <trkpt lat="42.32335" lon="2.14684">
        <ele>1578.4000244141</ele>
        <time>2017-12-02T13:29:56Z</time>
      </trkpt>
      <trkpt lat="42.32335" lon="2.14685">
        <ele>1578.1999511719</ele>
        <time>2017-12-02T13:29:58Z</time>
      </trkpt>
      <trkpt lat="42.32328" lon="2.14691">
        <ele>1574.8000488281</ele>
        <time>2017-12-02T13:30:13Z</time>
      </trkpt>
      <trkpt lat="42.32318" lon="2.14696">
        <ele>1571.1999511719</ele>
        <time>2017-12-02T13:30:19Z</time>
      </trkpt>
      <trkpt lat="42.32309" lon="2.14699">
        <ele>1568</ele>
        <time>2017-12-02T13:30:27Z</time>
      </trkpt>
      <trkpt lat="42.32308" lon="2.14703">
        <ele>1566.1999511719</ele>
        <time>2017-12-02T13:30:41Z</time>
      </trkpt>
      <trkpt lat="42.32308" lon="2.1471">
        <ele>1566.4000244141</ele>
        <time>2017-12-02T13:30:47Z</time>
      </trkpt>
      <trkpt lat="42.32307" lon="2.14722">
        <ele>1564</ele>
        <time>2017-12-02T13:30:52Z</time>
      </trkpt>
      <trkpt lat="42.32302" lon="2.14738">
        <ele>1561.4000244141</ele>
        <time>2017-12-02T13:31:04Z</time>
      </trkpt>
      <trkpt lat="42.32306" lon="2.14751">
        <ele>1561.4000244141</ele>
        <time>2017-12-02T13:31:26Z</time>
      </trkpt>
      <trkpt lat="42.32303" lon="2.14768">
        <ele>1558</ele>
        <time>2017-12-02T13:31:42Z</time>
      </trkpt>
      <trkpt lat="42.32301" lon="2.14774">
        <ele>1554.5999755859</ele>
        <time>2017-12-02T13:31:48Z</time>
      </trkpt>
      <trkpt lat="42.32302" lon="2.1478">
        <ele>1551.1999511719</ele>
        <time>2017-12-02T13:31:54Z</time>
      </trkpt>
      <trkpt lat="42.32304" lon="2.14788">
        <ele>1548</ele>
        <time>2017-12-02T13:32:02Z</time>
      </trkpt>
      <trkpt lat="42.32308" lon="2.14798">
        <ele>1545</ele>
        <time>2017-12-02T13:32:13Z</time>
      </trkpt>
      <trkpt lat="42.32308" lon="2.14799">
        <ele>1544.4000244141</ele>
        <time>2017-12-02T13:32:18Z</time>
      </trkpt>
      <trkpt lat="42.32299" lon="2.14787">
        <ele>1544.8000488281</ele>
        <time>2017-12-02T13:32:38Z</time>
      </trkpt>
      <trkpt lat="42.32293" lon="2.14786">
        <ele>1545.8000488281</ele>
        <time>2017-12-02T13:32:51Z</time>
      </trkpt>
      <trkpt lat="42.32287" lon="2.14795">
        <ele>1542.8000488281</ele>
        <time>2017-12-02T13:33:05Z</time>
      </trkpt>
      <trkpt lat="42.32283" lon="2.14811">
        <ele>1541.8000488281</ele>
        <time>2017-12-02T13:33:17Z</time>
      </trkpt>
      <trkpt lat="42.32282" lon="2.14824">
        <ele>1538.4000244141</ele>
        <time>2017-12-02T13:33:23Z</time>
      </trkpt>
      <trkpt lat="42.32282" lon="2.14831">
        <ele>1537</ele>
        <time>2017-12-02T13:33:26Z</time>
      </trkpt>
      <trkpt lat="42.32275" lon="2.14841">
        <ele>1536</ele>
        <time>2017-12-02T13:33:33Z</time>
      </trkpt>
      <trkpt lat="42.32256" lon="2.14834">
        <ele>1534.4000244141</ele>
        <time>2017-12-02T13:33:41Z</time>
      </trkpt>
      <trkpt lat="42.32232" lon="2.14837">
        <ele>1531.4000244141</ele>
        <time>2017-12-02T13:33:52Z</time>
      </trkpt>
      <trkpt lat="42.32232" lon="2.14837">
        <ele>1529.8000488281</ele>
        <time>2017-12-02T13:33:55Z</time>
      </trkpt>
      <trkpt lat="42.32213" lon="2.14843">
        <ele>1527.8000488281</ele>
        <time>2017-12-02T13:34:10Z</time>
      </trkpt>
      <trkpt lat="42.32206" lon="2.14842">
        <ele>1525.8000488281</ele>
        <time>2017-12-02T13:34:13Z</time>
      </trkpt>
      <trkpt lat="42.32202" lon="2.14841">
        <ele>1524.8000488281</ele>
        <time>2017-12-02T13:34:15Z</time>
      </trkpt>
      <trkpt lat="42.32191" lon="2.14834">
        <ele>1521.5999755859</ele>
        <time>2017-12-02T13:34:20Z</time>
      </trkpt>
      <trkpt lat="42.32174" lon="2.14834">
        <ele>1518.1999511719</ele>
        <time>2017-12-02T13:34:27Z</time>
      </trkpt>
      <trkpt lat="42.32166" lon="2.14843">
        <ele>1516.5999755859</ele>
        <time>2017-12-02T13:34:31Z</time>
      </trkpt>
      <trkpt lat="42.32156" lon="2.14849">
        <ele>1516.4000244141</ele>
        <time>2017-12-02T13:34:35Z</time>
      </trkpt>
      <trkpt lat="42.3215" lon="2.1485">
        <ele>1516.4000244141</ele>
        <time>2017-12-02T13:34:38Z</time>
      </trkpt>
      <trkpt lat="42.32146" lon="2.14859">
        <ele>1514.8000488281</ele>
        <time>2017-12-02T13:34:44Z</time>
      </trkpt>
      <trkpt lat="42.32136" lon="2.14874">
        <ele>1512.8000488281</ele>
        <time>2017-12-02T13:34:52Z</time>
      </trkpt>
      <trkpt lat="42.3212" lon="2.14874">
        <ele>1510.5999755859</ele>
        <time>2017-12-02T13:35:01Z</time>
      </trkpt>
      <trkpt lat="42.32112" lon="2.14886">
        <ele>1508.1999511719</ele>
        <time>2017-12-02T13:35:12Z</time>
      </trkpt>
      <trkpt lat="42.32107" lon="2.14892">
        <ele>1505</ele>
        <time>2017-12-02T13:35:22Z</time>
      </trkpt>
      <trkpt lat="42.32107" lon="2.14898">
        <ele>1501.8000488281</ele>
        <time>2017-12-02T13:35:38Z</time>
      </trkpt>
      <trkpt lat="42.32107" lon="2.14902">
        <ele>1500.5999755859</ele>
        <time>2017-12-02T13:35:41Z</time>
      </trkpt>
      <trkpt lat="42.32105" lon="2.14911">
        <ele>1497.1999511719</ele>
        <time>2017-12-02T13:35:46Z</time>
      </trkpt>
      <trkpt lat="42.32104" lon="2.1492">
        <ele>1494.1999511719</ele>
        <time>2017-12-02T13:36:01Z</time>
      </trkpt>
      <trkpt lat="42.32104" lon="2.14937">
        <ele>1490.4000244141</ele>
        <time>2017-12-02T13:36:10Z</time>
      </trkpt>
      <trkpt lat="42.32104" lon="2.14946">
        <ele>1487.8000488281</ele>
        <time>2017-12-02T13:36:14Z</time>
      </trkpt>
      <trkpt lat="42.32095" lon="2.14964">
        <ele>1486.1999511719</ele>
        <time>2017-12-02T13:36:22Z</time>
      </trkpt>
      <trkpt lat="42.32096" lon="2.14964">
        <ele>1483.1999511719</ele>
        <time>2017-12-02T13:36:39Z</time>
      </trkpt>
      <trkpt lat="42.32093" lon="2.14971">
        <ele>1479.5999755859</ele>
        <time>2017-12-02T13:36:53Z</time>
      </trkpt>
      <trkpt lat="42.32094" lon="2.14972">
        <ele>1478</ele>
        <time>2017-12-02T13:36:56Z</time>
      </trkpt>
      <trkpt lat="42.32092" lon="2.14978">
        <ele>1474.4000244141</ele>
        <time>2017-12-02T13:37:02Z</time>
      </trkpt>
      <trkpt lat="42.32088" lon="2.14985">
        <ele>1471</ele>
        <time>2017-12-02T13:37:11Z</time>
      </trkpt>
      <trkpt lat="42.32088" lon="2.14987">
        <ele>1470</ele>
        <time>2017-12-02T13:37:13Z</time>
      </trkpt>
      <trkpt lat="42.32087" lon="2.14995">
        <ele>1466.8000488281</ele>
        <time>2017-12-02T13:37:22Z</time>
      </trkpt>
      <trkpt lat="42.32091" lon="2.15012">
        <ele>1463.5999755859</ele>
        <time>2017-12-02T13:37:35Z</time>
      </trkpt>
      <trkpt lat="42.32091" lon="2.15022">
        <ele>1461.5999755859</ele>
        <time>2017-12-02T13:37:41Z</time>
      </trkpt>
      <trkpt lat="42.32082" lon="2.15038">
        <ele>1458.1999511719</ele>
        <time>2017-12-02T13:37:49Z</time>
      </trkpt>
      <trkpt lat="42.32077" lon="2.15043">
        <ele>1456</ele>
        <time>2017-12-02T13:37:53Z</time>
      </trkpt>
      <trkpt lat="42.32069" lon="2.1505">
        <ele>1454</ele>
        <time>2017-12-02T13:37:59Z</time>
      </trkpt>
      <trkpt lat="42.32064" lon="2.1506">
        <ele>1452.4000244141</ele>
        <time>2017-12-02T13:38:03Z</time>
      </trkpt>
      <trkpt lat="42.32063" lon="2.15062">
        <ele>1452</ele>
        <time>2017-12-02T13:38:04Z</time>
      </trkpt>
      <trkpt lat="42.3206" lon="2.15067">
        <ele>1448</ele>
        <time>2017-12-02T13:38:09Z</time>
      </trkpt>
      <trkpt lat="42.3206" lon="2.15067">
        <ele>1444.5999755859</ele>
        <time>2017-12-02T13:38:18Z</time>
      </trkpt>
      <trkpt lat="42.3206" lon="2.15065">
        <ele>1445.8000488281</ele>
        <time>2017-12-02T13:38:35Z</time>
      </trkpt>
      <trkpt lat="42.32038" lon="2.15085">
        <ele>1445</ele>
        <time>2017-12-02T13:38:58Z</time>
      </trkpt>
      <trkpt lat="42.32029" lon="2.15095">
        <ele>1442</ele>
        <time>2017-12-02T13:39:14Z</time>
      </trkpt>
      <trkpt lat="42.32013" lon="2.15116">
        <ele>1442.8000488281</ele>
        <time>2017-12-02T13:39:28Z</time>
      </trkpt>
      <trkpt lat="42.32007" lon="2.15128">
        <ele>1446.1999511719</ele>
        <time>2017-12-02T13:39:36Z</time>
      </trkpt>
      <trkpt lat="42.31999" lon="2.15152">
        <ele>1444.8000488281</ele>
        <time>2017-12-02T13:39:49Z</time>
      </trkpt>
      <trkpt lat="42.31996" lon="2.15163">
        <ele>1441.4000244141</ele>
        <time>2017-12-02T13:39:58Z</time>
      </trkpt>
      <trkpt lat="42.31995" lon="2.15164">
        <ele>1440.5999755859</ele>
        <time>2017-12-02T13:39:59Z</time>
      </trkpt>
      <trkpt lat="42.31989" lon="2.15169">
        <ele>1437.1999511719</ele>
        <time>2017-12-02T13:40:03Z</time>
      </trkpt>
      <trkpt lat="42.31979" lon="2.15173">
        <ele>1434.5999755859</ele>
        <time>2017-12-02T13:40:09Z</time>
      </trkpt>
      <trkpt lat="42.31969" lon="2.15179">
        <ele>1434.1999511719</ele>
        <time>2017-12-02T13:40:16Z</time>
      </trkpt>
      <trkpt lat="42.3196" lon="2.15192">
        <ele>1437.4000244141</ele>
        <time>2017-12-02T13:40:29Z</time>
      </trkpt>
      <trkpt lat="42.31953" lon="2.15192">
        <ele>1436.5999755859</ele>
        <time>2017-12-02T13:40:51Z</time>
      </trkpt>
      <trkpt lat="42.31949" lon="2.15194">
        <ele>1435</ele>
        <time>2017-12-02T13:40:59Z</time>
      </trkpt>
      <trkpt lat="42.31942" lon="2.15209">
        <ele>1433.1999511719</ele>
        <time>2017-12-02T13:41:12Z</time>
      </trkpt>
      <trkpt lat="42.31933" lon="2.15211">
        <ele>1429.4000244141</ele>
        <time>2017-12-02T13:41:20Z</time>
      </trkpt>
      <trkpt lat="42.31924" lon="2.15218">
        <ele>1426</ele>
        <time>2017-12-02T13:41:25Z</time>
      </trkpt>
      <trkpt lat="42.31916" lon="2.1522">
        <ele>1423</ele>
        <time>2017-12-02T13:41:28Z</time>
      </trkpt>
      <trkpt lat="42.31907" lon="2.15222">
        <ele>1420.4000244141</ele>
        <time>2017-12-02T13:41:32Z</time>
      </trkpt>
      <trkpt lat="42.31899" lon="2.15244">
        <ele>1419.5999755859</ele>
        <time>2017-12-02T13:41:45Z</time>
      </trkpt>
      <trkpt lat="42.31894" lon="2.1526">
        <ele>1416.5999755859</ele>
        <time>2017-12-02T13:41:50Z</time>
      </trkpt>
      <trkpt lat="42.31893" lon="2.15269">
        <ele>1416.4000244141</ele>
        <time>2017-12-02T13:41:53Z</time>
      </trkpt>
      <trkpt lat="42.31882" lon="2.15281">
        <ele>1416.1999511719</ele>
        <time>2017-12-02T13:42:00Z</time>
      </trkpt>
      <trkpt lat="42.31875" lon="2.15294">
        <ele>1412.4000244141</ele>
        <time>2017-12-02T13:42:07Z</time>
      </trkpt>
      <trkpt lat="42.31862" lon="2.15301">
        <ele>1409.5999755859</ele>
        <time>2017-12-02T13:42:13Z</time>
      </trkpt>
      <trkpt lat="42.31857" lon="2.15313">
        <ele>1405.1999511719</ele>
        <time>2017-12-02T13:42:19Z</time>
      </trkpt>
      <trkpt lat="42.31851" lon="2.15323">
        <ele>1402</ele>
        <time>2017-12-02T13:42:24Z</time>
      </trkpt>
      <trkpt lat="42.31848" lon="2.15329">
        <ele>1400.5999755859</ele>
        <time>2017-12-02T13:42:27Z</time>
      </trkpt>
      <trkpt lat="42.31837" lon="2.15345">
        <ele>1397.1999511719</ele>
        <time>2017-12-02T13:42:34Z</time>
      </trkpt>
      <trkpt lat="42.31827" lon="2.15358">
        <ele>1393.8000488281</ele>
        <time>2017-12-02T13:42:39Z</time>
      </trkpt>
      <trkpt lat="42.3182" lon="2.15364">
        <ele>1390.5999755859</ele>
        <time>2017-12-02T13:42:45Z</time>
      </trkpt>
      <trkpt lat="42.31807" lon="2.1538">
        <ele>1387.4000244141</ele>
        <time>2017-12-02T13:43:00Z</time>
      </trkpt>
      <trkpt lat="42.31797" lon="2.15387">
        <ele>1385.1999511719</ele>
        <time>2017-12-02T13:43:05Z</time>
      </trkpt>
      <trkpt lat="42.31781" lon="2.15394">
        <ele>1381.5999755859</ele>
        <time>2017-12-02T13:43:13Z</time>
      </trkpt>
      <trkpt lat="42.31773" lon="2.15391">
        <ele>1379.5999755859</ele>
        <time>2017-12-02T13:43:17Z</time>
      </trkpt>
      <trkpt lat="42.31767" lon="2.15393">
        <ele>1378.4000244141</ele>
        <time>2017-12-02T13:43:20Z</time>
      </trkpt>
      <trkpt lat="42.3176" lon="2.15398">
        <ele>1377.4000244141</ele>
        <time>2017-12-02T13:43:24Z</time>
      </trkpt>
      <trkpt lat="42.31747" lon="2.15419">
        <ele>1374</ele>
        <time>2017-12-02T13:43:34Z</time>
      </trkpt>
      <trkpt lat="42.31738" lon="2.15432">
        <ele>1370.4000244141</ele>
        <time>2017-12-02T13:43:40Z</time>
      </trkpt>
      <trkpt lat="42.31728" lon="2.15442">
        <ele>1365.8000488281</ele>
        <time>2017-12-02T13:43:46Z</time>
      </trkpt>
      <trkpt lat="42.31722" lon="2.15454">
        <ele>1365</ele>
        <time>2017-12-02T13:43:51Z</time>
      </trkpt>
      <trkpt lat="42.31711" lon="2.15471">
        <ele>1361.8000488281</ele>
        <time>2017-12-02T13:43:58Z</time>
      </trkpt>
      <trkpt lat="42.31699" lon="2.15485">
        <ele>1358</ele>
        <time>2017-12-02T13:44:05Z</time>
      </trkpt>
      <trkpt lat="42.31698" lon="2.15489">
        <ele>1357.8000488281</ele>
        <time>2017-12-02T13:44:06Z</time>
      </trkpt>
      <trkpt lat="42.31683" lon="2.15517">
        <ele>1354.4000244141</ele>
        <time>2017-12-02T13:44:16Z</time>
      </trkpt>
      <trkpt lat="42.31676" lon="2.15531">
        <ele>1352.4000244141</ele>
        <time>2017-12-02T13:44:20Z</time>
      </trkpt>
      <trkpt lat="42.31656" lon="2.15561">
        <ele>1349.4000244141</ele>
        <time>2017-12-02T13:44:32Z</time>
      </trkpt>
      <trkpt lat="42.31646" lon="2.15583">
        <ele>1349.4000244141</ele>
        <time>2017-12-02T13:44:39Z</time>
      </trkpt>
      <trkpt lat="42.3164" lon="2.15598">
        <ele>1348.8000488281</ele>
        <time>2017-12-02T13:44:44Z</time>
      </trkpt>
      <trkpt lat="42.31637" lon="2.15602">
        <ele>1348.4000244141</ele>
        <time>2017-12-02T13:44:47Z</time>
      </trkpt>
      <trkpt lat="42.31631" lon="2.15612">
        <ele>1345</ele>
        <time>2017-12-02T13:44:53Z</time>
      </trkpt>
      <trkpt lat="42.31625" lon="2.15615">
        <ele>1343.4000244141</ele>
        <time>2017-12-02T13:44:56Z</time>
      </trkpt>
      <trkpt lat="42.31621" lon="2.15618">
        <ele>1341.5999755859</ele>
        <time>2017-12-02T13:44:59Z</time>
      </trkpt>
      <trkpt lat="42.31616" lon="2.15629">
        <ele>1336.8000488281</ele>
        <time>2017-12-02T13:45:04Z</time>
      </trkpt>
      <trkpt lat="42.31614" lon="2.15635">
        <ele>1333.4000244141</ele>
        <time>2017-12-02T13:45:07Z</time>
      </trkpt>
      <trkpt lat="42.31613" lon="2.15638">
        <ele>1332.5999755859</ele>
        <time>2017-12-02T13:45:08Z</time>
      </trkpt>
      <trkpt lat="42.3161" lon="2.15643">
        <ele>1331.5999755859</ele>
        <time>2017-12-02T13:45:11Z</time>
      </trkpt>
      <trkpt lat="42.31595" lon="2.15638">
        <ele>1329</ele>
        <time>2017-12-02T13:45:21Z</time>
      </trkpt>
      <trkpt lat="42.3159" lon="2.15644">
        <ele>1328.1999511719</ele>
        <time>2017-12-02T13:45:25Z</time>
      </trkpt>
      <trkpt lat="42.3158" lon="2.15653">
        <ele>1325.8000488281</ele>
        <time>2017-12-02T13:45:30Z</time>
      </trkpt>
      <trkpt lat="42.31568" lon="2.15672">
        <ele>1322.8000488281</ele>
        <time>2017-12-02T13:45:37Z</time>
      </trkpt>
      <trkpt lat="42.31562" lon="2.15681">
        <ele>1319.8000488281</ele>
        <time>2017-12-02T13:45:41Z</time>
      </trkpt>
      <trkpt lat="42.31559" lon="2.15691">
        <ele>1316.1999511719</ele>
        <time>2017-12-02T13:45:45Z</time>
      </trkpt>
      <trkpt lat="42.31556" lon="2.15702">
        <ele>1312.5999755859</ele>
        <time>2017-12-02T13:45:50Z</time>
      </trkpt>
      <trkpt lat="42.31556" lon="2.1571">
        <ele>1309.4000244141</ele>
        <time>2017-12-02T13:45:53Z</time>
      </trkpt>
      <trkpt lat="42.31552" lon="2.15718">
        <ele>1306.4000244141</ele>
        <time>2017-12-02T13:45:56Z</time>
      </trkpt>
      <trkpt lat="42.31549" lon="2.15723">
        <ele>1303.1999511719</ele>
        <time>2017-12-02T13:45:59Z</time>
      </trkpt>
      <trkpt lat="42.31536" lon="2.15729">
        <ele>1299.8000488281</ele>
        <time>2017-12-02T13:46:05Z</time>
      </trkpt>
      <trkpt lat="42.31533" lon="2.15737">
        <ele>1295.4000244141</ele>
        <time>2017-12-02T13:46:08Z</time>
      </trkpt>
      <trkpt lat="42.31531" lon="2.15742">
        <ele>1291</ele>
        <time>2017-12-02T13:46:10Z</time>
      </trkpt>
      <trkpt lat="42.31531" lon="2.1575">
        <ele>1287.4000244141</ele>
        <time>2017-12-02T13:46:13Z</time>
      </trkpt>
      <trkpt lat="42.31529" lon="2.15757">
        <ele>1286.4000244141</ele>
        <time>2017-12-02T13:46:15Z</time>
      </trkpt>
      <trkpt lat="42.3152" lon="2.15772">
        <ele>1282.5999755859</ele>
        <time>2017-12-02T13:46:22Z</time>
      </trkpt>
      <trkpt lat="42.31518" lon="2.15776">
        <ele>1281.5999755859</ele>
        <time>2017-12-02T13:46:24Z</time>
      </trkpt>
      <trkpt lat="42.31512" lon="2.15789">
        <ele>1278</ele>
        <time>2017-12-02T13:46:30Z</time>
      </trkpt>
      <trkpt lat="42.31509" lon="2.15789">
        <ele>1276</ele>
        <time>2017-12-02T13:46:33Z</time>
      </trkpt>
      <trkpt lat="42.31505" lon="2.15793">
        <ele>1274.5999755859</ele>
        <time>2017-12-02T13:46:48Z</time>
      </trkpt>
      <trkpt lat="42.31501" lon="2.15793">
        <ele>1274.8000488281</ele>
        <time>2017-12-02T13:46:51Z</time>
      </trkpt>
      <trkpt lat="42.31493" lon="2.15793">
        <ele>1274.1999511719</ele>
        <time>2017-12-02T13:47:00Z</time>
      </trkpt>
      <trkpt lat="42.31486" lon="2.15794">
        <ele>1270.8000488281</ele>
        <time>2017-12-02T13:47:09Z</time>
      </trkpt>
      <trkpt lat="42.31483" lon="2.15798">
        <ele>1269.1999511719</ele>
        <time>2017-12-02T13:47:11Z</time>
      </trkpt>
      <trkpt lat="42.31477" lon="2.15804">
        <ele>1265</ele>
        <time>2017-12-02T13:47:16Z</time>
      </trkpt>
      <trkpt lat="42.31472" lon="2.15804">
        <ele>1261.8000488281</ele>
        <time>2017-12-02T13:47:25Z</time>
      </trkpt>
      <trkpt lat="42.31471" lon="2.15801">
        <ele>1258.8000488281</ele>
        <time>2017-12-02T13:47:40Z</time>
      </trkpt>
      <trkpt lat="42.31468" lon="2.158">
        <ele>1258</ele>
        <time>2017-12-02T13:47:50Z</time>
      </trkpt>
      <trkpt lat="42.31471" lon="2.158">
        <ele>1258.4000244141</ele>
        <time>2017-12-02T13:48:09Z</time>
      </trkpt>
      <trkpt lat="42.31467" lon="2.15818">
        <ele>1255.4000244141</ele>
        <time>2017-12-02T13:48:24Z</time>
      </trkpt>
      <trkpt lat="42.31464" lon="2.15826">
        <ele>1252.1999511719</ele>
        <time>2017-12-02T13:48:30Z</time>
      </trkpt>
      <trkpt lat="42.31459" lon="2.15834">
        <ele>1248.5999755859</ele>
        <time>2017-12-02T13:48:34Z</time>
      </trkpt>
      <trkpt lat="42.31454" lon="2.15839">
        <ele>1245.4000244141</ele>
        <time>2017-12-02T13:48:38Z</time>
      </trkpt>
      <trkpt lat="42.31451" lon="2.15843">
        <ele>1243.5999755859</ele>
        <time>2017-12-02T13:48:41Z</time>
      </trkpt>
      <trkpt lat="42.31444" lon="2.15863">
        <ele>1239.4000244141</ele>
        <time>2017-12-02T13:48:49Z</time>
      </trkpt>
      <trkpt lat="42.31438" lon="2.15875">
        <ele>1236.4000244141</ele>
        <time>2017-12-02T13:48:53Z</time>
      </trkpt>
      <trkpt lat="42.3143" lon="2.15892">
        <ele>1233.4000244141</ele>
        <time>2017-12-02T13:48:58Z</time>
      </trkpt>
      <trkpt lat="42.31425" lon="2.15906">
        <ele>1230.1999511719</ele>
        <time>2017-12-02T13:49:02Z</time>
      </trkpt>
      <trkpt lat="42.31418" lon="2.1592">
        <ele>1227.1999511719</ele>
        <time>2017-12-02T13:49:08Z</time>
      </trkpt>
      <trkpt lat="42.31417" lon="2.15921">
        <ele>1227</ele>
        <time>2017-12-02T13:49:09Z</time>
      </trkpt>
      <trkpt lat="42.31415" lon="2.15927">
        <ele>1227.5999755859</ele>
        <time>2017-12-02T13:49:20Z</time>
      </trkpt>
      <trkpt lat="42.31415" lon="2.15942">
        <ele>1226.5999755859</ele>
        <time>2017-12-02T13:49:26Z</time>
      </trkpt>
      <trkpt lat="42.31422" lon="2.15957">
        <ele>1223</ele>
        <time>2017-12-02T13:49:32Z</time>
      </trkpt>
      <trkpt lat="42.31422" lon="2.15957">
        <ele>1220</ele>
        <time>2017-12-02T13:49:36Z</time>
      </trkpt>
      <trkpt lat="42.31428" lon="2.1596">
        <ele>1216.5999755859</ele>
        <time>2017-12-02T13:49:54Z</time>
      </trkpt>
      <trkpt lat="42.31431" lon="2.15961">
        <ele>1215.8000488281</ele>
        <time>2017-12-02T13:49:56Z</time>
      </trkpt>
      <trkpt lat="42.31449" lon="2.15979">
        <ele>1212</ele>
        <time>2017-12-02T13:50:07Z</time>
      </trkpt>
      <trkpt lat="42.3146" lon="2.15982">
        <ele>1209</ele>
        <time>2017-12-02T13:50:12Z</time>
      </trkpt>
      <trkpt lat="42.31473" lon="2.15987">
        <ele>1208.4000244141</ele>
        <time>2017-12-02T13:50:18Z</time>
      </trkpt>
      <trkpt lat="42.31496" lon="2.1599">
        <ele>1204.1999511719</ele>
        <time>2017-12-02T13:50:27Z</time>
      </trkpt>
      <trkpt lat="42.315" lon="2.15993">
        <ele>1202.8000488281</ele>
        <time>2017-12-02T13:50:30Z</time>
      </trkpt>
      <trkpt lat="42.31502" lon="2.15994">
        <ele>1201.8000488281</ele>
        <time>2017-12-02T13:50:34Z</time>
      </trkpt>
      <trkpt lat="42.31503" lon="2.16005">
        <ele>1198.4000244141</ele>
        <time>2017-12-02T13:50:40Z</time>
      </trkpt>
      <trkpt lat="42.31501" lon="2.16005">
        <ele>1197.5999755859</ele>
        <time>2017-12-02T13:50:54Z</time>
      </trkpt>
      <trkpt lat="42.315" lon="2.16001">
        <ele>1198.5999755859</ele>
        <time>2017-12-02T13:51:11Z</time>
      </trkpt>
      <trkpt lat="42.315" lon="2.16004">
        <ele>1198</ele>
        <time>2017-12-02T13:51:27Z</time>
      </trkpt>
      <trkpt lat="42.31494" lon="2.16012">
        <ele>1199.8000488281</ele>
        <time>2017-12-02T13:51:51Z</time>
      </trkpt>
      <trkpt lat="42.31489" lon="2.16014">
        <ele>1196.5999755859</ele>
        <time>2017-12-02T13:51:57Z</time>
      </trkpt>
      <trkpt lat="42.31487" lon="2.16015">
        <ele>1196</ele>
        <time>2017-12-02T13:51:58Z</time>
      </trkpt>
      <trkpt lat="42.31481" lon="2.16018">
        <ele>1191.4000244141</ele>
        <time>2017-12-02T13:52:02Z</time>
      </trkpt>
      <trkpt lat="42.31473" lon="2.16023">
        <ele>1188</ele>
        <time>2017-12-02T13:52:07Z</time>
      </trkpt>
      <trkpt lat="42.31464" lon="2.16028">
        <ele>1184.4000244141</ele>
        <time>2017-12-02T13:52:12Z</time>
      </trkpt>
      <trkpt lat="42.31463" lon="2.16029">
        <ele>1183.5999755859</ele>
        <time>2017-12-02T13:52:14Z</time>
      </trkpt>
      <trkpt lat="42.31462" lon="2.16031">
        <ele>1182.8000488281</ele>
        <time>2017-12-02T13:52:16Z</time>
      </trkpt>
      <trkpt lat="42.31459" lon="2.16032">
        <ele>1181.8000488281</ele>
        <time>2017-12-02T13:52:18Z</time>
      </trkpt>
      <trkpt lat="42.31447" lon="2.16047">
        <ele>1181</ele>
        <time>2017-12-02T13:52:28Z</time>
      </trkpt>
      <trkpt lat="42.31449" lon="2.16048">
        <ele>1179.1999511719</ele>
        <time>2017-12-02T13:52:29Z</time>
      </trkpt>
      <trkpt lat="42.31452" lon="2.16053">
        <ele>1176</ele>
        <time>2017-12-02T13:52:32Z</time>
      </trkpt>
      <trkpt lat="42.31454" lon="2.16058">
        <ele>1173</ele>
        <time>2017-12-02T13:52:36Z</time>
      </trkpt>
      <trkpt lat="42.31448" lon="2.16071">
        <ele>1168</ele>
        <time>2017-12-02T13:52:41Z</time>
      </trkpt>
      <trkpt lat="42.31446" lon="2.16076">
        <ele>1166.1999511719</ele>
        <time>2017-12-02T13:52:43Z</time>
      </trkpt>
      <trkpt lat="42.31443" lon="2.16087">
        <ele>1162.1999511719</ele>
        <time>2017-12-02T13:52:47Z</time>
      </trkpt>
      <trkpt lat="42.31439" lon="2.16105">
        <ele>1158.5999755859</ele>
        <time>2017-12-02T13:52:53Z</time>
      </trkpt>
      <trkpt lat="42.31441" lon="2.16124">
        <ele>1155.8000488281</ele>
        <time>2017-12-02T13:52:59Z</time>
      </trkpt>
      <trkpt lat="42.31441" lon="2.16139">
        <ele>1152.5999755859</ele>
        <time>2017-12-02T13:53:03Z</time>
      </trkpt>
      <trkpt lat="42.31442" lon="2.16152">
        <ele>1149.5999755859</ele>
        <time>2017-12-02T13:53:07Z</time>
      </trkpt>
      <trkpt lat="42.31443" lon="2.16164">
        <ele>1146.1999511719</ele>
        <time>2017-12-02T13:53:11Z</time>
      </trkpt>
      <trkpt lat="42.31443" lon="2.16185">
        <ele>1142.5999755859</ele>
        <time>2017-12-02T13:53:18Z</time>
      </trkpt>
      <trkpt lat="42.31443" lon="2.16202">
        <ele>1139.4000244141</ele>
        <time>2017-12-02T13:53:23Z</time>
      </trkpt>
      <trkpt lat="42.31443" lon="2.16206">
        <ele>1139.1999511719</ele>
        <time>2017-12-02T13:53:24Z</time>
      </trkpt>
      <trkpt lat="42.3144" lon="2.1622">
        <ele>1135.1999511719</ele>
        <time>2017-12-02T13:53:28Z</time>
      </trkpt>
      <trkpt lat="42.31432" lon="2.16233">
        <ele>1131.4000244141</ele>
        <time>2017-12-02T13:53:33Z</time>
      </trkpt>
      <trkpt lat="42.31429" lon="2.16242">
        <ele>1129.5999755859</ele>
        <time>2017-12-02T13:53:36Z</time>
      </trkpt>
      <trkpt lat="42.31419" lon="2.16257">
        <ele>1125.8000488281</ele>
        <time>2017-12-02T13:53:42Z</time>
      </trkpt>
      <trkpt lat="42.31412" lon="2.16268">
        <ele>1122.1999511719</ele>
        <time>2017-12-02T13:53:46Z</time>
      </trkpt>
      <trkpt lat="42.31413" lon="2.16271">
        <ele>1118.8000488281</ele>
        <time>2017-12-02T13:53:52Z</time>
      </trkpt>
      <trkpt lat="42.31407" lon="2.16283">
        <ele>1118.5999755859</ele>
        <time>2017-12-02T13:54:09Z</time>
      </trkpt>
      <trkpt lat="42.31388" lon="2.16293">
        <ele>1117.5999755859</ele>
        <time>2017-12-02T13:54:19Z</time>
      </trkpt>
      <trkpt lat="42.3137" lon="2.16281">
        <ele>1114</ele>
        <time>2017-12-02T13:54:27Z</time>
      </trkpt>
      <trkpt lat="42.31357" lon="2.16275">
        <ele>1110.8000488281</ele>
        <time>2017-12-02T13:54:33Z</time>
      </trkpt>
      <trkpt lat="42.31353" lon="2.16277">
        <ele>1109.4000244141</ele>
        <time>2017-12-02T13:54:36Z</time>
      </trkpt>
      <trkpt lat="42.31339" lon="2.16272">
        <ele>1107.5999755859</ele>
        <time>2017-12-02T13:54:48Z</time>
      </trkpt>
      <trkpt lat="42.31327" lon="2.16264">
        <ele>1104.5999755859</ele>
        <time>2017-12-02T13:54:54Z</time>
      </trkpt>
      <trkpt lat="42.31313" lon="2.16257">
        <ele>1101.5999755859</ele>
        <time>2017-12-02T13:55:01Z</time>
      </trkpt>
      <trkpt lat="42.31304" lon="2.16247">
        <ele>1097.5999755859</ele>
        <time>2017-12-02T13:55:07Z</time>
      </trkpt>
      <trkpt lat="42.31297" lon="2.16247">
        <ele>1096</ele>
        <time>2017-12-02T13:55:10Z</time>
      </trkpt>
      <trkpt lat="42.31281" lon="2.16242">
        <ele>1092.4000244141</ele>
        <time>2017-12-02T13:55:17Z</time>
      </trkpt>
      <trkpt lat="42.31267" lon="2.16242">
        <ele>1088.5999755859</ele>
        <time>2017-12-02T13:55:22Z</time>
      </trkpt>
      <trkpt lat="42.31255" lon="2.16245">
        <ele>1085.1999511719</ele>
        <time>2017-12-02T13:55:26Z</time>
      </trkpt>
      <trkpt lat="42.31242" lon="2.16249">
        <ele>1082.1999511719</ele>
        <time>2017-12-02T13:55:30Z</time>
      </trkpt>
      <trkpt lat="42.3123" lon="2.16257">
        <ele>1080.1999511719</ele>
        <time>2017-12-02T13:55:34Z</time>
      </trkpt>
      <trkpt lat="42.31206" lon="2.1626">
        <ele>1078.8000488281</ele>
        <time>2017-12-02T13:55:43Z</time>
      </trkpt>
      <trkpt lat="42.31201" lon="2.16258">
        <ele>1079.4000244141</ele>
        <time>2017-12-02T13:55:50Z</time>
      </trkpt>
      <trkpt lat="42.31199" lon="2.16252">
        <ele>1079.1999511719</ele>
        <time>2017-12-02T13:56:08Z</time>
      </trkpt>
      <trkpt lat="42.3119" lon="2.16247">
        <ele>1077</ele>
        <time>2017-12-02T13:56:14Z</time>
      </trkpt>
      <trkpt lat="42.31178" lon="2.16247">
        <ele>1075.1999511719</ele>
        <time>2017-12-02T13:56:21Z</time>
      </trkpt>
      <trkpt lat="42.31163" lon="2.16258">
        <ele>1073.5999755859</ele>
        <time>2017-12-02T13:56:29Z</time>
      </trkpt>
      <trkpt lat="42.31154" lon="2.1626">
        <ele>1071.5999755859</ele>
        <time>2017-12-02T13:56:34Z</time>
      </trkpt>
      <trkpt lat="42.31142" lon="2.16264">
        <ele>1068.1999511719</ele>
        <time>2017-12-02T13:56:43Z</time>
      </trkpt>
      <trkpt lat="42.3114" lon="2.16266">
        <ele>1067.1999511719</ele>
        <time>2017-12-02T13:56:45Z</time>
      </trkpt>
      <trkpt lat="42.31133" lon="2.16271">
        <ele>1064.1999511719</ele>
        <time>2017-12-02T13:56:49Z</time>
      </trkpt>
      <trkpt lat="42.31128" lon="2.16275">
        <ele>1063.5999755859</ele>
        <time>2017-12-02T13:56:52Z</time>
      </trkpt>
      <trkpt lat="42.31118" lon="2.16273">
        <ele>1061.5999755859</ele>
        <time>2017-12-02T13:56:57Z</time>
      </trkpt>
      <trkpt lat="42.31111" lon="2.1627">
        <ele>1058.5999755859</ele>
        <time>2017-12-02T13:57:02Z</time>
      </trkpt>
      <trkpt lat="42.3109" lon="2.16268">
        <ele>1054.5999755859</ele>
        <time>2017-12-02T13:57:13Z</time>
      </trkpt>
      <trkpt lat="42.31079" lon="2.1627">
        <ele>1050.8000488281</ele>
        <time>2017-12-02T13:57:20Z</time>
      </trkpt>
      <trkpt lat="42.31077" lon="2.16276">
        <ele>1049.4000244141</ele>
        <time>2017-12-02T13:57:25Z</time>
      </trkpt>
      <trkpt lat="42.31072" lon="2.16285">
        <ele>1047.8000488281</ele>
        <time>2017-12-02T13:57:33Z</time>
      </trkpt>
      <trkpt lat="42.31067" lon="2.16316">
        <ele>1045.5999755859</ele>
        <time>2017-12-02T13:57:50Z</time>
      </trkpt>
      <trkpt lat="42.31064" lon="2.16325">
        <ele>1042</ele>
        <time>2017-12-02T13:57:55Z</time>
      </trkpt>
      <trkpt lat="42.31064" lon="2.16328">
        <ele>1041.1999511719</ele>
        <time>2017-12-02T13:57:56Z</time>
      </trkpt>
      <trkpt lat="42.31063" lon="2.16358">
        <ele>1037.4000244141</ele>
        <time>2017-12-02T13:58:06Z</time>
      </trkpt>
      <trkpt lat="42.3106" lon="2.1637">
        <ele>1035</ele>
        <time>2017-12-02T13:58:11Z</time>
      </trkpt>
      <trkpt lat="42.31057" lon="2.16383">
        <ele>1032.5999755859</ele>
        <time>2017-12-02T13:58:15Z</time>
      </trkpt>
      <trkpt lat="42.31053" lon="2.16384">
        <ele>1030.8000488281</ele>
        <time>2017-12-02T13:58:19Z</time>
      </trkpt>
      <trkpt lat="42.31049" lon="2.1638">
        <ele>1027</ele>
        <time>2017-12-02T13:58:23Z</time>
      </trkpt>
      <trkpt lat="42.31049" lon="2.16379">
        <ele>1026.1999511719</ele>
        <time>2017-12-02T13:58:24Z</time>
      </trkpt>
      <trkpt lat="42.3104" lon="2.16387">
        <ele>1023.799987793</ele>
        <time>2017-12-02T13:58:31Z</time>
      </trkpt>
      <trkpt lat="42.31037" lon="2.16396">
        <ele>1021.5999755859</ele>
        <time>2017-12-02T13:58:35Z</time>
      </trkpt>
      <trkpt lat="42.31036" lon="2.16399">
        <ele>1021.4000244141</ele>
        <time>2017-12-02T13:58:37Z</time>
      </trkpt>
      <trkpt lat="42.31031" lon="2.16391">
        <ele>1017.799987793</ele>
        <time>2017-12-02T13:58:43Z</time>
      </trkpt>
      <trkpt lat="42.31025" lon="2.16392">
        <ele>1014.4000244141</ele>
        <time>2017-12-02T13:58:48Z</time>
      </trkpt>
      <trkpt lat="42.31017" lon="2.16402">
        <ele>1011.5999755859</ele>
        <time>2017-12-02T13:58:52Z</time>
      </trkpt>
      <trkpt lat="42.31015" lon="2.16403">
        <ele>1011.799987793</ele>
        <time>2017-12-02T13:58:53Z</time>
      </trkpt>
      <trkpt lat="42.31001" lon="2.16398">
        <ele>1008.5999755859</ele>
        <time>2017-12-02T13:59:01Z</time>
      </trkpt>
      <trkpt lat="42.30989" lon="2.16392">
        <ele>1005</ele>
        <time>2017-12-02T13:59:06Z</time>
      </trkpt>
      <trkpt lat="42.30977" lon="2.16384">
        <ele>1002.200012207</ele>
        <time>2017-12-02T13:59:11Z</time>
      </trkpt>
      <trkpt lat="42.30962" lon="2.16386">
        <ele>1000.5999755859</ele>
        <time>2017-12-02T13:59:18Z</time>
      </trkpt>
      <trkpt lat="42.30957" lon="2.16378">
        <ele>998.20001220703</ele>
        <time>2017-12-02T13:59:23Z</time>
      </trkpt>
      <trkpt lat="42.30954" lon="2.16371">
        <ele>995.79998779297</ele>
        <time>2017-12-02T13:59:27Z</time>
      </trkpt>
      <trkpt lat="42.30951" lon="2.16364">
        <ele>993</ele>
        <time>2017-12-02T13:59:31Z</time>
      </trkpt>
      <trkpt lat="42.3095" lon="2.16361">
        <ele>991</ele>
        <time>2017-12-02T13:59:33Z</time>
      </trkpt>
      <trkpt lat="42.30941" lon="2.16352">
        <ele>986.79998779297</ele>
        <time>2017-12-02T13:59:38Z</time>
      </trkpt>
      <trkpt lat="42.30935" lon="2.16346">
        <ele>985.20001220703</ele>
        <time>2017-12-02T13:59:42Z</time>
      </trkpt>
      <trkpt lat="42.30929" lon="2.16339">
        <ele>982</ele>
        <time>2017-12-02T13:59:47Z</time>
      </trkpt>
      <trkpt lat="42.30928" lon="2.16338">
        <ele>981.20001220703</ele>
        <time>2017-12-02T13:59:49Z</time>
      </trkpt>
      <trkpt lat="42.30927" lon="2.16337">
        <ele>980</ele>
        <time>2017-12-02T14:00:03Z</time>
      </trkpt>
      <trkpt lat="42.30919" lon="2.16342">
        <ele>978.79998779297</ele>
        <time>2017-12-02T14:00:10Z</time>
      </trkpt>
      <trkpt lat="42.30913" lon="2.16344">
        <ele>976.79998779297</ele>
        <time>2017-12-02T14:00:14Z</time>
      </trkpt>
      <trkpt lat="42.30912" lon="2.16343">
        <ele>976.79998779297</ele>
        <time>2017-12-02T14:00:15Z</time>
      </trkpt>
      <trkpt lat="42.30905" lon="2.16341">
        <ele>973</ele>
        <time>2017-12-02T14:00:22Z</time>
      </trkpt>
      <trkpt lat="42.30896" lon="2.16342">
        <ele>970.59997558594</ele>
        <time>2017-12-02T14:00:27Z</time>
      </trkpt>
      <trkpt lat="42.30884" lon="2.1635">
        <ele>967.79998779297</ele>
        <time>2017-12-02T14:00:35Z</time>
      </trkpt>
      <trkpt lat="42.30875" lon="2.16358">
        <ele>964</ele>
        <time>2017-12-02T14:00:40Z</time>
      </trkpt>
      <trkpt lat="42.30871" lon="2.16363">
        <ele>963.20001220703</ele>
        <time>2017-12-02T14:00:43Z</time>
      </trkpt>
      <trkpt lat="42.30863" lon="2.16375">
        <ele>959.20001220703</ele>
        <time>2017-12-02T14:00:49Z</time>
      </trkpt>
      <trkpt lat="42.30861" lon="2.1638">
        <ele>955.79998779297</ele>
        <time>2017-12-02T14:00:51Z</time>
      </trkpt>
      <trkpt lat="42.30853" lon="2.16397">
        <ele>952</ele>
        <time>2017-12-02T14:00:58Z</time>
      </trkpt>
      <trkpt lat="42.3085" lon="2.16409">
        <ele>949</ele>
        <time>2017-12-02T14:01:02Z</time>
      </trkpt>
      <trkpt lat="42.30844" lon="2.16421">
        <ele>946.79998779297</ele>
        <time>2017-12-02T14:01:07Z</time>
      </trkpt>
      <trkpt lat="42.30836" lon="2.16432">
        <ele>945.79998779297</ele>
        <time>2017-12-02T14:01:12Z</time>
      </trkpt>
      <trkpt lat="42.30823" lon="2.16468">
        <ele>946.20001220703</ele>
        <time>2017-12-02T14:01:25Z</time>
      </trkpt>
      <trkpt lat="42.30805" lon="2.16508">
        <ele>947</ele>
        <time>2017-12-02T14:01:37Z</time>
      </trkpt>
      <trkpt lat="42.30801" lon="2.16518">
        <ele>945.59997558594</ele>
        <time>2017-12-02T14:01:40Z</time>
      </trkpt>
      <trkpt lat="42.30786" lon="2.1654">
        <ele>942.20001220703</ele>
        <time>2017-12-02T14:01:49Z</time>
      </trkpt>
      <trkpt lat="42.30758" lon="2.16567">
        <ele>939.59997558594</ele>
        <time>2017-12-02T14:02:00Z</time>
      </trkpt>
      <trkpt lat="42.30747" lon="2.16585">
        <ele>936.59997558594</ele>
        <time>2017-12-02T14:02:05Z</time>
      </trkpt>
      <trkpt lat="42.3072" lon="2.16625">
        <ele>934.79998779297</ele>
        <time>2017-12-02T14:02:17Z</time>
      </trkpt>
      <trkpt lat="42.30709" lon="2.16636">
        <ele>931.59997558594</ele>
        <time>2017-12-02T14:02:22Z</time>
      </trkpt>
      <trkpt lat="42.30692" lon="2.1665">
        <ele>928.20001220703</ele>
        <time>2017-12-02T14:02:30Z</time>
      </trkpt>
      <trkpt lat="42.30684" lon="2.16653">
        <ele>927.59997558594</ele>
        <time>2017-12-02T14:02:33Z</time>
      </trkpt>
      <trkpt lat="42.30668" lon="2.16668">
        <ele>925.59997558594</ele>
        <time>2017-12-02T14:02:40Z</time>
      </trkpt>
      <trkpt lat="42.30657" lon="2.16682">
        <ele>921.40002441406</ele>
        <time>2017-12-02T14:02:46Z</time>
      </trkpt>
      <trkpt lat="42.30648" lon="2.16693">
        <ele>918.40002441406</ele>
        <time>2017-12-02T14:02:51Z</time>
      </trkpt>
      <trkpt lat="42.30642" lon="2.16701">
        <ele>915.20001220703</ele>
        <time>2017-12-02T14:02:57Z</time>
      </trkpt>
      <trkpt lat="42.3062" lon="2.16711">
        <ele>911.79998779297</ele>
        <time>2017-12-02T14:03:06Z</time>
      </trkpt>
      <trkpt lat="42.3062" lon="2.16711">
        <ele>911.40002441406</ele>
        <time>2017-12-02T14:03:07Z</time>
      </trkpt>
      <trkpt lat="42.30613" lon="2.16712">
        <ele>911.79998779297</ele>
        <time>2017-12-02T14:03:18Z</time>
      </trkpt>
      <trkpt lat="42.30596" lon="2.1673">
        <ele>905.9</ele>
      </trkpt>
      <trkpt lat="42.30607" lon="2.1677">
        <ele>908</ele>
      </trkpt>
      <trkpt lat="42.30616" lon="2.16798">
        <ele>909</ele>
      </trkpt>
      <trkpt lat="42.30604" lon="2.16827">
        <ele>906.8</ele>
      </trkpt>
      <trkpt lat="42.30622" lon="2.16871">
        <ele>906.8</ele>
      </trkpt>
      <trkpt lat="42.30622" lon="2.16893">
        <ele>906.3</ele>
      </trkpt>
    </trkseg>
  </trk>
</gpx>